[[{"header":{"parameterUnit":"m.s-1","parameterCategory":1,"la1":30.6,"la2":29.2853,"lo1":-89.7004,"lo2":-87.6739,"dy":0.0162,"dx":0.0183,"nx":112,"ny":82,"refTime":"2023-04-05T06:00:00:Z","depth":0,"parameterNumber":2,"parameterNumberName":"U-component_of_WINDS"},"data":[0.0,0.0,0.0,0.0,0.0,0.0,0.0,0.0,0.0,0.0,0.0,0.0,0.0,0.0,0.0,0.0,0.0,0.0,0.0,0.0,0.0,0.0,0.0,0.0,0.0,0.0,0.0,0.0,0.0,0.0,0.0,0.0,0.0,0.0,0.0,0.0,0.0,0.0,0.0,0.0,0.0,0.0,0.0,0.0,0.0,0.0,0.0,0.0,0.0,0.0,0.0,0.0,0.0,0.0,0.0,0.0,0.0,0.0,0.0,0.0,0.0,0.0,0.0,0.0,0.0,0.0,0.0,0.0,0.0,0.0,0.0,0.0,0.0,0.0,0.0,0.0,0.0,0.0,0.0,0.0,0.0,0.0,0.0,0.0,0.0,0.0,0.0,0.0,0.0,0.0,0.0,-2.2681,-2.2697,-2.2759,-2.3013,-2.2121,-2.1574,-2.1557,0.0,0.0,0.0,0.0,0.0,0.0,0.0,0.0,0.0,0.0,0.0,0.0,0.0,0.0,0.0,0.0,0.0,0.0,0.0,0.0,0.0,0.0,0.0,0.0,0.0,0.0,0.0,0.0,0.0,0.0,0.0,0.0,0.0,0.0,0.0,0.0,0.0,0.0,0.0,0.0,0.0,0.0,0.0,0.0,0.0,0.0,0.0,0.0,0.0,0.0,0.0,0.0,0.0,0.0,0.0,0.0,0.0,0.0,0.0,0.0,0.0,0.0,0.0,0.0,0.0,0.0,0.0,0.0,0.0,0.0,0.0,0.0,0.0,0.0,0.0,0.0,0.0,0.0,0.0,0.0,0.0,0.0,0.0,0.0,0.0,0.0,0.0,0.0,0.0,0.0,0.0,0.0,0.0,0.0,0.0,0.0,0.0,0.0,0.0,0.0,0.0,0.0,0.0,0.0,-2.1773,-2.2992,-2.2174,-2.1981,-2.3087,-2.2043,-2.1371,-2.1433,0.0,0.0,0.0,0.0,0.0,0.0,0.0,0.0,0.0,0.0,0.0,0.0,0.0,0.0,0.0,0.0,0.0,0.0,0.0,0.0,0.0,0.0,0.0,0.0,0.0,0.0,0.0,0.0,0.0,0.0,0.0,0.0,0.0,0.0,0.0,0.0,0.0,0.0,0.0,0.0,0.0,0.0,0.0,0.0,0.0,0.0,0.0,0.0,0.0,0.0,0.0,0.0,0.0,0.0,0.0,0.0,0.0,0.0,0.0,0.0,0.0,0.0,0.0,0.0,0.0,0.0,0.0,0.0,0.0,0.0,0.0,0.0,0.0,0.0,0.0,0.0,0.0,0.0,0.0,0.0,0.0,0.0,0.0,0.0,0.0,0.0,0.0,0.0,0.0,0.0,0.0,0.0,0.0,0.0,0.0,0.0,0.0,0.0,0.0,0.0,0.0,0.0,0.0,-2.1246,-2.1626,-2.2307,-2.186,-2.1749,-2.2338,-2.1722,-2.1309,-2.134,-2.148,0.0,0.0,0.0,0.0,0.0,0.0,0.0,0.0,0.0,0.0,0.0,0.0,0.0,0.0,0.0,0.0,0.0,0.0,0.0,0.0,0.0,0.0,0.0,0.0,0.0,0.0,0.0,0.0,0.0,0.0,0.0,0.0,0.0,0.0,0.0,0.0,0.0,0.0,0.0,0.0,0.0,0.0,0.0,0.0,0.0,0.0,0.0,0.0,0.0,0.0,0.0,0.0,0.0,0.0,0.0,0.0,0.0,0.0,0.0,0.0,0.0,0.0,0.0,0.0,0.0,0.0,0.0,0.0,0.0,0.0,0.0,0.0,0.0,0.0,0.0,0.0,0.0,0.0,0.0,0.0,0.0,0.0,0.0,0.0,0.0,0.0,0.0,0.0,0.0,0.0,0.0,0.0,0.0,0.0,0.0,0.0,0.0,0.0,0.0,0.0,0.0,0.0,-2.1198,-2.1418,-2.1602,-2.1634,-2.1617,-2.1694,-2.1449,-2.1293,-2.1293,-2.1356,0.0,0.0,0.0,0.0,0.0,0.0,0.0,0.0,0.0,0.0,0.0,0.0,0.0,0.0,0.0,0.0,0.0,0.0,0.0,0.0,0.0,0.0,0.0,0.0,0.0,0.0,0.0,0.0,0.0,0.0,0.0,0.0,0.0,0.0,0.0,0.0,0.0,0.0,0.0,0.0,0.0,0.0,0.0,0.0,0.0,0.0,0.0,0.0,0.0,0.0,0.0,0.0,0.0,0.0,0.0,0.0,0.0,0.0,0.0,0.0,0.0,0.0,0.0,0.0,0.0,0.0,0.0,0.0,0.0,0.0,0.0,0.0,0.0,0.0,0.0,0.0,0.0,0.0,0.0,0.0,0.0,0.0,0.0,0.0,0.0,0.0,0.0,0.0,0.0,0.0,0.0,0.0,0.0,0.0,0.0,0.0,0.0,0.0,0.0,0.0,0.0,0.0,-2.099,-2.1198,-2.1402,-2.1371,-2.1434,-2.1679,-2.1449,-2.1293,-2.1293,-2.1293,0.0,0.0,0.0,0.0,0.0,0.0,0.0,0.0,0.0,0.0,0.0,0.0,0.0,0.0,0.0,0.0,0.0,0.0,0.0,0.0,0.0,0.0,0.0,0.0,0.0,0.0,0.0,0.0,0.0,0.0,0.0,0.0,0.0,0.0,0.0,0.0,0.0,0.0,0.0,0.0,0.0,0.0,0.0,0.0,0.0,0.0,0.0,0.0,0.0,0.0,0.0,0.0,0.0,0.0,0.0,0.0,0.0,0.0,0.0,0.0,0.0,0.0,0.0,0.0,0.0,0.0,0.0,0.0,0.0,0.0,0.0,0.0,0.0,0.0,0.0,0.0,0.0,0.0,0.0,0.0,0.0,0.0,0.0,0.0,0.0,0.0,0.0,0.0,0.0,0.0,0.0,0.0,0.0,0.0,0.0,0.0,0.0,0.0,0.0,0.0,0.0,0.0,-2.0678,-2.0811,0.0,-2.1006,-2.1023,-2.1135,-2.1055,-2.1039,-2.1183,0.0,0.0,0.0,0.0,0.0,0.0,0.0,0.0,0.0,0.0,0.0,0.0,0.0,0.0,0.0,0.0,0.0,0.0,0.0,0.0,0.0,0.0,0.0,0.0,0.0,0.0,0.0,0.0,0.0,0.0,0.0,0.0,0.0,0.0,0.0,0.0,0.0,0.0,0.0,0.0,0.0,0.0,0.0,0.0,0.0,0.0,0.0,0.0,0.0,0.0,0.0,0.0,0.0,0.0,0.0,0.0,0.0,0.0,0.0,0.0,0.0,0.0,0.0,0.0,0.0,0.0,0.0,0.0,0.0,0.0,0.0,0.0,0.0,0.0,0.0,0.0,0.0,0.0,0.0,0.0,0.0,0.0,0.0,0.0,0.0,0.0,0.0,0.0,0.0,0.0,0.0,0.0,0.0,0.0,0.0,0.0,0.0,0.0,0.0,0.0,0.0,0.0,-2.0409,-2.0477,-2.0561,0.0,-2.0761,-2.0794,-2.0794,-2.0794,-2.086,-2.1006,0.0,0.0,0.0,0.0,0.0,0.0,0.0,0.0,0.0,0.0,0.0,0.0,0.0,0.0,0.0,0.0,0.0,0.0,0.0,0.0,0.0,0.0,0.0,0.0,0.0,0.0,0.0,0.0,0.0,0.0,0.0,0.0,0.0,0.0,0.0,0.0,0.0,0.0,0.0,0.0,0.0,0.0,0.0,0.0,0.0,0.0,0.0,0.0,0.0,0.0,0.0,0.0,0.0,0.0,0.0,0.0,0.0,0.0,0.0,0.0,0.0,0.0,0.0,0.0,0.0,0.0,0.0,0.0,0.0,0.0,0.0,0.0,0.0,0.0,0.0,0.0,0.0,0.0,0.0,0.0,0.0,0.0,0.0,0.0,0.0,0.0,0.0,0.0,0.0,0.0,0.0,0.0,0.0,0.0,0.0,0.0,0.0,0.0,0.0,0.0,0.0,0.0,-2.0252,-2.0409,-2.0494,-2.051,-2.0678,-2.0794,-2.0794,-2.0794,-2.0794,0.0,0.0,0.0,0.0,0.0,0.0,0.0,0.0,0.0,0.0,0.0,0.0,0.0,0.0,0.0,0.0,0.0,0.0,0.0,0.0,0.0,0.0,0.0,0.0,0.0,0.0,0.0,0.0,0.0,0.0,0.0,0.0,0.0,0.0,0.0,0.0,0.0,0.0,0.0,0.0,0.0,0.0,0.0,0.0,0.0,0.0,0.0,0.0,0.0,0.0,0.0,0.0,0.0,0.0,0.0,0.0,0.0,0.0,0.0,0.0,0.0,0.0,0.0,0.0,0.0,0.0,0.0,0.0,0.0,0.0,0.0,0.0,0.0,0.0,0.0,0.0,0.0,0.0,0.0,0.0,0.0,0.0,0.0,0.0,0.0,0.0,0.0,0.0,0.0,0.0,0.0,0.0,0.0,0.0,0.0,0.0,0.0,0.0,0.0,0.0,0.0,0.0,0.0,-2.01,-2.0187,-2.0254,-2.0356,-2.0424,-2.0458,-2.0458,-2.0458,-2.0477,-2.0578,0.0,0.0,0.0,0.0,0.0,0.0,0.0,0.0,0.0,0.0,0.0,0.0,0.0,0.0,0.0,0.0,0.0,0.0,0.0,0.0,0.0,0.0,0.0,0.0,0.0,0.0,0.0,0.0,0.0,0.0,0.0,0.0,0.0,0.0,0.0,0.0,0.0,0.0,0.0,0.0,0.0,0.0,0.0,0.0,0.0,0.0,0.0,0.0,0.0,0.0,0.0,0.0,0.0,0.0,0.0,0.0,0.0,0.0,0.0,0.0,0.0,0.0,0.0,0.0,0.0,0.0,0.0,0.0,0.0,0.0,0.0,0.0,0.0,0.0,0.0,0.0,0.0,0.0,0.0,0.0,0.0,0.0,0.0,0.0,0.0,0.0,0.0,0.0,0.0,0.0,0.0,0.0,0.0,0.0,0.0,0.0,0.0,0.0,0.0,0.0,0.0,0.0,-1.9749,-1.9836,-1.9907,-2.0148,-2.0183,-2.0131,-1.9942,-1.9942,-1.9942,-1.9942,0.0,0.0,0.0,0.0,0.0,0.0,0.0,0.0,0.0,0.0,0.0,0.0,0.0,0.0,0.0,0.0,0.0,0.0,0.0,0.0,0.0,0.0,0.0,0.0,0.0,0.0,0.0,0.0,0.0,0.0,0.0,0.0,0.0,0.0,0.0,0.0,0.0,0.0,0.0,0.0,0.0,0.0,0.0,0.0,0.0,0.0,0.0,0.0,0.0,0.0,0.0,0.0,0.0,0.0,0.0,0.0,0.0,0.0,0.0,0.0,0.0,0.0,0.0,0.0,0.0,0.0,0.0,0.0,0.0,0.0,0.0,0.0,0.0,0.0,0.0,0.0,0.0,0.0,0.0,0.0,0.0,0.0,0.0,0.0,0.0,0.0,0.0,0.0,0.0,0.0,0.0,0.0,0.0,0.0,0.0,0.0,0.0,0.0,0.0,0.0,0.0,0.0,-1.9225,-1.9332,-1.9475,-1.9848,-1.9884,-1.9726,-1.9369,-1.935,-1.9258,-1.9068,0.0,0.0,0.0,0.0,0.0,0.0,0.0,0.0,0.0,0.0,0.0,0.0,0.0,0.0,0.0,0.0,0.0,0.0,0.0,0.0,0.0,0.0,0.0,0.0,0.0,0.0,0.0,0.0,0.0,0.0,0.0,0.0,0.0,0.0,0.0,0.0,0.0,0.0,0.0,0.0,0.0,0.0,0.0,0.0,0.0,0.0,0.0,0.0,0.0,0.0,0.0,0.0,0.0,0.0,0.0,0.0,0.0,0.0,0.0,0.0,-0.8568,0.0,0.0,0.0,0.0,0.0,0.0,0.0,0.0,0.0,0.0,0.0,0.0,0.0,0.0,0.0,0.0,0.0,0.0,0.0,0.0,0.0,0.0,0.0,0.0,0.0,0.0,0.0,0.0,0.0,0.0,0.0,0.0,0.0,0.0,0.0,0.0,0.0,0.0,0.0,0.0,0.0,-1.8703,-1.8774,-1.8812,-1.8968,-1.8987,-1.8949,-1.8855,-1.8855,-1.8836,-1.8779,0.0,0.0,0.0,0.0,0.0,0.0,0.0,0.0,0.0,0.0,0.0,0.0,0.0,0.0,0.0,0.0,0.0,0.0,0.0,0.0,0.0,0.0,0.0,0.0,0.0,0.0,0.0,0.0,0.0,0.0,0.0,0.0,0.0,0.0,0.0,0.0,0.0,0.0,0.0,0.0,0.0,0.0,0.0,0.0,0.0,0.0,0.0,0.0,0.0,0.0,0.0,0.0,0.0,0.0,0.0,0.0,0.0,0.0,0.0,0.0,0.0,-0.9379,0.0,0.0,0.0,0.0,0.0,0.0,0.0,0.0,0.0,0.0,0.0,0.0,0.0,0.0,0.0,0.0,0.0,0.0,0.0,0.0,0.0,0.0,0.0,0.0,0.0,0.0,0.0,0.0,0.0,0.0,0.0,0.0,0.0,0.0,0.0,0.0,0.0,0.0,0.0,0.0,-1.8139,-1.8212,-1.8324,-1.8583,-1.8588,-1.8505,-1.8277,-1.8257,-1.8218,-1.812,-1.7908,0.0,0.0,0.0,0.0,0.0,0.0,0.0,0.0,0.0,0.0,0.0,0.0,0.0,0.0,0.0,0.0,0.0,0.0,0.0,0.0,0.0,0.0,0.0,0.0,0.0,0.0,0.0,0.0,0.0,0.0,0.0,0.0,0.0,0.0,0.0,0.0,0.0,0.0,0.0,0.0,0.0,0.0,0.0,0.0,0.0,0.0,0.0,0.0,0.0,0.0,0.0,0.0,0.0,0.0,-1.1162,-1.1162,-1.1295,-1.1424,-1.1527,-1.1571,-1.1029,-1.0037,0.0,0.0,0.0,0.0,0.0,0.0,0.0,0.0,0.0,0.0,0.0,0.0,0.0,0.0,0.0,0.0,0.0,0.0,0.0,0.0,0.0,0.0,0.0,0.0,0.0,-1.6534,-1.679,0.0,0.0,0.0,0.0,0.0,0.0,0.0,0.0,0.0,0.0,0.0,0.0,-1.7659,-1.77,-1.7828,-1.8226,-1.8266,-1.8108,-1.774,-1.77,-1.7618,-1.7455,-1.7303,-1.7365,0.0,0.0,0.0,0.0,0.0,0.0,0.0,0.0,0.0,0.0,0.0,0.0,0.0,0.0,0.0,0.0,0.0,0.0,0.0,0.0,0.0,0.0,0.0,0.0,0.0,0.0,0.0,0.0,0.0,0.0,0.0,0.0,-0.903,-0.8592,0.0,0.0,0.0,0.0,0.0,0.0,0.0,0.0,0.0,0.0,0.0,0.0,0.0,0.0,-1.125,-1.1635,-1.1728,-1.1584,-1.2509,-1.2957,-1.2986,-1.3697,-1.3871,-1.3601,-1.3608,0.0,-1.0806,-1.007,0.0,0.0,0.0,0.0,0.0,0.0,0.0,0.0,0.0,0.0,0.0,0.0,0.0,0.0,0.0,0.0,0.0,0.0,0.0,0.0,0.0,0.0,-1.2381,-1.5419,-1.6306,-1.6459,0.0,-1.7655,-1.8821,-1.9228,0.0,0.0,0.0,0.0,0.0,0.0,0.0,0.0,-1.7261,-1.7282,-1.7303,-1.7352,-1.7372,-1.7352,-1.7282,-1.7282,-1.7282,-1.724,-1.722,-1.722,-1.7282,-1.724,0.0,0.0,0.0,0.0,0.0,0.0,0.0,0.0,0.0,0.0,0.0,0.0,0.0,0.0,0.0,0.0,0.0,0.0,0.0,0.0,0.0,0.0,0.0,0.0,0.0,0.0,0.0,0.0,0.0,-0.8703,-0.9343,-0.8814,-0.9056,-0.8709,0.0,0.0,0.0,0.0,0.0,0.0,0.0,0.0,0.0,-1.146,-1.2129,-1.2511,-1.258,-1.313,-1.3367,-1.3263,-1.3734,-1.3985,-1.4,-1.4352,-1.4328,-1.3982,-1.3982,-1.3389,-1.2324,-1.1316,-1.0603,-1.0059,0.0,0.0,0.0,0.0,0.0,-0.9292,-0.9425,0.0,0.0,0.0,0.0,0.0,0.0,0.0,0.0,0.0,0.0,0.0,0.0,0.0,0.0,-1.5473,-1.6048,-1.6116,-1.6116,-1.6983,-1.7836,0.0,-1.8647,-1.8984,-1.8922,0.0,0.0,0.0,0.0,0.0,-1.7062,-1.7044,-1.7044,-1.7044,-1.7044,-1.7044,-1.7044,-1.7044,-1.7044,-1.7044,-1.7044,-1.7044,-1.7044,-1.7044,-1.7044,0.0,0.0,0.0,0.0,0.0,0.0,0.0,0.0,0.0,0.0,0.0,0.0,0.0,0.0,0.0,0.0,0.0,0.0,0.0,0.0,0.0,0.0,0.0,0.0,0.0,0.0,0.0,0.0,-0.937,-1.0031,-0.9196,-0.9616,-0.9363,0.0,0.0,0.0,0.0,0.0,0.0,-1.0783,-1.1689,-1.2364,-1.2731,-1.3401,-1.3844,-1.3998,-1.4471,-1.4714,-1.4714,-1.4714,-1.4714,-1.4714,-1.4714,-1.4494,-1.4144,-1.4144,-1.3872,-1.3418,-1.2337,-1.1619,-1.1167,-1.0632,-1.048,-1.0545,-1.0623,-1.0642,-1.0672,-1.0916,-1.0916,-1.085,-1.1012,0.0,-1.0874,-1.0956,0.0,0.0,0.0,0.0,-1.0478,-1.1808,0.0,-1.393,-1.5473,-1.5885,-1.5885,-1.5885,-1.6324,-1.6814,0.0,-1.7655,-1.8228,-1.8632,0.0,0.0,0.0,0.0,-1.7453,-1.695,-1.6995,-1.7063,-1.691,-1.6897,-1.6897,-1.6897,-1.6897,-1.6897,-1.6897,-1.6897,-1.6897,-1.6897,-1.6897,-1.6897,-1.6897,0.0,0.0,0.0,0.0,0.0,0.0,0.0,0.0,0.0,0.0,0.0,0.0,0.0,0.0,0.0,0.0,0.0,0.0,0.0,0.0,0.0,0.0,0.0,0.0,0.0,0.0,0.0,0.0,0.0,-1.0155,-1.0958,0.0,0.0,0.0,0.0,-1.0691,-1.1046,-1.16,-1.2332,-1.3086,-1.3805,-1.4439,-1.4993,-1.5306,-1.5306,-1.5357,-1.5338,-1.5338,-1.5338,-1.5338,-1.5338,-1.5338,-1.5035,-1.4482,-1.4482,-1.4084,-1.3455,-1.2688,-1.2352,-1.2242,-1.1512,-1.1241,-1.1241,-1.1122,-1.1073,-1.1045,-1.0931,-1.0902,-1.0902,-1.0916,-1.0859,-1.084,-1.1019,-1.1544,0.0,0.0,-1.1674,-1.2193,-1.3165,-1.3272,-1.3583,-1.5298,-1.5798,-1.5885,-1.5885,-1.5914,-1.6163,0.0,-1.76,-1.7929,-1.7396,0.0,-1.7205,-1.6762,-1.7153,-1.735,-1.6871,-1.731,-1.7456,-1.6961,-1.6897,-1.6897,-1.6897,-1.6897,-1.6897,-1.6897,-1.6897,-1.6897,-1.6897,-1.6897,-1.6897,-1.6897,-1.6054,0.0,0.0,0.0,0.0,0.0,0.0,0.0,0.0,0.0,0.0,0.0,0.0,0.0,0.0,0.0,0.0,0.0,0.0,0.0,0.0,0.0,0.0,0.0,0.0,0.0,0.0,0.0,0.0,-1.0631,-1.1455,0.0,0.0,-1.0955,-1.1421,-1.1458,-1.2543,-1.3215,-1.3404,-1.3974,-1.4405,-1.4648,-1.4855,-1.5041,-1.5215,-1.5013,-1.4953,-1.5075,-1.5075,-1.5075,-1.5075,-1.5075,-1.4882,-1.4496,-1.413,-1.3714,-1.328,-1.287,-1.2874,-1.309,-1.2829,-1.2729,-1.2729,-1.2662,-1.2628,-1.2628,-1.2594,-1.2561,-1.2561,-1.2561,-1.2568,-1.2402,-1.1635,-1.1427,-1.1231,-1.0215,-1.091,-1.2035,-1.2387,-1.3514,-1.475,-1.537,-1.5546,-1.5575,-1.5575,-1.5662,-1.5846,-1.6124,-1.6531,-1.6916,-1.7174,-1.7225,-1.7194,-1.7078,-1.7237,-1.7315,-1.7147,-1.7313,-1.7387,-1.7248,-1.7219,-1.7055,-1.6688,-1.665,-1.665,-1.665,-1.665,-1.665,-1.665,-1.6358,-1.6194,-1.6194,-1.5591,-1.5119,0.0,0.0,0.0,0.0,0.0,0.0,0.0,0.0,0.0,0.0,0.0,0.0,0.0,0.0,0.0,0.0,0.0,0.0,0.0,0.0,0.0,0.0,0.0,0.0,0.0,0.0,-1.1545,-1.0802,-1.1808,-1.2187,-1.1255,-1.1948,-1.2535,-1.2689,-1.3651,-1.424,-1.4177,-1.4527,-1.4692,-1.4692,-1.4692,-1.4824,-1.509,-1.4792,-1.4767,-1.4979,-1.4897,-1.4808,-1.4849,-1.483,-1.4645,-1.4326,-1.3885,-1.3531,-1.32,-1.2973,-1.3046,-1.3309,-1.3382,-1.3382,-1.3382,-1.3382,-1.3382,-1.3382,-1.3309,-1.3309,-1.3309,-1.3309,-1.3346,-1.3223,-1.2407,-1.2155,-1.1999,-1.0992,-1.1728,-1.2856,-1.2951,-1.4032,-1.5147,-1.5352,-1.541,-1.541,-1.541,-1.5507,-1.5614,-1.5701,-1.5865,-1.62,-1.6691,-1.6793,-1.6854,-1.6895,-1.712,-1.7194,-1.7012,-1.7041,-1.7003,-1.6875,-1.6713,-1.6457,-1.6069,-1.6032,-1.6032,-1.6032,-1.6032,-1.6032,-1.6032,-1.5734,-1.5557,-1.5557,-1.5234,-1.4942,-1.4671,0.0,0.0,0.0,0.0,0.0,0.0,0.0,0.0,0.0,0.0,0.0,0.0,0.0,0.0,0.0,0.0,0.0,0.0,0.0,0.0,0.0,0.0,0.0,-0.9881,-1.1243,-1.1921,-1.0847,-1.2094,-1.2844,-1.2415,-1.2767,-1.3435,-1.433,-1.4398,-1.4482,-1.465,-1.4692,-1.4692,-1.4692,-1.4692,-1.4824,-1.5082,-1.4817,-1.481,-1.5075,-1.481,-1.4678,-1.4713,-1.4623,-1.4405,-1.4098,-1.3823,-1.3508,-1.3177,-1.2987,-1.2907,-1.29,-1.3119,-1.3193,-1.3193,-1.3193,-1.3193,-1.3156,-1.2973,-1.29,-1.29,-1.29,-1.3046,-1.3193,-1.3193,-1.3825,-1.4478,-1.4122,-1.4287,-1.4618,-1.493,-1.4753,-1.4617,-1.5235,-1.5381,-1.5381,-1.541,-1.541,-1.5449,-1.5643,-1.5798,-1.5885,-1.5885,-1.6009,-1.6085,-1.6085,-1.6708,0.0,-1.6477,-1.6535,-1.6403,-1.5875,-1.5429,-1.5143,-1.5108,-1.5131,-1.5119,-1.5108,-1.5108,-1.5108,-1.5108,-1.5085,-1.5097,-1.5131,-1.5058,-1.5083,-1.5238,0.0,0.0,0.0,0.0,0.0,0.0,0.0,0.0,0.0,0.0,0.0,0.0,0.0,0.0,0.0,0.0,0.0,0.0,0.0,0.0,0.0,0.0,-1.1945,-1.1765,-1.2445,-1.2983,-1.3107,-1.3533,-1.3769,-1.3639,-1.3837,-1.4056,-1.4188,-1.4321,-1.4356,-1.4292,-1.425,-1.425,-1.425,-1.425,-1.4454,-1.4824,-1.4358,-1.4337,-1.4739,-1.4494,-1.4405,-1.4405,-1.4402,-1.4318,-1.4219,-1.3745,-1.3362,-1.3034,-1.289,-1.2686,-1.2489,-1.2863,-1.2973,-1.2973,-1.2973,-1.2973,-1.2973,-1.2936,-1.29,-1.29,-1.29,-1.2936,-1.2973,-1.2973,-1.31,-1.3158,-1.2826,-1.306,-1.342,-1.324,-1.348,-1.3932,-1.4588,-1.4765,-1.4854,-1.5323,-1.541,-1.541,-1.5478,-1.5507,-1.5604,-1.5856,-1.5943,-1.5933,-1.5933,-1.6134,0.0,-1.6661,-1.6715,-1.6677,-1.6546,-1.6491,-1.618,-1.5446,-1.5531,-1.5452,-1.5131,-1.5108,-1.5108,-1.5108,-1.4766,-1.4946,-1.566,-1.532,-1.5492,0.0,0.0,0.0,0.0,0.0,0.0,0.0,0.0,0.0,0.0,0.0,0.0,0.0,0.0,0.0,0.0,0.0,0.0,0.0,0.0,0.0,0.0,-1.1731,-1.2926,-1.33,-1.3467,-1.3709,-1.4063,-1.4088,-1.4088,-1.4088,-1.4201,-1.4243,-1.413,-1.4201,-1.4201,-1.413,-1.4088,-1.4088,-1.4088,-1.4088,-1.4286,-1.4692,-1.4199,-1.42,-1.4639,-1.4358,-1.4234,-1.4193,-1.4145,-1.4123,0.0,-1.3672,-1.3393,-1.3197,-1.3017,-1.2839,0.0,0.0,0.0,0.0,0.0,-1.2709,-1.2636,-1.2636,-1.2636,-1.2636,-1.2636,-1.2753,-1.29,-1.29,-1.2955,-1.2963,-1.2638,-1.2747,-1.295,-1.2767,-1.2983,-1.3414,-1.3967,-1.4082,-1.4261,-1.4883,-1.503,-1.5089,-1.5352,0.0,0.0,-1.5662,-1.5759,-1.5827,-1.5827,-1.5856,-1.6019,-1.6371,-1.6251,-1.6133,-1.6121,-1.6026,-1.5745,-1.5261,-1.5317,0.0,0.0,0.0,-1.5046,-1.4987,-1.4633,0.0,0.0,0.0,-1.5609,0.0,0.0,0.0,0.0,-1.6769,-1.6314,0.0,0.0,0.0,0.0,0.0,0.0,0.0,0.0,0.0,0.0,0.0,0.0,0.0,0.0,0.0,0.0,-1.2241,-1.3565,-1.4369,-1.4302,-1.4135,-1.4135,-1.4108,-1.4102,-1.4135,-1.4135,-1.4135,-1.4135,-1.4135,-1.4122,-1.4088,0.0,0.0,0.0,0.0,-1.4396,-1.4692,-1.4362,-1.4404,-1.4734,-1.4328,-1.4124,-1.4117,-1.398,-1.3899,-1.3926,-1.3688,-1.3545,-1.351,-1.3333,-1.324,-1.3153,-1.2767,-1.2617,-1.261,-1.2576,-1.2452,0.0,0.0,0.0,0.0,-1.2305,-1.2526,-1.282,-1.282,-1.3119,-1.3353,-1.3026,-1.2974,-1.3001,-1.2949,-1.2908,-1.2996,-1.3342,-1.3415,-1.3563,-1.4231,-1.444,-1.4647,-1.5206,-1.5352,-1.541,-1.541,-1.5546,-1.5672,-1.5672,-1.5769,-1.5856,-1.5856,-1.5477,-1.5237,-1.5237,0.0,0.0,-1.4806,-1.4832,-1.4828,-1.4787,-1.4892,-1.4892,-1.4777,-1.4602,-1.457,-1.4689,-1.5093,-1.5663,-1.6375,-1.6768,-1.7279,-1.7852,-1.6703,-1.6049,0.0,0.0,0.0,0.0,0.0,0.0,0.0,0.0,0.0,0.0,0.0,0.0,0.0,0.0,0.0,-1.0983,-1.2706,-1.4079,-1.4456,-1.4476,-1.4436,-1.4436,-1.4229,-1.4175,-1.4409,-1.4436,-1.4436,-1.4436,-1.4436,-1.4335,-1.4095,-1.4309,0.0,-1.4095,-1.4747,-1.4934,-1.4699,-1.49,-1.4993,-1.4999,0.0,0.0,-1.4356,-1.4147,-1.4043,-1.4043,-1.4025,-1.3816,-1.3594,-1.3561,-1.3387,-1.3173,-1.2882,-1.2772,-1.2746,-1.2466,-1.2342,-1.2305,-1.2305,-1.2305,-1.2305,-1.2305,-1.2342,-1.2415,-1.2415,-1.2709,0.0,-1.2593,-1.2755,-1.2949,-1.2661,-1.2391,-1.2362,-1.2957,-1.2905,-1.2887,-1.3563,-1.4112,-1.4529,-1.4647,-1.5059,-1.541,-1.541,-1.5439,-1.5449,-1.5449,-1.5478,-1.5507,-1.5507,-1.5438,-1.5351,-1.5351,-1.5435,-1.5332,-1.5002,-1.5054,-1.4958,-1.457,-1.4576,-1.4602,-1.4576,-1.4523,-1.4914,-1.5763,-1.5885,-1.6172,-1.6693,-1.6778,-1.6719,-1.6492,-1.7301,-1.7429,0.0,0.0,0.0,0.0,0.0,0.0,0.0,0.0,0.0,0.0,0.0,-0.7382,0.0,0.0,-1.1422,-1.1916,-1.3449,-1.4629,-1.4917,-1.483,-1.4743,-1.4743,-1.4616,-1.4583,-1.473,-1.4743,-1.4743,-1.4743,-1.4743,-1.4683,-1.4579,-1.4663,-1.4676,-1.4529,-1.4788,-1.4932,-1.4929,-1.4766,-1.4732,-1.4908,-1.4454,-1.4243,-1.4243,-1.4166,-1.4168,-1.4295,-1.4148,-1.4088,-1.4026,-1.3928,-1.3781,-1.3621,-1.3313,-1.3052,-1.275,-1.2412,-1.2305,-1.2305,-1.2305,-1.2305,-1.2305,-1.2305,-1.2378,-1.2452,-1.2452,-1.2673,-1.2901,-1.2819,-1.2956,-1.3035,-1.2813,-1.2643,-1.2542,-1.2704,-1.2628,-1.2667,-1.3371,-1.3624,-1.3838,-1.4193,-1.4637,-1.4942,-1.4942,-1.5206,-1.541,-1.541,-1.541,-1.541,-1.541,-1.541,-1.541,-1.541,-1.5478,-1.5486,-1.5365,-1.5402,-1.5369,-1.5205,-1.5036,-1.5008,-1.5101,-1.5008,-1.5209,-1.5746,-1.5746,-1.5897,-1.6257,-1.6257,-1.6171,-1.6019,-1.6673,-1.6945,0.0,0.0,0.0,0.0,0.0,0.0,0.0,0.0,-0.6817,-0.9031,-0.9543,-0.9786,-1.0544,-1.1734,-1.2723,-1.2906,-1.4045,-1.4997,-1.5344,-1.5197,-1.5095,-1.5095,-1.4995,-1.4948,-1.5001,-1.5008,-1.5028,-1.5089,-1.5095,-1.5068,-1.5015,-1.5062,-1.5068,-1.5008,-1.4888,-1.4936,-1.5214,-1.467,-1.4562,-1.4783,-1.4355,-1.4166,-1.4166,-1.413,-1.4215,-1.4422,-1.4188,-1.4222,-1.4422,-1.4182,-1.4088,-1.4055,-1.372,-1.3347,-1.2918,-1.2556,-1.2351,-1.2305,-1.2305,-1.2305,-1.2305,-1.2305,-1.2415,-1.2526,-1.2526,-1.2673,-1.2863,-1.3046,-1.3119,-1.3135,-1.3027,-1.2912,-1.2838,-1.2577,-1.2495,-1.2613,-1.3176,-1.3215,-1.3252,-1.3705,-1.4197,-1.4529,-1.4598,-1.5062,-1.5428,-1.54,-1.541,-1.541,-1.541,-1.541,-1.541,-1.541,-1.541,-1.5478,-1.5643,-1.5643,-1.5701,-1.5788,-1.5536,-1.5478,-1.5643,-1.5478,-1.541,-1.541,-1.541,-1.5478,-1.5643,-1.5643,-1.573,-1.5856,-1.5856,-1.6025,-0.1171,-0.2977,-0.5032,-0.5969,-0.6949,-0.8028,0.0,0.0,-0.8899,-0.9985,-1.0331,-1.0707,-1.15,-1.2272,-1.2925,-1.3423,-1.4094,-1.4763,-1.5317,-1.5364,-1.5351,-1.5351,-1.4883,-1.4669,-1.4981,-1.5008,-1.5115,-1.5331,-1.5351,-1.5237,-1.5022,-1.5211,-1.5231,-1.5015,-1.5669,-1.5768,-1.528,-1.5455,-1.5383,-1.5147,-1.4613,-1.4356,-1.4356,-1.4166,-1.4108,-1.4135,-1.4102,-1.4108,-1.4135,-1.4102,-1.4088,-1.4055,-1.372,-1.356,-1.3433,-1.2945,-1.2563,-1.2305,-1.2305,-1.2305,-1.2305,-1.2305,-1.2335,-1.2342,-1.2342,-1.2489,-1.2636,-1.2673,-1.2783,-1.2929,-1.2931,-1.2677,-1.2494,-1.2642,-1.2448,-1.2308,-1.2552,-1.3045,-1.3385,-1.3164,-1.3857,-1.4603,-1.4963,-1.5326,-1.5536,-1.541,-1.541,-1.541,-1.541,-1.541,-1.541,-1.541,-1.541,-1.541,-1.5439,-1.5439,-1.5449,-1.5449,-1.541,-1.541,-1.5439,-1.541,-1.541,-1.541,-1.541,-1.541,-1.5439,-1.5439,-1.5536,-1.5711,-1.5711,-1.5874,-0.3109,-0.4691,0.0,0.0,-0.7794,-0.911,-0.9723,-1.0239,-1.0956,-1.2233,-1.2691,-1.2902,-1.3108,-1.3658,-1.4137,0.0,-1.4887,-1.5318,-1.5611,-1.5504,-1.5337,-1.5209,-1.4776,-1.4703,-1.517,-1.5217,-1.5337,-1.5625,-1.5651,-1.5591,-1.5471,-1.5585,-1.5591,-1.5471,-1.5638,-1.565,-1.5543,-1.5359,-1.5298,-1.5255,-1.4729,-1.4545,-1.4757,-1.4459,-1.4436,-1.4646,-1.4776,-1.4756,-1.4626,-1.4409,-1.4342,-1.4309,-1.4015,-1.3753,-1.3553,-1.3173,-1.2864,-1.2596,-1.2596,-1.2445,-1.2305,-1.2305,-1.2305,-1.2305,-1.2305,-1.2378,-1.2452,-1.2562,-1.2673,-1.2746,-1.2863,-1.2802,-1.2704,-1.2812,-1.2713,-1.2657,-1.287,-1.2963,-1.302,-1.2987,-1.3516,-1.3983,-1.4151,-1.4965,-1.5583,-1.5523,-1.5666,-1.5821,-1.5821,-1.5566,-1.541,-1.541,-1.541,-1.541,-1.541,-1.541,-1.541,-1.541,-1.541,-1.541,-1.541,-1.541,-1.541,-1.541,-1.541,-1.541,-1.541,-1.541,-1.5449,-1.5546,-1.5643,-1.5788,-0.4122,0.0,0.0,-0.7399,-0.9044,-1.0683,-1.1131,-1.1934,-1.2945,-1.4107,-1.4496,-1.4576,-1.4369,-1.4609,-1.4941,-1.5102,-1.5364,-1.5618,-1.5698,-1.5531,-1.5257,-1.4883,-1.4649,-1.4689,-1.511,-1.5157,-1.5311,-1.5678,-1.5712,-1.5698,-1.5778,-1.5784,-1.5784,-1.5784,-1.5625,-1.5564,-1.575,-1.5322,-1.5174,-1.5309,-1.4872,-1.4756,-1.5001,-1.4743,-1.4763,-1.5015,-1.5097,-1.5037,-1.4823,-1.4522,-1.4402,-1.4382,-1.4168,-1.3955,-1.37,-1.3534,-1.3206,-1.2898,-1.2811,-1.2643,-1.2412,-1.2325,-1.2305,-1.2305,-1.2305,-1.2305,-1.2342,-1.2489,-1.2526,-1.2562,-1.2709,-1.2716,-1.2746,-1.2783,-1.2826,-1.2863,-1.3083,-1.2978,-1.2863,-1.2918,-1.3224,-1.3525,-1.366,-1.4589,-1.5464,-1.5893,-1.6077,-1.6112,-1.6094,-1.5684,-1.541,-1.541,-1.541,-1.541,-1.541,-1.541,-1.541,-1.541,-1.541,-1.541,-1.541,-1.541,-1.5469,-1.5586,-1.5586,-1.5654,-1.5771,-1.5654,-1.5586,-1.5586,-1.5595,-1.5778,0.0,0.0,-0.741,-0.915,-1.1482,-1.3558,-1.4615,-1.4859,-1.4917,-1.4981,-1.4988,-1.4995,-1.4981,-1.4716,-1.4723,-1.5291,-1.5164,-1.5135,-1.5371,-1.5404,-1.5184,-1.4603,-1.4522,-1.4529,0.0,-1.4543,-1.4783,-1.5364,-1.5411,-1.5531,-1.5764,-1.5784,-1.5784,-1.5784,-1.5771,-1.5764,-1.5818,-1.5524,-1.5384,-1.5378,-1.5135,-1.5001,-1.5008,-1.4995,-1.5001,-1.4995,-1.4669,-1.4543,-1.4509,-1.4222,-1.4102,-1.4095,-1.4088,-1.4082,-1.4075,-1.4068,-1.3694,-1.3153,-1.2891,-1.2777,-1.2723,-1.2398,-1.2305,-1.2305,-1.2305,-1.2305,-1.2305,-1.2305,-1.2305,-1.2305,-1.2335,-1.2335,-1.2378,-1.2562,-1.2599,-1.2673,-1.2863,-1.3039,-1.3092,-1.2777,-1.3143,-1.3605,-1.4021,-1.4382,-1.5138,-1.6653,-1.6486,-1.6174,-1.6101,-1.5684,-1.541,-1.541,-1.541,-1.541,-1.541,-1.541,-1.541,-1.541,-1.541,-1.541,-1.541,-1.541,-1.5615,-1.6065,-1.6075,-1.626,-1.6658,-1.626,-1.6075,-1.6065,-1.5605,-1.5777,0.0,0.0,-0.8161,-0.9078,-1.1375,-1.3341,-1.3069,-1.4038,-1.4955,-1.471,-1.4074,-1.3487,-1.3249,-1.3289,-1.3478,-1.3864,-1.467,-1.5284,-1.5384,-1.5398,-1.5177,-1.4589,-1.4522,0.0,0.0,0.0,0.0,-1.5351,-1.5398,-1.5524,-1.5764,-1.5784,-1.5784,-1.5784,-1.5784,-1.5784,-1.5784,-1.5732,-1.5685,-1.5678,-1.5585,-1.5438,-1.5257,-1.5451,-1.5538,-1.5531,-1.5431,-1.5277,-1.5077,-1.4834,-1.4556,-1.4355,-1.4162,-1.4088,-1.4088,-1.4088,-1.3961,-1.3748,-1.3447,-1.3213,-1.3006,-1.2737,-1.2739,-1.2826,-1.2425,-1.2476,-1.2589,-1.2358,-1.2305,-1.2305,-1.2305,-1.2305,-1.2335,-1.2378,-1.2415,-1.2452,-1.2673,-1.2746,-1.2865,-1.2984,-1.3165,-1.3382,-1.3654,-1.4216,-1.4958,-1.5948,-1.66,-1.6783,-1.6172,-1.5958,-1.5762,-1.5439,-1.541,-1.541,-1.541,-1.5684,-1.587,-1.587,-1.6123,-1.6258,-1.6258,-1.6258,-1.6326,-1.6504,-1.6514,-1.6551,-1.6697,-1.631,-1.6095,-1.6085,-1.5753,-1.572,0.0,-0.7031,-0.8263,-0.9343,-1.1423,-1.3037,-1.2716,-1.3948,-1.5003,-1.4603,-1.3607,-1.2713,-1.2344,-1.231,-1.2349,-1.2536,-1.3548,-1.4388,-1.4698,-1.474,-1.4759,-1.4665,-1.4676,-1.4609,0.0,0.0,0.0,-1.5211,-1.5337,-1.5524,-1.5764,-1.5784,-1.5784,-1.5784,-1.5784,-1.5784,-1.5784,-1.5784,-1.5784,-1.5784,-1.5784,-1.5732,-1.5558,-1.5745,-1.5772,-1.5671,-1.5565,-1.5357,-1.5064,-1.477,-1.4536,-1.4349,-1.4162,-1.4088,-1.4088,-1.4088,-1.4088,-1.4041,-1.3706,-1.348,-1.3313,-1.3013,-1.3046,-1.314,-1.2746,-1.2723,-1.2744,-1.2549,-1.2385,-1.2305,-1.2305,-1.2305,-1.2305,-1.2305,-1.2305,-1.2342,-1.2452,-1.2562,-1.2709,-1.3046,-1.3163,-1.3273,-1.3455,-1.4122,-1.4744,-1.5242,-1.6412,-1.6963,-1.6224,-1.6232,-1.6191,-1.5918,-1.5742,-1.5713,-1.5839,-1.6026,-1.6163,-1.632,-1.6572,-1.6697,-1.6697,-1.6697,-1.6775,-1.6963,-1.6963,-1.7009,-1.7155,-1.6592,-1.6299,-1.6289,-1.5822,-1.5643,-0.6204,-0.7075,-0.7911,-1.0081,-1.1649,-1.2892,-1.3643,-1.4612,-1.5177,-1.4532,-1.3487,-1.2576,0.0,0.0,-1.1373,-1.1396,-1.1974,-1.2725,-1.3587,-1.3697,-1.4014,0.0,0.0,0.0,0.0,0.0,0.0,-1.5028,0.0,-1.5524,-1.5764,-1.5784,-1.5784,-1.5784,-1.5784,-1.5784,-1.5784,-1.5784,-1.5784,-1.5784,-1.5784,-1.5784,-1.5784,-1.5784,-1.5671,-1.5384,-1.5149,-1.481,-1.4496,-1.4222,-1.4102,-1.4088,-1.4088,-1.4088,-1.4088,-1.4088,-1.4088,-1.4048,-1.3726,-1.3626,-1.358,-1.3327,-1.324,-1.3253,-1.322,-1.3013,-1.2831,-1.2811,-1.2603,-1.2345,-1.2325,-1.2338,-1.2345,-1.2325,-1.2325,-1.2325,-1.2325,-1.2472,-1.2693,-1.2863,-1.3083,-1.3273,-1.3455,-1.4086,-1.453,-1.453,-1.5842,-1.6681,-1.6279,-1.6508,-1.6726,-1.6697,-1.6357,-1.63,-1.6668,-1.6357,-1.6339,-1.6707,-1.6755,-1.6765,-1.6765,-1.6765,-1.6992,-1.7402,-1.7422,-1.7607,-1.8008,-1.7145,-1.6726,-1.6677,-1.5839,-1.5546,-0.7161,-0.8008,-0.8977,-1.0637,-1.174,-1.2641,-1.3602,-1.4262,-1.4379,-1.3112,-1.1961,-1.0814,0.0,0.0,0.0,-1.1403,-1.3076,0.0,-1.4862,-1.5127,0.0,-1.5003,0.0,-1.5204,-1.5028,-1.5157,0.0,0.0,-1.5351,-1.5524,-1.5764,-1.5784,-1.5784,-1.5784,-1.5784,-1.5784,-1.5784,-1.5784,-1.5784,-1.5784,-1.5784,-1.5784,-1.5784,-1.5784,-1.5671,-1.5391,-1.5317,-1.4997,-1.4466,-1.4442,-1.4282,-1.4088,-1.4088,-1.4088,-1.4088,-1.4088,-1.4088,-1.4075,-1.4001,-1.3975,-1.3928,-1.3586,-1.3681,-1.3781,-1.334,-1.3307,-1.3367,-1.3153,-1.3039,-1.2926,-1.273,-1.2806,-1.2919,-1.2723,-1.267,-1.267,-1.267,-1.2821,-1.2948,-1.2905,-1.32,-1.3455,-1.3492,-1.3666,-1.3775,-1.3775,-1.5037,-1.6052,-1.6169,-1.6797,-1.709,-1.6736,-1.6599,-1.658,-1.6687,-1.6924,-1.709,-1.7217,-1.751,-1.7686,-1.7686,-1.7686,-1.7734,-1.7852,-1.7852,-1.79,-1.8008,-1.748,-1.7051,-1.6697,-1.6473,-1.6045,-0.8083,-0.872,-0.9542,-1.0877,-1.1735,-1.2409,-1.2787,-1.3213,-1.3101,-1.1624,-1.0418,0.0,-0.8553,0.0,0.0,0.0,0.0,0.0,-1.468,-1.4937,-1.514,0.0,-1.5484,0.0,-1.5357,-1.5491,-1.5585,0.0,-1.5585,-1.5658,-1.5771,-1.5784,-1.5832,-1.5981,-1.5981,-1.5981,-1.5981,-1.5981,-1.5927,-1.5784,-1.5784,-1.5784,-1.5784,-1.5784,-1.5671,-1.5398,0.0,-1.5137,-1.4703,-1.4576,-1.4422,-1.4282,-1.4282,-1.4282,-1.4282,-1.4282,-1.4282,-1.4262,-1.4128,-1.4088,-1.4062,-1.3895,-1.3948,-1.4028,-1.3694,-1.3621,-1.3573,-1.3407,-1.3307,-1.3173,-1.2993,-1.308,-1.3166,-1.2993,-1.3024,-1.3094,-1.3094,-1.3288,-1.3439,-1.3454,-1.362,-1.3711,-1.3711,-1.3587,-1.3492,-1.3492,-1.476,-1.5773,-1.5971,-1.6957,-1.7559,-1.7291,-1.7096,-1.709,-1.7243,-1.7353,-1.7461,-1.7646,-1.7881,-1.8008,-1.8008,-1.8008,-1.8008,-1.8008,-1.8008,-1.8008,-1.8008,-1.7588,-1.7409,-1.744,-1.7333,-1.7206,-0.8904,-0.9454,-1.0045,-1.1161,-1.1927,-1.2367,-1.1976,-1.2059,-1.1798,-1.0213,0.0,-0.8354,-0.8193,-0.8962,-0.9644,-0.9773,0.0,-1.2796,-1.4009,-1.4225,-1.4669,-1.567,-1.5784,-1.5784,-1.5784,-1.5784,-1.5784,-1.5784,-1.5784,-1.5784,-1.5784,-1.5784,-1.5927,-1.6177,-1.6218,-1.6265,-1.6265,-1.6224,-1.6076,-1.5832,-1.5832,-1.5784,-1.5784,-1.5784,-1.5671,-1.5398,0.0,0.0,-1.4988,-1.4689,-1.4583,-1.4583,-1.4583,-1.4583,-1.4583,-1.4583,-1.4556,-1.4489,-1.4275,-1.4175,-1.4135,-1.4095,-1.4088,-1.4088,-1.4088,-1.3908,-1.366,-1.366,-1.348,-1.332,-1.328,-1.33,-1.332,-1.3273,-1.3412,-1.3557,-1.3557,-1.3773,-1.4002,-1.4241,-1.4152,-1.4086,-1.4086,-1.3777,-1.3594,-1.3704,-1.4864,-1.5745,-1.5851,-1.7123,-1.8008,-1.8008,-1.7686,-1.7607,-1.7978,-1.7676,-1.7627,-1.7988,-1.8008,-1.8008,-1.8008,-1.8008,-1.8008,-1.8008,-1.8008,-1.8076,-1.8168,-1.7836,-1.7968,-1.8585,-1.8426,-1.8683,-0.9883,-1.0385,-1.1331,-1.2443,-1.293,-1.3147,-1.3002,-1.2452,0.0,0.0,-0.8533,-0.8108,-0.7174,-0.8065,-0.935,-1.0563,-1.1866,0.0,0.0,0.0,-1.5305,0.0,0.0,0.0,0.0,0.0,0.0,0.0,0.0,0.0,-1.5784,-1.5784,-1.5927,-1.6177,-1.6407,-1.6541,-1.6541,-1.6312,-1.6177,-1.613,-1.5927,-1.5784,-1.5784,-1.5784,-1.5671,-1.5398,0.0,0.0,-1.5008,-1.4955,-1.4928,-1.4928,-1.4928,-1.4928,-1.4928,-1.4928,-1.473,-1.4549,-1.4743,-1.4649,-1.4402,-1.4168,-1.4088,-1.4088,-1.4088,-1.4048,-1.4008,-1.4008,-1.3975,-1.3881,-1.3586,-1.3754,-1.3874,-1.3586,-1.3723,-1.3912,-1.3912,-1.4046,-1.4263,-1.4689,-1.4564,-1.4423,-1.4423,-1.4152,-1.4111,-1.4721,-1.5333,-1.5956,-1.662,-1.7476,-1.8008,-1.8008,-1.7949,-1.793,-1.8008,-1.7939,-1.793,-1.8008,-1.8008,-1.8008,-1.8008,-1.8008,-1.8008,-1.8008,-1.8008,-1.8361,-1.9077,-1.8994,-1.9211,-1.9634,-1.9998,-1.9845,-1.0735,-1.0957,-1.1734,-1.3066,-1.3397,-1.3171,-1.2261,0.0,0.0,0.0,-0.7528,-0.7341,-0.679,-0.7865,0.0,-1.0113,-1.1708,-1.3233,0.0,0.0,0.0,0.0,0.0,0.0,0.0,0.0,0.0,0.0,0.0,0.0,-1.5784,-1.6062,-1.6353,-1.6602,-1.6824,-1.6918,-1.6831,-1.669,-1.6461,-1.6224,-1.6076,-1.5933,-1.5784,-1.5784,-1.5752,-1.5618,-1.5618,0.0,-1.5404,-1.5251,-1.519,-1.519,-1.519,-1.519,-1.519,-1.519,-1.5097,-1.497,-1.5008,-1.487,-1.4703,-1.4409,-1.4309,-1.4309,-1.4309,-1.4208,-1.4122,-1.4269,-1.4202,-1.4088,-1.4053,-1.4208,-1.4318,-1.4269,-1.4441,-1.4606,-1.4696,-1.478,-1.4892,-1.5126,-1.4933,-1.4714,-1.4714,-1.445,-1.453,-1.529,-1.5728,-1.6251,-1.7087,-1.7687,-1.8008,-1.8008,-1.8008,-1.8008,-1.8008,-1.8008,-1.8008,-1.8008,-1.8008,-1.8008,-1.8008,-1.8008,-1.8008,-1.8008,-1.8327,-1.8721,-1.9133,-1.954,-2.0062,-2.0694,-2.0986,-2.1129,-1.1536,-1.1771,-1.2386,-1.3554,-1.3768,-1.3188,-1.1391,-1.0501,0.0,-0.7219,-0.6769,-0.6778,-0.6833,-0.7762,-0.8724,0.0,-1.0941,-1.2413,-1.3561,0.0,0.0,0.0,0.0,0.0,0.0,0.0,0.0,0.0,0.0,0.0,-1.5784,-1.6298,-1.6683,-1.6925,-1.7153,-1.7239,-1.7073,-1.7026,-1.6791,-1.6366,-1.6312,-1.617,-1.5879,-1.5879,-1.5832,-1.5784,-1.5784,0.0,0.0,-1.5585,-1.5537,-1.5584,-1.5491,-1.5491,-1.5491,-1.5491,-1.5451,-1.5371,-1.5204,-1.511,-1.5048,-1.471,-1.4569,-1.4509,-1.4449,-1.4269,-1.4135,-1.4362,-1.4262,-1.4155,-1.4442,-1.4522,-1.4579,-1.4959,-1.509,-1.5191,-1.5464,-1.5449,-1.5427,-1.5403,-1.5185,-1.5009,-1.5009,-1.4779,-1.4866,-1.5645,-1.6109,-1.665,-1.7506,-1.7986,-1.8281,-1.8281,-1.8115,-1.8008,-1.8008,-1.8008,-1.8008,-1.8008,-1.8096,-1.8105,-1.8018,-1.8096,-1.8105,-1.8008,-1.8529,-1.8911,-1.9133,-1.9857,-2.0677,-2.1577,-2.1815,-2.2292,-1.247,-1.3389,-1.4262,-1.4124,-1.4239,-1.3786,-1.1539,0.0,-0.9218,-0.7444,-0.7013,-0.7046,-0.7306,-0.7444,-0.7913,0.0,0.0,-1.0313,-1.2602,0.0,0.0,0.0,0.0,0.0,0.0,0.0,0.0,0.0,0.0,0.0,0.0,-1.6298,-1.6636,-1.6636,-1.7052,-1.7286,-1.7286,-1.7113,-1.6979,-1.6932,-1.669,-1.6407,-1.6177,-1.6177,-1.6028,-1.5784,0.0,0.0,0.0,-1.5852,-1.5886,-1.6082,-1.5839,-1.5744,-1.5744,-1.5744,-1.5625,-1.5431,-1.5665,-1.5578,-1.5311,-1.5062,-1.4743,-1.4469,-1.4208,-1.4108,-1.4095,-1.4122,-1.4108,-1.4155,-1.4442,-1.4522,-1.4677,-1.5427,-1.5431,-1.5385,-1.5763,-1.5648,-1.5469,-1.5398,-1.5367,-1.5345,-1.5345,-1.5075,-1.513,-1.5944,-1.6489,-1.7125,-1.7861,-1.8661,-1.917,-1.917,-1.8477,-1.8008,-1.8008,-1.8008,-1.8008,-1.8008,-1.8334,-1.8373,-1.8027,-1.8344,-1.8364,-1.8018,-1.8076,-1.8563,-1.9562,-2.0204,-2.1069,-2.2039,-2.2659,-2.3017,-1.2911,-1.3731,-1.4443,-1.4577,-1.4197,-1.3201,-1.1214,0.0,-0.8801,-0.7547,-0.7268,-0.7323,-0.7576,-0.7632,-0.7811,0.0,0.0,0.0,-1.0723,0.0,0.0,0.0,0.0,0.0,0.0,0.0,0.0,0.0,0.0,0.0,0.0,-1.6487,-1.6723,-1.7005,-1.7185,-1.7279,-1.7279,-1.7239,-1.7113,-1.6979,-1.6885,-1.669,-1.6447,-1.6265,-1.6123,-1.6028,0.0,0.0,0.0,-1.6076,-1.6218,-1.64,-1.617,-1.6028,-1.6028,-1.5879,-1.5711,-1.5671,-1.5744,-1.5752,-1.5578,-1.5162,-1.4928,-1.473,-1.4436,-1.4222,-1.4122,-1.4302,-1.4222,-1.4155,-1.4442,-1.4744,-1.5086,-1.5604,-1.5722,-1.572,-1.567,-1.5691,-1.5683,-1.5447,-1.5389,-1.5389,-1.5389,-1.5279,-1.5472,-1.6338,-1.6436,-1.6909,-1.8174,-1.8453,-1.8709,-1.9251,-1.875,-1.8496,-1.876,-1.85,-1.8461,-1.876,-1.8936,-1.8955,-1.8789,-1.8945,-1.8945,-1.8779,-1.9183,-1.9496,-1.9651,-2.0445,-2.1173,-2.1803,-2.2187,-2.2641,-1.2918,-1.3787,-1.4461,-1.4757,-1.3884,-1.2524,0.0,0.0,-0.8436,-0.7589,-0.7448,-0.7594,-0.786,-0.7933,-0.7881,-0.7812,-0.8346,-0.8911,-0.924,-1.0207,0.0,0.0,0.0,0.0,0.0,0.0,0.0,0.0,0.0,0.0,0.0,-1.673,-1.6871,-1.7192,-1.7286,-1.7279,-1.7279,-1.7279,-1.7239,-1.7113,-1.7113,-1.6972,-1.673,-1.6501,-1.6407,-1.6312,0.0,0.0,0.0,-1.617,-1.6312,-1.6581,-1.6312,-1.6224,-1.6177,-1.5981,-1.5879,-1.5784,-1.5784,-1.5784,-1.5698,-1.5251,-1.5075,-1.4955,-1.4609,-1.4315,-1.4128,-1.4335,-1.4309,-1.4302,-1.4683,-1.5116,-1.5534,-1.5874,-1.6053,-1.6102,-1.582,-1.5872,-1.5799,-1.5469,-1.5462,-1.5498,-1.5403,-1.5469,-1.5742,-1.6237,-1.65,-1.709,-1.8278,-1.8643,-1.8995,-1.9621,-1.9277,-1.9092,-1.9268,-1.9004,-1.8965,-1.9268,-1.9404,-1.9414,-1.9287,-1.9404,-1.9414,-1.9287,-1.9811,-1.9971,-1.977,-2.0702,-2.1315,-2.1661,-2.2073,-2.2567,-1.2389,-1.3612,-1.4492,-1.4486,-1.3389,-1.2005,0.0,0.0,-0.82,-0.7528,-0.7605,-0.7865,-0.8133,-0.8207,-0.8101,-0.7838,-0.7801,0.0,-0.853,-0.9241,0.0,0.0,0.0,0.0,0.0,0.0,0.0,0.0,0.0,0.0,0.0,-1.6979,-1.6979,-1.6979,-1.72,-1.7279,-1.7279,-1.7279,-1.7279,-1.7279,-1.7279,-1.72,-1.6979,-1.6979,-1.6831,0.0,0.0,0.0,0.0,-1.6021,-1.6109,-1.6581,-1.6312,-1.6224,-1.6224,-1.6224,-1.6028,-1.5784,-1.5784,-1.5784,-1.5785,-1.5484,-1.5197,-1.4955,-1.4609,-1.4315,-1.4088,-1.4088,-1.4295,-1.4649,-1.5237,-1.5582,-1.5941,-1.6465,-1.6574,-1.6546,-1.6417,-1.619,-1.5885,-1.5471,-1.5687,-1.5804,-1.5447,-1.5694,-1.5804,-1.5474,-1.687,-1.7989,-1.7989,-1.9511,-2.0586,-2.0595,-2.0166,-1.9736,-1.9316,-1.9287,-1.9277,-1.9287,-1.9678,-1.9727,-1.9307,-1.9687,-1.9717,-1.9297,-1.9495,-1.9687,-1.9887,-2.0956,-2.1595,-2.1804,-2.2689,-2.3078,-1.0962,-1.1847,-1.2375,-1.2177,-1.1178,-1.0125,-0.9733,-0.8642,-0.7744,-0.7906,-0.8014,-0.8144,-0.8355,-0.8398,-0.8318,-0.8106,-0.8068,0.0,0.0,0.0,0.0,0.0,0.0,0.0,0.0,0.0,0.0,0.0,0.0,0.0,0.0,0.0,-1.7021,-1.7192,-1.7286,-1.7279,-1.7279,-1.7279,-1.7279,-1.7279,-1.7279,-1.7286,-1.72,-1.7066,0.0,0.0,0.0,0.0,0.0,-1.6595,-1.6737,-1.6878,-1.6791,-1.6744,-1.6697,-1.6319,-1.617,-1.6028,-1.5879,-1.5784,-1.5785,-1.5491,-1.5337,-1.517,-1.4669,-1.4315,-1.4128,-1.4329,-1.4449,-1.47,-1.5479,-1.5734,-1.5948,-1.6465,-1.673,-1.6811,-1.6533,-1.653,-1.649,-1.6155,-1.6155,-1.6191,-1.6089,-1.6155,-1.6328,-1.658,-1.7106,-1.7796,-1.8763,-1.9371,-1.9932,-2.0527,-2.0478,-2.0341,-2.0204,-1.9883,-1.9844,-2.0184,-2.0321,-2.0341,-2.0204,-2.0456,-2.0504,-2.0414,-2.1128,-2.1397,-2.112,-2.1748,-2.204,-2.2009,-2.2776,-2.3108,-0.9616,-1.0439,-1.0938,-1.0876,-0.9971,0.0,0.0,-0.8253,-0.7557,-0.8084,-0.8207,-0.8257,-0.8468,-0.8441,-0.836,-0.8234,-0.803,-0.8015,0.0,0.0,0.0,0.0,0.0,0.0,0.0,0.0,0.0,0.0,0.0,0.0,0.0,0.0,-1.6991,-1.7143,-1.7033,-1.7026,-1.715,-1.715,-1.7208,-1.7279,-1.7279,-1.7279,-1.7279,-1.7153,0.0,0.0,0.0,0.0,0.0,-1.6831,-1.6831,-1.6831,-1.6831,-1.6831,-1.6831,-1.6454,-1.6359,-1.6312,-1.6163,-1.6116,-1.6082,-1.5812,-1.563,-1.5494,-1.5052,-1.4613,-1.4335,-1.4736,-1.4807,-1.4994,-1.5741,-1.6001,-1.6171,-1.6659,-1.6925,-1.7019,-1.6709,-1.6766,-1.68,-1.6477,-1.6514,-1.6558,-1.6433,-1.6817,-1.7131,-1.7167,-1.777,-1.8466,-1.9228,-1.9578,-2.001,-2.0527,-2.0605,-2.0605,-2.0605,-2.0312,-2.0273,-2.0586,-2.0654,-2.0693,-2.0693,-2.0896,-2.1022,-2.1022,-2.1711,-2.2083,-2.206,-2.2784,-2.2876,-2.2371,-2.3102,-2.3308,0.0,-0.9241,-0.9951,-1.0261,-0.95,-0.8746,-0.8995,-0.8226,0.0,-0.8084,-0.8224,-0.8268,-0.8452,-0.8301,-0.8176,-0.8186,-0.7744,0.0,0.0,0.0,0.0,0.0,0.0,0.0,0.0,0.0,0.0,0.0,0.0,0.0,0.0,0.0,-1.6866,-1.6866,-1.6529,-1.6529,-1.6895,-1.6903,-1.7011,-1.7279,-1.7279,-1.7279,-1.7279,-1.7279,0.0,0.0,0.0,0.0,0.0,-1.673,-1.6629,-1.6636,-1.6608,-1.6615,-1.6629,-1.6608,-1.6615,-1.6636,-1.6636,-1.6588,-1.6541,-1.6312,-1.6019,-1.5817,-1.5774,-1.5195,-1.4713,-1.5283,-1.5418,-1.551,-1.6114,-1.6385,-1.6614,-1.6955,-1.7153,-1.7252,-1.6998,-1.6939,-1.6844,-1.6543,-1.6727,-1.6837,-1.6536,-1.7518,-1.8117,-1.7483,-1.8847,-1.9865,-1.9482,-2.0136,-2.0644,-2.0605,-2.0605,-2.0644,-2.0644,-2.0605,-2.0605,-2.0605,-2.0819,-2.0906,-2.0906,-2.1099,-2.1205,-2.1205,-2.1474,-2.1993,-2.2829,-2.3968,-2.3956,-2.2967,-2.3715,-2.3766,-0.7081,0.0,-0.7693,-0.7863,-0.7711,-0.7566,0.0,-0.7768,-0.7801,-0.8122,-0.8328,0.0,-0.829,-0.8095,-0.7968,-0.7908,-0.7734,-0.8115,0.0,0.0,0.0,0.0,0.0,0.0,0.0,0.0,0.0,0.0,0.0,0.0,0.0,0.0,-1.6529,-1.6529,-1.5935,-1.6038,-1.6895,-1.6903,-1.7011,-1.7279,-1.7279,-1.7279,-1.7279,-1.7279,0.0,0.0,0.0,0.0,-1.7026,-1.7106,-1.7059,-1.6904,-1.6839,-1.6928,-1.707,-1.6647,-1.6679,-1.6878,-1.6683,-1.6588,-1.6588,-1.6541,-1.6285,-1.6063,-1.6323,-1.5948,-1.551,-1.5885,-1.5979,-1.6053,-1.6638,-1.6835,-1.6933,-1.7178,-1.7286,-1.7264,-1.723,-1.7216,-1.7194,-1.7113,-1.7165,-1.7194,-1.7113,-1.798,-1.8744,-1.9006,-2.0033,-2.0778,-2.0771,-2.0915,-2.0987,-2.0858,-2.0819,-2.0896,-2.1051,-2.077,-2.0654,-2.0819,-2.0867,-2.0984,-2.1128,-2.132,-2.1436,-2.1436,-2.2214,-2.3124,-2.4096,-2.4372,-2.4429,-2.4318,-2.4523,-2.4525,-0.6612,-0.6904,-0.7158,-0.7044,-0.7192,-0.7367,-0.7396,-0.7519,-0.7709,-0.7971,-0.8066,0.0,0.0,-0.802,-0.8009,-0.7786,-0.8379,0.0,0.0,0.0,0.0,0.0,0.0,0.0,0.0,0.0,0.0,0.0,0.0,0.0,0.0,0.0,-1.6733,-1.6206,-1.6045,-1.6154,-1.6418,-1.6426,-1.666,-1.7106,-1.696,-1.6967,-1.7106,-1.696,0.0,0.0,0.0,0.0,-1.695,-1.7181,-1.72,-1.7012,-1.6972,-1.7047,-1.7131,-1.6825,-1.6922,-1.7106,-1.6958,-1.6871,-1.6777,-1.6911,-1.675,-1.6557,-1.6861,-1.6668,-1.644,-1.638,-1.6436,-1.6572,-1.6936,-1.7066,-1.7153,-1.7286,-1.7279,-1.7279,-1.7279,-1.7279,-1.7279,-1.7279,-1.7645,-1.7971,-1.7971,-1.9193,-2.0165,-2.0272,-2.1099,-2.1598,-2.1257,-2.1271,-2.1233,-2.0917,-2.0984,-2.1099,-2.1167,-2.1002,-2.0935,-2.1022,-2.1128,-2.1205,-2.132,-2.154,-2.1655,-2.1655,-2.2868,-2.3618,-2.3824,-2.4879,-2.5173,-2.4677,-2.5008,-2.5046,-0.6504,-0.7138,-0.7595,-0.7076,-0.7279,-0.7571,-0.7445,-0.7394,-0.7448,-0.7675,-0.7661,0.0,0.0,-0.7981,0.0,0.0,0.0,0.0,0.0,0.0,0.0,0.0,0.0,0.0,0.0,0.0,0.0,0.0,0.0,0.0,0.0,0.0,0.0,-1.6342,-1.6565,-1.6485,-1.6046,-1.5927,-1.6206,-1.6822,-1.6551,-1.6558,-1.6815,-1.6536,-1.6411,0.0,0.0,0.0,-1.6925,-1.7201,-1.72,-1.7019,-1.7016,-1.703,-1.7066,-1.7016,-1.7109,-1.7279,-1.7279,-1.72,-1.7066,-1.7239,-1.72,-1.7066,-1.7239,-1.7279,-1.7239,-1.6817,-1.6871,-1.7073,-1.7073,-1.7153,-1.7279,-1.7279,-1.7279,-1.7279,-1.7279,-1.7279,-1.7326,-1.7512,-1.8241,-1.8834,-1.8972,-2.0512,-2.1585,-2.1245,-2.1988,-2.2324,-2.1574,-2.1587,-2.158,-2.1232,-2.1377,-2.1494,-2.1484,-2.1523,-2.1523,-2.1523,-2.1507,-2.1502,-2.154,-2.1693,-2.1845,-2.1997,-2.3254,-2.3731,-2.3361,-2.5347,-2.579,-2.481,-2.5455,-2.5485,-0.6361,-0.7532,-0.8441,-0.7473,-0.7225,-0.722,-0.7374,-0.7394,-0.7376,-0.7317,-0.7457,0.0,0.0,-0.801,-0.8339,0.0,0.0,0.0,0.0,0.0,0.0,0.0,0.0,0.0,0.0,0.0,0.0,0.0,0.0,0.0,0.0,0.0,0.0,-1.8113,-1.717,-1.664,-1.658,-1.6142,-1.6089,-1.6485,-1.6433,-1.6441,-1.6485,-1.6433,-1.6411,0.0,0.0,-1.6903,-1.6925,-1.7201,-1.7279,-1.721,-1.6987,-1.7045,-1.721,-1.6987,-1.7099,-1.7279,-1.7279,-1.7279,-1.7239,-1.7286,-1.7279,-1.7239,-1.7286,-1.7279,-1.7279,-1.7192,-1.7239,-1.7239,-1.7239,-1.7286,-1.7279,-1.7279,-1.7279,-1.7279,-1.7279,-1.7279,-1.7552,-1.8427,-1.8696,-1.9063,-1.9832,-2.0917,-2.1676,-2.1612,-2.2416,-2.2914,-2.2688,-2.2671,-2.2659,-2.2595,-2.2625,-2.2706,-2.2897,-2.2897,-2.2897,-2.2897,-2.2009,-2.1578,-2.1731,-2.1769,-2.2101,-2.2815,-2.3065,-2.3754,-2.4945,-2.5312,-2.5732,-2.6189,-2.6292,-2.6323,-0.6299,-0.69,-0.7584,-0.8122,-0.8726,-0.9126,-0.8993,-0.8963,-0.8753,-0.805,0.0,0.0,0.0,0.0,-0.9964,0.0,0.0,0.0,0.0,0.0,0.0,0.0,0.0,0.0,0.0,0.0,0.0,0.0,0.0,0.0,0.0,0.0,0.0,0.0,-1.8132,-1.7634,-1.6698,-1.6459,-1.6257,-1.6118,-1.5943,-1.595,-1.6118,-1.5943,-1.5862,-1.5877,0.0,-1.6345,-1.6389,-1.6872,-1.7069,-1.7077,-1.7099,-1.7201,-1.7311,-1.7165,-1.7201,-1.7279,-1.7279,-1.7279,-1.7279,-1.7279,-1.7279,-1.7279,-1.7279,-1.7279,-1.7279,-1.7279,-1.7279,-1.7279,-1.7279,-1.7279,-1.7279,-1.7279,-1.7279,-1.7466,-1.7971,-1.8102,-1.8427,-1.9376,-2.0014,-2.0512,-2.0917,-2.1828,-2.2467,-2.2467,-2.2828,-2.2988,-2.2696,-2.2901,-2.2942,-2.2706,-2.29,-2.3113,-2.3194,-2.3184,-2.308,-2.2832,-2.234,-2.195,-2.1818,-2.2214,-2.2628,-2.3001,-2.3838,-2.4587,-2.5312,-2.5734,-2.6129,-2.6499,-2.6499,-2.6499,-0.6299,-0.6481,-0.6951,-0.8477,-0.9494,-1.0133,-1.0328,-1.0211,-0.9853,-0.9029,0.0,0.0,0.0,-0.9238,0.0,0.0,0.0,0.0,0.0,0.0,0.0,0.0,0.0,0.0,0.0,0.0,0.0,0.0,0.0,0.0,0.0,0.0,0.0,0.0,-1.8964,-1.8559,-1.7302,-1.7107,-1.6601,-1.5796,-1.5506,-1.5513,-1.5754,-1.5498,-1.5389,-1.5403,-1.5732,-1.5913,-1.5957,-1.6558,-1.6829,-1.6925,-1.7121,-1.726,-1.7279,-1.7279,-1.7279,-1.7279,-1.7279,-1.7279,-1.7279,-1.7279,-1.7279,-1.7279,-1.7279,-1.7279,-1.7279,-1.7279,-1.7279,-1.7279,-1.7279,-1.7279,-1.7279,-1.7279,-1.7466,-1.7878,-1.8611,-1.8972,-1.9422,-2.0376,-2.115,-2.1784,-2.1971,-2.2599,-2.3091,-2.3091,-2.3091,-2.3018,-2.2824,-2.3125,-2.3259,-2.2999,-2.3299,-2.3576,-2.377,-2.4015,-2.3934,-2.3456,-2.3026,-2.2703,-2.2573,-2.3008,-2.3361,-2.3534,-2.4695,-2.5382,-2.5594,-2.6211,-2.6499,-2.6499,-2.6499,-2.6499,-0.6366,-0.7038,-0.777,-0.8098,-0.7904,-0.816,-1.0136,-0.9949,-0.9487,-0.99,0.0,0.0,0.0,0.0,0.0,0.0,0.0,0.0,0.0,0.0,0.0,0.0,0.0,0.0,0.0,0.0,0.0,0.0,0.0,0.0,0.0,0.0,0.0,0.0,0.0,-1.88,-1.9094,-1.8327,-1.709,-1.5425,-1.5396,-1.5396,-1.5418,-1.5396,-1.5389,-1.5403,-1.5732,-1.5913,-1.5943,-1.6272,-1.6631,-1.6903,-1.6925,-1.7069,-1.7279,-1.7279,-1.7279,-1.7279,-1.7279,-1.7279,-1.7279,-1.7279,-1.7279,-1.7279,-1.7279,-1.7279,-1.7279,-1.7279,-1.7279,-1.7279,-1.7279,-1.7279,-1.7279,-1.7279,-1.8017,-1.8696,-1.8788,-1.9467,-2.0421,-2.1418,-2.165,-2.1971,-2.2872,-2.3047,-2.3091,-2.3091,-2.3091,-2.3256,-2.3671,-2.3747,-2.391,-2.4318,-2.4404,-2.4724,-2.5523,-2.6341,-2.6668,-2.6228,-2.457,-2.3973,-2.4731,-2.4311,-2.4384,-2.5123,-2.5229,-2.5664,-2.6418,-2.6452,-2.6499,-2.6499,-2.6499,-2.6499,-0.618,-0.6772,-0.7454,-0.8023,-0.8057,-0.8538,-1.079,-1.1176,-1.1115,-1.1082,-1.127,0.0,0.0,0.0,0.0,0.0,0.0,0.0,0.0,0.0,0.0,0.0,0.0,0.0,0.0,0.0,0.0,0.0,0.0,0.0,0.0,0.0,0.0,0.0,0.0,-1.8967,-1.8878,-1.8527,-1.7647,-1.6221,-1.6221,-1.5906,-1.5389,-1.5389,-1.5389,-1.5396,-1.5513,-1.5571,-1.5635,-1.5957,-1.6162,-1.6309,-1.6749,-1.7047,-1.7279,-1.7279,-1.7279,-1.7279,-1.7279,-1.7279,-1.7279,-1.7279,-1.7279,-1.7279,-1.7279,-1.7279,-1.7419,-1.8064,-1.8241,-1.8102,-1.7466,-1.7279,-1.7279,-1.7279,-1.8056,-1.8972,-1.9559,-2.0421,-2.1418,-2.2369,-2.2555,-2.2687,-2.3047,-2.3091,-2.3091,-2.3091,-2.3232,-2.3406,-2.359,-2.3851,-2.4315,-2.5052,-2.5715,-2.6257,-2.6565,-2.6894,-2.7273,-2.7739,-2.6299,-2.5324,-2.4998,-2.5233,-2.5337,-2.5312,-2.5769,-2.6211,-2.6499,-2.6499,-2.6499,-2.6499,-2.6499,-2.6499,-0.6296,-0.6589,-0.7074,-0.8065,-0.8232,-0.8773,-1.1154,-1.1792,-1.1992,-1.2347,-1.2431,-1.2445,-1.2344,0.0,0.0,0.0,0.0,0.0,0.0,0.0,0.0,0.0,0.0,0.0,0.0,0.0,0.0,0.0,0.0,0.0,0.0,0.0,0.0,0.0,0.0,0.0,-1.9227,-1.879,-1.8101,-1.7107,-1.6821,-1.6221,-1.5389,-1.5389,-1.5389,-1.5389,-1.5389,-1.5389,-1.5403,-1.5672,-1.5884,-1.6111,-1.669,-1.7277,-1.7785,-1.7785,-1.7971,-1.8195,-1.7878,-1.7963,-1.8102,-1.7505,-1.7512,-1.7785,-1.7785,-1.7785,-1.7963,-1.8964,-1.9239,-1.9055,-1.8373,-1.8241,-1.8241,-1.8241,-1.8964,-1.9877,-2.0512,-2.1463,-2.2325,-2.296,-2.3091,-2.3091,-2.3091,-2.3091,-2.3144,-2.3232,-2.3363,-2.3547,-2.3721,-2.398,-2.4572,-2.5495,-2.6771,-2.7557,-2.7557,-2.781,-2.8223,-2.887,-2.8047,-2.7138,-2.6287,-2.6541,-2.6468,-2.5932,-2.6459,-2.6663,-2.6499,-2.6499,-2.6499,-2.6499,-2.6499,-2.6499,-0.6747,-0.6611,-0.6843,-0.8235,-0.8215,-0.8518,-1.1095,-1.1437,-1.1736,-1.3607,-1.347,-1.3394,-1.4577,0.0,0.0,0.0,0.0,0.0,0.0,0.0,0.0,0.0,0.0,0.0,0.0,0.0,0.0,0.0,0.0,0.0,0.0,0.0,0.0,0.0,0.0,0.0,-2.0576,-1.9237,-1.8374,-1.7948,-1.7107,-1.6221,-1.5389,-1.5389,-1.5389,-1.5389,-1.5389,-1.5389,-1.5431,-1.5431,-1.5839,-1.6441,-1.6808,-1.7675,-1.8834,-1.8788,-1.9422,-2.0051,-1.9155,-1.9422,-1.9869,-1.7963,-1.801,-1.8788,-1.8788,-1.8788,-1.9018,-1.9968,-2.0232,-2.0232,-2.0232,-2.0232,-2.0232,-2.0187,-2.0962,-2.1695,-2.1695,-2.2457,-2.3091,-2.3091,-2.3091,-2.3091,-2.3091,-2.3091,-2.3188,-2.346,-2.3503,-2.3677,-2.4163,-2.4249,-2.4658,-2.5704,-2.7435,-2.8502,-2.8502,-2.9287,-2.9792,-2.9792,-2.9792,-2.9528,-2.8913,-2.8398,-2.7858,-2.7341,-2.7329,-2.7052,-2.6499,-2.6499,-2.6499,-2.6499,-2.6499,-2.6499,-0.5777,-0.6713,-0.7766,-0.7753,0.0,0.0,-1.1417,-1.1799,-1.2381,0.0,-1.4638,-1.4885,-1.4812,0.0,0.0,0.0,0.0,0.0,0.0,0.0,0.0,0.0,0.0,0.0,0.0,0.0,0.0,0.0,0.0,0.0,0.0,0.0,0.0,0.0,0.0,0.0,-1.8396,-1.7734,-1.7188,-1.6724,-1.6701,-1.6221,-1.5389,-1.5389,-1.5389,-1.5389,-1.5389,-1.5748,-1.6345,-1.6992,-1.7466,-1.7924,-1.8284,-1.882,-1.939,-1.9694,-1.996,-2.0141,-1.9869,-1.9968,-2.0096,-1.955,-1.955,-1.9786,-1.9786,-1.9786,-2.0014,-2.0962,-2.1239,-2.1418,-2.205,-2.2236,-2.1908,-2.0548,-2.0962,-2.1695,-2.1695,-2.2457,-2.3091,-2.3091,-2.3091,-2.3091,-2.3091,-2.3091,-2.3144,-2.3188,-2.4016,-2.502,-2.608,-2.6823,-2.7354,-2.7678,-2.8712,-2.9417,-2.9417,-2.9663,-2.9792,-2.9792,-2.9792,-2.9528,-2.8913,-2.8737,-2.8423,-2.7871,-2.7858,-2.7595,-2.7065,-2.7065,-2.6876,-2.6499,-2.6499,-2.6499,-0.6534,-0.7568,-0.8718,-0.908,-1.0107,-1.126,-1.2213,0.0,0.0,0.0,0.0,-1.6039,0.0,0.0,0.0,0.0,0.0,0.0,0.0,0.0,0.0,0.0,0.0,0.0,0.0,0.0,0.0,0.0,0.0,0.0,0.0,0.0,0.0,0.0,0.0,0.0,-1.7305,-1.6573,-1.6188,-1.6214,-1.6034,-1.5778,-1.5389,-1.5389,-1.5389,-1.5431,-1.5782,-1.6427,-1.7269,-1.7796,-1.8179,-1.8505,-1.8768,-1.9393,-2.0246,-2.0474,-2.0873,-2.132,-2.0917,-2.1051,-2.123,-2.0458,-2.0458,-2.0782,-2.0782,-2.0782,-2.1006,-2.1961,-2.228,-2.2378,-2.296,-2.3091,-2.2818,-2.1641,-2.1828,-2.228,-2.228,-2.2687,-2.3091,-2.3091,-2.3091,-2.3091,-2.3091,-2.3396,-2.3734,-2.3887,-2.5052,-2.6182,-2.6987,-2.7919,-2.8502,-2.8502,-2.9287,-2.9792,-2.9792,-2.9792,-2.9792,-2.9792,-2.9792,-2.9641,-2.9289,-2.9277,-2.9001,-2.8448,-2.8436,-2.816,-2.7607,-2.7607,-2.7318,-2.6826,-2.6826,-2.67,-0.8169,-0.878,-0.9646,-1.1405,-1.1761,0.0,-1.3259,-1.4072,-1.4928,-1.6267,0.0,0.0,0.0,0.0,0.0,0.0,0.0,0.0,0.0,0.0,0.0,0.0,0.0,0.0,0.0,0.0,0.0,0.0,0.0,0.0,0.0,0.0,0.0,0.0,0.0,0.0,-1.6785,-1.5637,-1.5385,0.0,-1.5303,-1.5104,-1.5389,-1.5389,-1.5431,-1.559,-1.6419,-1.731,-1.8118,-1.8198,-1.8406,-1.8685,-1.8719,-1.9736,-2.1192,-2.1219,-2.2019,-2.296,-2.2104,-2.2378,-2.2818,-2.1051,-2.1096,-2.1828,-2.1828,-2.1828,-2.2015,-2.2872,-2.3091,-2.3091,-2.3091,-2.3091,-2.3091,-2.3091,-2.3091,-2.3091,-2.3091,-2.3091,-2.3135,-2.3222,-2.3222,-2.3266,-2.3353,-2.4069,-2.4819,-2.5294,-2.6419,-2.7232,-2.7313,-2.8091,-2.8633,-2.8633,-2.9339,-2.9792,-2.9792,-2.9792,-2.9792,-2.9792,-2.9792,-2.9792,-2.9792,-2.9792,-2.9541,-2.8976,-2.8963,-2.87,-2.8185,-2.8185,-2.7896,-2.7356,-2.7356,-2.7102,-0.7334,-0.8736,0.0,-1.1263,-1.2291,-1.3194,-1.377,-1.4456,-1.5067,-1.536,0.0,0.0,0.0,0.0,0.0,0.0,0.0,0.0,0.0,0.0,0.0,0.0,0.0,0.0,0.0,0.0,0.0,0.0,0.0,0.0,0.0,0.0,0.0,0.0,0.0,-1.5672,-1.5114,-1.4797,-1.4693,0.0,-1.5161,-1.5316,-1.5389,-1.5389,-1.5782,-1.646,-1.735,-1.8198,-1.9054,-1.9766,-2.0097,-2.0172,-2.0514,-2.1084,-2.1758,-2.2086,-2.2601,-2.3047,-2.2872,-2.2916,-2.3047,-2.2599,-2.2643,-2.2775,-2.2775,-2.2775,-2.2828,-2.3047,-2.3091,-2.3091,-2.3091,-2.3091,-2.3091,-2.3091,-2.3091,-2.3091,-2.3091,-2.3091,-2.3309,-2.4079,-2.4198,-2.4402,-2.5115,-2.5515,-2.616,-2.7267,-2.7683,-2.8187,-2.9079,-2.9417,-2.9534,-2.9534,-2.9675,-2.9792,-2.9792,-2.9792,-2.9792,-2.9792,-2.9792,-2.9792,-2.9792,-2.9792,-2.9729,-2.9616,-2.9603,-2.9327,-2.8712,-2.8712,-2.8461,-2.7921,-2.7921,-2.7632,-0.7675,-0.9126,0.0,-1.2073,0.0,-1.3543,-1.3711,-1.4066,-1.4419,-1.4778,0.0,0.0,0.0,0.0,0.0,0.0,0.0,0.0,0.0,0.0,0.0,0.0,0.0,0.0,0.0,0.0,0.0,0.0,0.0,0.0,0.0,0.0,0.0,0.0,-1.5215,-1.4824,-1.4086,-1.4208,-1.435,-1.4511,-1.4962,-1.5236,-1.5389,-1.5389,-1.6105,-1.735,-1.7796,-1.8718,-1.9971,-2.0401,-2.0605,-2.0625,-2.082,-2.1309,-2.1914,-2.2129,-2.248,-2.2818,-2.3023,-2.2964,-2.2828,-2.3033,-2.3091,-2.3091,-2.3091,-2.3091,-2.3091,-2.3091,-2.3091,-2.3091,-2.3091,-2.344,-2.3777,-2.3777,-2.344,-2.3091,-2.3091,-2.343,-2.3907,-2.4413,-2.4829,-2.5284,-2.585,-2.6573,-2.7429,-2.8545,-2.8846,-2.9145,-2.9702,-2.9792,-2.9792,-2.9792,-2.9792,-2.9792,-2.9792,-2.9792,-2.9792,-2.9792,-2.9792,-2.9792,-2.9792,-2.9792,-2.9792,-2.9792,-2.9792,-2.9641,-2.934,-2.934,-2.9051,-2.8461,-2.8461,-2.821,-0.8047,-0.9448,-1.0975,-1.293,-1.3455,0.0,-1.3492,-1.3557,-1.3793,0.0,0.0,0.0,0.0,0.0,0.0,0.0,0.0,0.0,0.0,0.0,0.0,0.0,0.0,0.0,0.0,0.0,0.0,0.0,0.0,0.0,0.0,0.0,-1.4322,-1.3702,-1.4294,-1.4258,-1.3499,-1.3821,-1.4152,-1.443,-1.4706,-1.5017,-1.5382,-1.5489,-1.6454,-1.7997,-1.8158,-1.9125,-2.0605,-2.0605,-2.0605,-2.0605,-2.0605,-2.1143,-2.1885,-2.1885,-2.2197,-2.2676,-2.2974,-2.2867,-2.2676,-2.2984,-2.3091,-2.3091,-2.3091,-2.3091,-2.3091,-2.3091,-2.3222,-2.3343,-2.3343,-2.4026,-2.4701,-2.4701,-2.4112,-2.356,-2.356,-2.4198,-2.4787,-2.4988,-2.5735,-2.6431,-2.6614,-2.7591,-2.8585,-2.9341,-2.965,-2.9792,-2.9792,-2.9792,-2.9792,-2.9792,-2.9792,-2.9792,-2.9792,-2.9792,-2.9792,-2.9792,-2.9792,-2.9792,-2.9792,-2.9792,-2.9792,-2.9792,-2.9792,-2.9792,-2.9792,-2.9792,-2.9541,-2.9076,-2.9076,-2.8775,-0.688,0.0,-1.1203,0.0,-1.3287,-1.3492,0.0,0.0,0.0,0.0,0.0,0.0,0.0,0.0,0.0,0.0,0.0,0.0,0.0,0.0,0.0,0.0,0.0,0.0,0.0,0.0,0.0,0.0,0.0,0.0,0.0,-1.4637,-1.4565,-1.4466,-1.4537,-1.4258,-1.3499,-1.3821,-1.4004,-1.4048,-1.4416,-1.4845,-1.5416,-1.5873,-1.6805,-1.8037,-1.8807,-1.9687,-2.0605,-2.0605,-2.0605,-2.0605,-2.0605,-2.1143,-2.1885,-2.1885,-2.2383,-2.3023,-2.3081,-2.3062,-2.3023,-2.3081,-2.3091,-2.3091,-2.3091,-2.3091,-2.3091,-2.3091,-2.3691,-2.4327,-2.4327,-2.4946,-2.5621,-2.5621,-2.5526,-2.5442,-2.5442,-2.5537,-2.5902,-2.6894,-2.7931,-2.8712,-2.8924,-2.9121,-2.9341,-2.9702,-2.9792,-2.9792,-2.9792,-2.9792,-2.9792,-2.9792,-2.9792,-2.9792,-2.9792,-2.9792,-2.9792,-2.9792,-2.9792,-2.9792,-2.9792,-2.9792,-2.9792,-2.9792,-2.9792,-2.9792,-2.9792,-2.9792,-2.9754,-2.9679,-2.9679,-2.9365,-0.7416,-0.9071,-1.0797,0.0,-1.3119,-1.3272,-1.3455,0.0,0.0,0.0,0.0,0.0,0.0,0.0,0.0,0.0,0.0,0.0,0.0,0.0,0.0,0.0,0.0,0.0,0.0,0.0,0.0,0.0,0.0,0.0,-1.5207,-1.4816,-1.4394,-1.4013,-1.4394,-1.4258,-1.3499,-1.3821,-1.4165,-1.4523,-1.4662,-1.4977,-1.5423,-1.6669,-1.7515,-1.8037,-1.8935,-1.9775,-2.0605,-2.0605,-2.0605,-2.0605,-2.0605,-2.0957,-2.1523,-2.1523,-2.1707,-2.2097,-2.2574,-2.2637,-2.251,-2.2945,-2.3091,-2.3091,-2.3091,-2.3091,-2.3222,-2.3734,-2.4198,-2.4616,-2.5115,-2.5913,-2.6588,-2.6588,-2.6958,-2.7325,-2.7476,-2.7098,-2.7098,-2.8171,-2.887,-2.9314,-2.938,-2.9509,-2.965,-2.9792,-2.9792,-2.9792,-2.9792,-2.9792,-2.9792,-2.9792,-2.9792,-2.9792,-2.9792,-2.9792,-2.9792,-2.9792,-2.9792,-2.9792,-2.9792,-2.9792,-2.9792,-2.9792,-2.9792,-2.9792,-2.9792,-2.9792,-2.9792,-2.9792,-2.9792,-2.9654,0.0,0.0,-0.9643,-1.1725,-1.2475,-1.2813,0.0,0.0,0.0,0.0,0.0,0.0,0.0,0.0,0.0,0.0,0.0,0.0,0.0,0.0,0.0,0.0,0.0,0.0,0.0,0.0,0.0,0.0,0.0,0.0,-1.5428,-1.5065,-1.4537,-1.3811,-1.4294,-1.4322,-1.3768,-1.3844,-1.4143,-1.4659,-1.4659,-1.4992,-1.5655,-1.7178,-1.8023,-1.8359,-1.9253,-2.001,-2.0605,-2.0605,-2.0605,-2.0605,-2.0605,-2.084,-2.119,-2.119,-2.1268,-2.1453,-2.2129,-2.2217,-2.2148,-2.273,-2.3013,-2.3091,-2.3091,-2.3266,-2.3604,-2.4284,-2.4829,-2.5337,-2.5997,-2.6835,-2.751,-2.751,-2.8047,-2.8618,-2.8764,-2.8383,-2.8199,-2.904,-2.9353,-2.9509,-2.9509,-2.9663,-2.9792,-2.9792,-2.9792,-2.9792,-2.9792,-2.9792,-2.9792,-2.9792,-2.9792,-2.9792,-2.9792,-2.9792,-2.9792,-2.9792,-2.9792,-2.9792,-2.9792,-2.9792,-2.9792,-2.9792,-2.9792,-2.9792,-2.9792,-2.9792,-2.9792,-2.9792,-2.9792,-2.9792,0.0,-0.62,0.0,-0.9596,-1.1067,0.0,0.0,0.0,0.0,0.0,0.0,0.0,0.0,0.0,0.0,0.0,0.0,0.0,0.0,0.0,0.0,0.0,0.0,0.0,0.0,0.0,0.0,0.0,0.0,0.0,-1.4744,-1.5278,-1.5313,-1.4573,-1.4565,-1.4565,-1.453,-1.3863,-1.3697,-1.4071,-1.4071,-1.4804,-1.6198,-1.7106,-1.8136,-1.9262,-2.0167,-2.0566,-2.0605,-2.0605,-2.0605,-2.0605,-2.0605,-2.084,-2.119,-2.119,-2.1494,-2.1855,-2.1904,-2.2168,-2.249,-2.2529,-2.2769,-2.3091,-2.3091,-2.3734,-2.4456,-2.4498,-2.5757,-2.7062,-2.7133,-2.7765,-2.8431,-2.8431,-2.8618,-2.8803,-2.8791,-2.9067,-2.9341,-2.938,-2.9599,-2.9792,-2.9792,-2.9792,-2.9792,-2.9792,-2.9792,-2.9792,-2.9792,-2.9792,-2.9792,-2.9792,-2.9792,-2.9792,-2.9792,-2.9792,-2.9792,-2.9792,-2.9792,-2.9792,-2.9792,-2.9792,-2.9792,-2.9792,-2.9792,-2.9792,-2.9792,-2.9792,-2.9792,-2.9792,-2.9792,-2.9792,0.0,0.0,0.0,-0.8951,-1.011,-1.088,0.0,0.0,0.0,0.0,0.0,0.0,0.0,0.0,0.0,0.0,0.0,0.0,0.0,0.0,0.0,0.0,0.0,0.0,0.0,0.0,0.0,0.0,0.0,0.0,-1.6088,-1.5384,-1.51,-1.5313,-1.4851,-1.4358,-1.3912,-1.3637,-1.3903,-1.4703,-1.4949,-1.576,-1.7019,-1.8123,-1.8879,-1.9341,-2.0206,-2.0605,-2.0605,-2.0605,-2.0605,-2.0605,-2.0605,-2.0703,-2.0801,-2.0801,-2.0908,-2.1124,-2.1367,-2.1748,-2.2158,-2.2432,-2.275,-2.3091,-2.3091,-2.3353,-2.3854,-2.4988,-2.5788,-2.6588,-2.7713,-2.8259,-2.855,-2.8657,-2.8855,-2.904,-2.9145,-2.9302,-2.9457,-2.9611,-2.974,-2.9792,-2.9792,-2.9792,-2.9792,-2.9792,-2.9792,-2.9792,-2.9792,-2.9792,-2.9792,-2.9792,-2.9792,-2.9792,-2.9792,-2.9792,-2.9792,-2.9792,-2.9792,-2.9792,-2.9792,-2.9792,-2.9792,-2.9792,-2.9792,-2.9792,-2.9792,-2.9792,-2.9792,-2.9792,-2.9792,-2.9792,-0.4863,0.0,0.0,0.0,0.0,-0.9466,0.0,0.0,0.0,0.0,0.0,0.0,0.0,0.0,0.0,0.0,0.0,0.0,0.0,0.0,0.0,0.0,0.0,0.0,0.0,0.0,0.0,0.0,0.0,0.0,-1.6862,-1.5948,-1.5455,-1.571,-1.549,-1.4994,-1.4238,-1.4238,-1.4592,-1.5324,-1.5842,-1.6652,-1.7702,-1.8819,-1.946,-1.9775,-2.0372,-2.0605,-2.0605,-2.0605,-2.0605,-2.0605,-2.0605,-2.0605,-2.0605,-2.0605,-2.0605,-2.0644,-2.0908,-2.1396,-2.1934,-2.2207,-2.2643,-2.3178,-2.3474,-2.3767,-2.4317,-2.583,-2.6494,-2.6999,-2.8287,-2.8618,-2.8657,-2.8843,-2.9,-2.917,-2.9341,-2.9419,-2.947,-2.9753,-2.9792,-2.9792,-2.9792,-2.9792,-2.9792,-2.9792,-2.9792,-2.9792,-2.9792,-2.9792,-2.9792,-2.9792,-3.0037,-3.0075,-2.983,-3.0037,-3.0062,-2.983,-2.9792,-2.9792,-2.9792,-2.9792,-2.9792,-2.9792,-2.9792,-2.9792,-2.9792,-2.9792,-2.9792,-2.9792,-2.9792,-2.9792,0.0,0.0,0.0,0.0,0.0,0.0,0.0,0.0,0.0,0.0,0.0,0.0,0.0,0.0,0.0,0.0,0.0,0.0,0.0,0.0,0.0,0.0,0.0,0.0,0.0,0.0,0.0,0.0,0.0,-1.7647,-1.6975,-1.6941,-1.655,-1.5745,-1.6481,-1.6515,-1.571,-1.571,-1.5719,-1.5771,-1.6561,-1.742,-1.8258,-1.9022,-1.9814,-2.0605,-2.0605,-2.0605,-2.0605,-2.0605,-2.0605,-2.0605,-2.0605,-2.0605,-2.0605,-2.0605,-2.0605,-2.0605,-2.0605,-2.1182,-2.1865,-2.1865,-2.2432,-2.3246,-2.4178,-2.5062,-2.5955,-2.6928,-2.7805,-2.851,-2.8724,-2.8791,-2.8843,-2.9052,-2.9091,-2.917,-2.938,-2.9419,-2.947,-2.9753,-2.9792,-2.9792,-2.9792,-2.9792,-2.9792,-2.983,-2.983,-2.983,-2.9856,-2.9869,-2.9869,-2.9869,-3.052,-3.0658,-2.9934,-3.052,-3.062,-2.9895,-2.983,-2.983,-2.9792,-2.9792,-2.9792,-2.9792,-2.9792,-2.9792,-2.9792,-2.9792,-2.9792,-2.9792,-2.9792,-2.9792,-0.4063,0.0,0.0,0.0,0.0,0.0,0.0,0.0,0.0,0.0,0.0,0.0,0.0,0.0,0.0,0.0,0.0,0.0,0.0,0.0,0.0,0.0,0.0,0.0,0.0,0.0,0.0,0.0,-1.751,-1.7364,-1.7691,-1.7691,-1.7079,-1.5745,-1.6481,-1.6515,-1.571,-1.571,-1.6139,-1.7,-1.755,-1.8397,-1.9456,-2.0005,-2.0362,-2.0605,-2.0605,-2.0605,-2.0605,-2.0605,-2.0605,-2.0605,-2.0605,-2.0605,-2.0605,-2.0605,-2.0605,-2.0605,-2.0605,-2.0937,-2.1375,-2.1375,-2.1992,-2.2847,-2.3708,-2.4398,-2.521,-2.6764,-2.7389,-2.7725,-2.8407,-2.8685,-2.8843,-2.9052,-2.9091,-2.9209,-2.9611,-2.956,-2.947,-2.9753,-2.9792,-2.9792,-2.9792,-2.9792,-2.996,-3.052,-3.0582,-3.0809,-3.1392,-3.1479,-3.1479,-3.1479,-3.1649,-3.1673,-3.1479,-3.1636,-3.1415,-3.0658,-3.0582,-3.0343,-2.983,-2.9792,-2.9792,-2.9792,-2.9792,-2.9792,-2.9792,-2.9792,-2.9792,-2.9792,-2.9792,-2.9792,0.0,0.0,0.0,0.0,0.0,0.0,0.0,-0.8136,0.0,0.0,0.0,0.0,0.0,0.0,0.0,0.0,0.0,0.0,0.0,0.0,0.0,0.0,0.0,0.0,0.0,0.0,0.0,0.0,-1.7613,-1.7398,-1.7545,-1.7992,-1.7697,-1.6484,-1.7391,-1.7577,-1.6908,-1.7107,-1.7448,-1.7969,-1.859,-1.9267,-1.9932,-2.04,-2.0605,-2.0605,-2.0605,-2.0605,-2.0605,-2.0605,-2.0605,-2.0605,-2.0605,-2.0605,-2.0605,-2.0605,-2.0605,-2.0605,-2.0605,-2.0859,-2.119,-2.119,-2.1775,-2.2755,-2.4012,-2.4713,-2.5411,-2.7214,-2.7794,-2.7995,-2.8486,-2.8776,-2.8961,-2.9052,-2.917,-2.9314,-2.9573,-2.9599,-2.9599,-2.9753,-2.9792,-2.9792,-2.9792,-2.9792,-3.0037,-3.0796,-3.0895,-3.118,-3.2001,-3.211,-3.211,-3.211,-3.2362,-3.2434,-3.211,-3.2362,-3.2218,-3.1439,-3.1415,-3.1057,-3.0279,-3.0279,-3.0101,-2.9792,-2.9792,-2.9792,-2.9792,-2.9792,-2.9792,-2.9792,-2.9792,-2.9792,0.0,0.0,0.0,0.0,0.0,0.0,-0.7075,-0.7821,-0.8644,0.0,0.0,0.0,0.0,0.0,0.0,0.0,0.0,0.0,0.0,0.0,0.0,0.0,0.0,0.0,0.0,0.0,-1.7872,-1.7872,-1.794,-1.7725,-1.7044,-1.804,-1.8315,-1.7639,-1.8692,-1.9102,-1.8676,-1.9092,-1.9111,-1.8754,-1.9514,-1.9941,-2.0,-2.0429,-2.0605,-2.0605,-2.0605,-2.0605,-2.0605,-2.0605,-2.0605,-2.0605,-2.0605,-2.0605,-2.0605,-2.0605,-2.0605,-2.0605,-2.0605,-2.083,-2.1132,-2.1181,-2.1818,-2.2896,-2.4661,-2.553,-2.6329,-2.8007,-2.8618,-2.8764,-2.8764,-2.8922,-2.9052,-2.9091,-2.9236,-2.9419,-2.9419,-2.965,-2.9792,-2.9792,-2.9792,-2.9792,-2.9792,-2.9792,-3.0037,-3.0796,-3.097,-3.1328,-3.211,-3.2304,-3.2376,-3.2376,-3.2946,-3.3087,-3.2412,-3.2981,-3.3017,-3.2254,-3.2218,-3.1819,-3.0932,-3.0895,-3.0545,-2.983,-2.9792,-2.9792,-2.9792,-2.9792,-2.9792,-2.9792,-2.9792,-2.9792,0.0,0.0,0.0,0.0,0.0,0.0,-0.5232,-0.5656,-0.6291,0.0,0.0,0.0,0.0,0.0,0.0,0.0,0.0,0.0,0.0,0.0,0.0,0.0,0.0,0.0,0.0,0.0,-1.7113,-1.7113,-1.7647,-1.794,-1.7794,-1.8294,-1.8527,-1.8386,-1.899,-1.9248,-1.916,-1.9248,-1.9414,-1.9668,-1.9834,-2.0098,-2.0478,-2.0566,-2.0605,-2.0605,-2.0605,-2.0605,-2.0605,-2.0605,-2.0605,-2.0605,-2.0605,-2.0605,-2.0605,-2.0605,-2.0605,-2.0605,-2.0605,-2.0664,-2.0752,-2.1073,-2.2049,-2.335,-2.4767,-2.6002,-2.7133,-2.8219,-2.855,-2.8538,-2.8538,-2.8697,-2.8882,-2.9052,-2.9236,-2.947,-2.9702,-2.9753,-2.9792,-2.9792,-2.9792,-2.9792,-2.9792,-2.9792,-3.0037,-3.0796,-3.1439,-3.2146,-3.2897,-3.3569,-3.3942,-3.3942,-3.4079,-3.4113,-3.3977,-3.4079,-3.3825,-3.3052,-3.3003,-3.2349,-3.0957,-3.0895,-3.0545,-2.983,-2.9792,-2.9792,-2.9792,-2.9792,-2.9792,-2.9792,-2.9792,-2.9792,0.0,0.0,0.0,-0.4454,0.0,0.0,0.0,-0.5571,-0.6043,0.0,0.0,0.0,0.0,0.0,0.0,0.0,0.0,0.0,0.0,0.0,0.0,0.0,0.0,0.0,0.0,0.0,-1.7044,-1.7432,-1.7794,-1.8008,-1.8008,-1.8613,-1.8965,-1.8965,-1.959,-1.9862,-1.96,-1.9814,-1.9922,-1.9912,-2.0137,-2.0352,-2.0605,-2.0605,-2.0605,-2.0605,-2.0605,-2.0605,-2.0605,-2.0605,-2.0605,-2.0605,-2.0605,-2.0605,-2.0605,-2.0605,-2.0605,-2.0635,-2.082,-2.1204,-2.1666,-2.207,-2.3111,-2.4411,-2.5487,-2.6772,-2.7926,-2.8391,-2.8578,-2.8657,-2.8657,-2.8882,-2.9106,-2.9236,-2.9443,-2.965,-2.9792,-2.9792,-2.9792,-2.9792,-2.9792,-2.9792,-2.9792,-2.9792,-3.0037,-3.0796,-3.123,-3.1915,-3.3038,-3.3555,-3.3962,-3.4346,-3.4414,-3.4414,-3.4414,-3.4414,-3.423,-3.3811,-3.3811,-3.3122,-3.1563,-3.1489,-3.0959,-2.983,-2.9792,-2.9792,-2.9792,-2.9792,-2.9792,-2.9792,-2.9792,-2.9792,0.0,0.0,0.0,0.0,0.0,-0.496,0.0,0.0,0.0,0.0,0.0,0.0,0.0,0.0,0.0,0.0,0.0,0.0,0.0,0.0,0.0,0.0,0.0,0.0,0.0,0.0,-1.6629,-1.7716,-1.7605,-1.7654,-1.7964,-1.8828,-1.9287,-1.9287,-2.0155,-2.0429,-2.0049,-2.0429,-2.0429,-2.0049,-2.0439,-2.0605,-2.0605,-2.0605,-2.0605,-2.0605,-2.0605,-2.0605,-2.0605,-2.0605,-2.0605,-2.0605,-2.0605,-2.0605,-2.0615,-2.0703,-2.085,-2.1026,-2.1431,-2.2169,-2.3032,-2.3444,-2.4506,-2.575,-2.6605,-2.7624,-2.851,-2.851,-2.8657,-2.8791,-2.8791,-2.9067,-2.9341,-2.938,-2.956,-2.974,-2.9792,-2.9792,-2.9792,-2.9792,-2.9792,-2.9792,-2.9792,-2.9792,-2.9998,-3.0582,-3.082,-3.1365,-3.2599,-3.3003,-3.3451,-3.4113,-3.4298,-3.4414,-3.4414,-3.4414,-3.4414,-3.4414,-3.4414,-3.3756,-3.2362,-3.2037,-3.1281,-3.0037,-2.9998,-3.0075,-3.0228,-3.0228,-3.0075,-2.9792,-2.9792,-2.9792,0.0,0.0,0.0,0.0,-0.5233,0.0,0.0,0.0,0.0,0.0,0.0,0.0,0.0,0.0,0.0,0.0,0.0,0.0,0.0,0.0,0.0,0.0,0.0,0.0,0.0,0.0,0.0,-1.6851,-1.6259,-1.644,-1.7935,-1.8828,-1.9287,-1.9287,-2.0155,-2.0576,-2.0537,-2.0576,-2.0576,-2.0537,-2.0576,-2.0605,-2.0605,-2.0605,-2.0605,-2.0605,-2.0605,-2.0605,-2.0605,-2.0605,-2.0605,-2.0605,-2.0605,-2.0605,-2.0654,-2.1016,-2.167,-2.242,-2.2835,-2.353,-2.436,-2.481,-2.5861,-2.7134,-2.8004,-2.8383,-2.851,-2.851,-2.8657,-2.8791,-2.8791,-2.8961,-2.9157,-2.9341,-2.9419,-2.9509,-2.9753,-2.9792,-2.9792,-2.9792,-2.9792,-2.9792,-2.9792,-2.9792,-2.983,-2.9895,-3.0482,-3.0957,-3.1143,-3.2349,-3.3227,-3.3332,-3.3962,-3.4414,-3.4414,-3.4414,-3.4414,-3.4414,-3.4414,-3.4011,-3.3108,-3.1769,-3.097,-3.0796,-3.0796,-3.1119,-3.1833,-3.1833,-3.1158,-2.9792,-2.9792,-2.9792,0.0,0.0,0.0,0.0,0.0,0.0,0.0,0.0,-0.4522,0.0,0.0,0.0,0.0,0.0,0.0,0.0,0.0,0.0,0.0,0.0,0.0,0.0,0.0,0.0,0.0,0.0,0.0,0.0,0.0,-1.6341,-1.8241,-1.8955,-1.9404,-1.9639,-2.0282,-2.0605,-2.0605,-2.0605,-2.0605,-2.0605,-2.0605,-2.0605,-2.0605,-2.0605,-2.0605,-2.0605,-2.0605,-2.0605,-2.0625,-2.084,-2.0957,-2.0977,-2.123,-2.1172,-2.1006,-2.1455,-2.1856,-2.2312,-2.3217,-2.4128,-2.5143,-2.6611,-2.7497,-2.8007,-2.8391,-2.851,-2.851,-2.851,-2.8657,-2.8791,-2.8791,-2.8961,-2.917,-2.9341,-2.9419,-2.947,-2.974,-2.9792,-2.9792,-2.9792,-2.9792,-2.9792,-2.9792,-2.9792,-2.9792,-2.9792,-3.0062,-3.0595,-3.1489,-3.2182,-3.2911,-3.3811,-3.4196,-3.4414,-3.4414,-3.4414,-3.4414,-3.4414,-3.3962,-3.3555,-3.3213,-3.2182,-3.1599,-3.1599,-3.1599,-3.1746,-3.211,-3.211,-3.1759,-3.1121,-3.1121,-3.0884,-0.8272,0.0,0.0,0.0,0.0,0.0,0.0,0.0,0.0,0.0,0.0,0.0,0.0,0.0,0.0,0.0,0.0,0.0,0.0,0.0,0.0,0.0,0.0,0.0,0.0,0.0,0.0,0.0,-1.5283,-1.5826,-1.8475,-1.9053,-1.9482,-1.9902,-2.038,-2.0605,-2.0605,-2.0605,-2.0605,-2.0605,-2.0605,-2.0605,-2.0605,-2.0605,-2.0674,-2.0752,-2.0752,-2.086,-2.0997,-2.1279,-2.1375,-2.1455,-2.1885,-2.1865,-2.158,-2.1943,-2.2217,-2.2557,-2.3638,-2.4782,-2.6035,-2.7888,-2.851,-2.851,-2.851,-2.851,-2.851,-2.851,-2.8657,-2.8791,-2.8791,-2.8961,-2.917,-2.9341,-2.9419,-2.947,-2.974,-2.9792,-2.9792,-2.9792,-2.9792,-2.9792,-2.9792,-2.9792,-2.9792,-2.9792,-2.996,-3.0495,-3.1649,-3.2146,-3.284,-3.3928,-3.4264,-3.4414,-3.4414,-3.4414,-3.4414,-3.4414,-3.3845,-3.3437,-3.3213,-3.2684,-3.2398,-3.2398,-3.2398,-3.2506,-3.2733,-3.2733,-3.2733,-3.2698,-3.2074,-3.1452,0.0,0.0,0.0,-0.6332,0.0,0.0,0.0,0.0,-0.4254,0.0,0.0,0.0,0.0,0.0,0.0,0.0,0.0,0.0,0.0,0.0,0.0,0.0,0.0,0.0,0.0,0.0,0.0,-1.4203,-1.3361,-1.4435,-1.8391,-1.9053,-1.9482,-1.9902,-2.038,-2.0605,-2.0605,-2.0605,-2.0605,-2.0605,-2.0605,-2.0605,-2.0605,-2.0605,-2.0801,-2.1171,-2.1171,-2.1455,-2.1846,-2.1855,-2.1865,-2.1904,-2.2324,-2.248,-2.2471,-2.249,-2.302,-2.3815,-2.4312,-2.5652,-2.7284,-2.8207,-2.851,-2.851,-2.851,-2.851,-2.851,-2.851,-2.8657,-2.8791,-2.8791,-2.8961,-2.917,-2.9341,-2.9419,-2.947,-2.974,-2.9792,-2.9792,-2.9792,-2.9792,-2.9792,-2.9792,-2.9792,-2.9792,-2.9792,-3.0419,-3.0895,-3.0932,-3.2241,-3.3178,-3.3213,-3.3928,-3.4414,-3.4414,-3.4414,-3.4414,-3.4414,-3.438,-3.4011,-3.3213,-3.3178,-3.3143,-3.3143,-3.3143,-3.3555,-3.4346,-3.4346,-3.4346,-3.4264,-3.1988,-3.0932,0.0,0.0,-1.1175,-0.8975,0.0,0.0,0.0,0.0,0.0,0.0,0.0,0.0,0.0,0.0,0.0,0.0,0.0,0.0,0.0,0.0,0.0,0.0,0.0,0.0,0.0,0.0,0.0,-1.3914,-1.3929,-1.534,0.0,-1.9209,-1.9609,-2.0322,-2.0527,-2.0605,-2.0605,-2.0605,-2.0605,-2.0605,-2.0605,-2.0605,-2.0615,-2.0869,-2.1094,-2.121,-2.1543,-2.1748,-2.1904,-2.2187,-2.2305,-2.2386,-2.3428,-2.3803,-2.3803,-2.3803,-2.4016,-2.445,-2.5828,-2.7051,-2.8099,-2.8391,-2.851,-2.851,-2.851,-2.851,-2.851,-2.851,-2.855,-2.8618,-2.8764,-2.8843,-2.9,-2.9302,-2.9419,-2.947,-2.974,-2.9792,-2.9792,-2.9792,-2.9792,-2.9792,-2.9792,-2.9792,-2.9792,-2.9792,-3.0419,-3.1068,-3.1636,-3.2577,-3.3402,-3.3928,-3.423,-3.4414,-3.4414,-3.4414,-3.4414,-3.4414,-3.4414,-3.4264,-3.4011,-3.3997,-3.3997,-3.3997,-3.3997,-3.4113,-3.4414,-3.4414,-3.4414,-3.438,-3.3052,-3.242,-1.2375,-1.2626,0.0,-1.0621,-1.015,0.0,-0.711,0.0,0.0,0.0,0.0,0.0,0.0,0.0,0.0,0.0,0.0,0.0,0.0,0.0,0.0,0.0,0.0,0.0,0.0,0.0,-1.0172,-1.2836,-1.3403,-1.4959,0.0,0.0,-1.9678,-2.0576,-2.0605,-2.0605,-2.0605,-2.0605,-2.0605,-2.0605,-2.0605,-2.0605,-2.0615,-2.1025,-2.1278,-2.1484,-2.1924,-2.2197,-2.2353,-2.2627,-2.2691,-2.285,-2.4043,-2.4498,-2.4541,-2.4829,-2.4956,-2.5168,-2.667,-2.7563,-2.8099,-2.8391,-2.851,-2.851,-2.851,-2.851,-2.851,-2.851,-2.855,-2.8657,-2.8764,-2.891,-2.9067,-2.9341,-2.947,-2.9611,-2.9753,-2.9792,-2.9792,-2.9792,-2.9792,-2.9792,-2.9792,-2.9792,-2.9792,-2.9792,-3.0671,-3.1526,-3.2037,-3.2981,-3.3825,-3.4332,-3.4414,-3.4414,-3.4414,-3.4414,-3.4414,-3.4414,-3.4414,-3.4414,-3.4414,-3.4414,-3.4617,-3.5082,-3.4646,-3.4632,-3.5082,-3.4632,-3.4414,-3.438,-3.3859,-3.3638]},{"header":{"parameterUnit":"m.s-1","parameterCategory":1,"la1":30.6,"la2":29.2853,"lo1":-89.7004,"lo2":-87.6739,"dy":0.0162,"dx":0.0183,"nx":112,"ny":82,"refTime":"2023-04-05T06:00:00:Z","depth":0,"parameterNumber":3,"parameterNumberName":"V-component_of_WINDS"},"data":[0.0,0.0,0.0,0.0,0.0,0.0,0.0,0.0,0.0,0.0,0.0,0.0,0.0,0.0,0.0,0.0,0.0,0.0,0.0,0.0,0.0,0.0,0.0,0.0,0.0,0.0,0.0,0.0,0.0,0.0,0.0,0.0,0.0,0.0,0.0,0.0,0.0,0.0,0.0,0.0,0.0,0.0,0.0,0.0,0.0,0.0,0.0,0.0,0.0,0.0,0.0,0.0,0.0,0.0,0.0,0.0,0.0,0.0,0.0,0.0,0.0,0.0,0.0,0.0,0.0,0.0,0.0,0.0,0.0,0.0,0.0,0.0,0.0,0.0,0.0,0.0,0.0,0.0,0.0,0.0,0.0,0.0,0.0,0.0,0.0,0.0,0.0,0.0,0.0,0.0,0.0,1.438,1.4355,1.4256,1.4068,1.4059,1.4044,1.4033,0.0,0.0,0.0,0.0,0.0,0.0,0.0,0.0,0.0,0.0,0.0,0.0,0.0,0.0,0.0,0.0,0.0,0.0,0.0,0.0,0.0,0.0,0.0,0.0,0.0,0.0,0.0,0.0,0.0,0.0,0.0,0.0,0.0,0.0,0.0,0.0,0.0,0.0,0.0,0.0,0.0,0.0,0.0,0.0,0.0,0.0,0.0,0.0,0.0,0.0,0.0,0.0,0.0,0.0,0.0,0.0,0.0,0.0,0.0,0.0,0.0,0.0,0.0,0.0,0.0,0.0,0.0,0.0,0.0,0.0,0.0,0.0,0.0,0.0,0.0,0.0,0.0,0.0,0.0,0.0,0.0,0.0,0.0,0.0,0.0,0.0,0.0,0.0,0.0,0.0,0.0,0.0,0.0,0.0,0.0,0.0,0.0,0.0,0.0,0.0,0.0,0.0,0.0,0.0,1.4275,1.3952,1.4194,1.4241,1.3872,1.4145,1.428,1.4186,0.0,0.0,0.0,0.0,0.0,0.0,0.0,0.0,0.0,0.0,0.0,0.0,0.0,0.0,0.0,0.0,0.0,0.0,0.0,0.0,0.0,0.0,0.0,0.0,0.0,0.0,0.0,0.0,0.0,0.0,0.0,0.0,0.0,0.0,0.0,0.0,0.0,0.0,0.0,0.0,0.0,0.0,0.0,0.0,0.0,0.0,0.0,0.0,0.0,0.0,0.0,0.0,0.0,0.0,0.0,0.0,0.0,0.0,0.0,0.0,0.0,0.0,0.0,0.0,0.0,0.0,0.0,0.0,0.0,0.0,0.0,0.0,0.0,0.0,0.0,0.0,0.0,0.0,0.0,0.0,0.0,0.0,0.0,0.0,0.0,0.0,0.0,0.0,0.0,0.0,0.0,0.0,0.0,0.0,0.0,0.0,0.0,0.0,0.0,0.0,0.0,0.0,0.0,1.4466,1.4178,1.3837,1.396,1.3989,1.3823,1.4174,1.4373,1.4326,1.4116,0.0,0.0,0.0,0.0,0.0,0.0,0.0,0.0,0.0,0.0,0.0,0.0,0.0,0.0,0.0,0.0,0.0,0.0,0.0,0.0,0.0,0.0,0.0,0.0,0.0,0.0,0.0,0.0,0.0,0.0,0.0,0.0,0.0,0.0,0.0,0.0,0.0,0.0,0.0,0.0,0.0,0.0,0.0,0.0,0.0,0.0,0.0,0.0,0.0,0.0,0.0,0.0,0.0,0.0,0.0,0.0,0.0,0.0,0.0,0.0,0.0,0.0,0.0,0.0,0.0,0.0,0.0,0.0,0.0,0.0,0.0,0.0,0.0,0.0,0.0,0.0,0.0,0.0,0.0,0.0,0.0,0.0,0.0,0.0,0.0,0.0,0.0,0.0,0.0,0.0,0.0,0.0,0.0,0.0,0.0,0.0,0.0,0.0,0.0,0.0,0.0,0.0,1.4535,1.421,1.3928,1.3915,1.3905,1.3821,1.4163,1.4396,1.4396,1.4303,0.0,0.0,0.0,0.0,0.0,0.0,0.0,0.0,0.0,0.0,0.0,0.0,0.0,0.0,0.0,0.0,0.0,0.0,0.0,0.0,0.0,0.0,0.0,0.0,0.0,0.0,0.0,0.0,0.0,0.0,0.0,0.0,0.0,0.0,0.0,0.0,0.0,0.0,0.0,0.0,0.0,0.0,0.0,0.0,0.0,0.0,0.0,0.0,0.0,0.0,0.0,0.0,0.0,0.0,0.0,0.0,0.0,0.0,0.0,0.0,0.0,0.0,0.0,0.0,0.0,0.0,0.0,0.0,0.0,0.0,0.0,0.0,0.0,0.0,0.0,0.0,0.0,0.0,0.0,0.0,0.0,0.0,0.0,0.0,0.0,0.0,0.0,0.0,0.0,0.0,0.0,0.0,0.0,0.0,0.0,0.0,0.0,0.0,0.0,0.0,0.0,0.0,1.4834,1.4535,1.4199,1.428,1.4221,1.3844,1.4163,1.4396,1.4396,1.4396,0.0,0.0,0.0,0.0,0.0,0.0,0.0,0.0,0.0,0.0,0.0,0.0,0.0,0.0,0.0,0.0,0.0,0.0,0.0,0.0,0.0,0.0,0.0,0.0,0.0,0.0,0.0,0.0,0.0,0.0,0.0,0.0,0.0,0.0,0.0,0.0,0.0,0.0,0.0,0.0,0.0,0.0,0.0,0.0,0.0,0.0,0.0,0.0,0.0,0.0,0.0,0.0,0.0,0.0,0.0,0.0,0.0,0.0,0.0,0.0,0.0,0.0,0.0,0.0,0.0,0.0,0.0,0.0,0.0,0.0,0.0,0.0,0.0,0.0,0.0,0.0,0.0,0.0,0.0,0.0,0.0,0.0,0.0,0.0,0.0,0.0,0.0,0.0,0.0,0.0,0.0,0.0,0.0,0.0,0.0,0.0,0.0,0.0,0.0,0.0,0.0,0.0,1.5266,1.5085,0.0,1.4811,1.4789,1.4628,1.4743,1.4766,1.4593,0.0,0.0,0.0,0.0,0.0,0.0,0.0,0.0,0.0,0.0,0.0,0.0,0.0,0.0,0.0,0.0,0.0,0.0,0.0,0.0,0.0,0.0,0.0,0.0,0.0,0.0,0.0,0.0,0.0,0.0,0.0,0.0,0.0,0.0,0.0,0.0,0.0,0.0,0.0,0.0,0.0,0.0,0.0,0.0,0.0,0.0,0.0,0.0,0.0,0.0,0.0,0.0,0.0,0.0,0.0,0.0,0.0,0.0,0.0,0.0,0.0,0.0,0.0,0.0,0.0,0.0,0.0,0.0,0.0,0.0,0.0,0.0,0.0,0.0,0.0,0.0,0.0,0.0,0.0,0.0,0.0,0.0,0.0,0.0,0.0,0.0,0.0,0.0,0.0,0.0,0.0,0.0,0.0,0.0,0.0,0.0,0.0,0.0,0.0,0.0,0.0,0.0,1.5625,1.5536,1.5424,0.0,1.5153,1.5108,1.5108,1.5108,1.5017,1.4846,0.0,0.0,0.0,0.0,0.0,0.0,0.0,0.0,0.0,0.0,0.0,0.0,0.0,0.0,0.0,0.0,0.0,0.0,0.0,0.0,0.0,0.0,0.0,0.0,0.0,0.0,0.0,0.0,0.0,0.0,0.0,0.0,0.0,0.0,0.0,0.0,0.0,0.0,0.0,0.0,0.0,0.0,0.0,0.0,0.0,0.0,0.0,0.0,0.0,0.0,0.0,0.0,0.0,0.0,0.0,0.0,0.0,0.0,0.0,0.0,0.0,0.0,0.0,0.0,0.0,0.0,0.0,0.0,0.0,0.0,0.0,0.0,0.0,0.0,0.0,0.0,0.0,0.0,0.0,0.0,0.0,0.0,0.0,0.0,0.0,0.0,0.0,0.0,0.0,0.0,0.0,0.0,0.0,0.0,0.0,0.0,0.0,0.0,0.0,0.0,0.0,0.0,1.5859,1.5625,1.5513,1.5491,1.5266,1.5108,1.5108,1.5108,1.5108,0.0,0.0,0.0,0.0,0.0,0.0,0.0,0.0,0.0,0.0,0.0,0.0,0.0,0.0,0.0,0.0,0.0,0.0,0.0,0.0,0.0,0.0,0.0,0.0,0.0,0.0,0.0,0.0,0.0,0.0,0.0,0.0,0.0,0.0,0.0,0.0,0.0,0.0,0.0,0.0,0.0,0.0,0.0,0.0,0.0,0.0,0.0,0.0,0.0,0.0,0.0,0.0,0.0,0.0,0.0,0.0,0.0,0.0,0.0,0.0,0.0,0.0,0.0,0.0,0.0,0.0,0.0,0.0,0.0,0.0,0.0,0.0,0.0,0.0,0.0,0.0,0.0,0.0,0.0,0.0,0.0,0.0,0.0,0.0,0.0,0.0,0.0,0.0,0.0,0.0,0.0,0.0,0.0,0.0,0.0,0.0,0.0,0.0,0.0,0.0,0.0,0.0,0.0,1.5988,1.5879,1.5824,1.5726,1.5637,1.5592,1.5592,1.5592,1.5536,1.5401,0.0,0.0,0.0,0.0,0.0,0.0,0.0,0.0,0.0,0.0,0.0,0.0,0.0,0.0,0.0,0.0,0.0,0.0,0.0,0.0,0.0,0.0,0.0,0.0,0.0,0.0,0.0,0.0,0.0,0.0,0.0,0.0,0.0,0.0,0.0,0.0,0.0,0.0,0.0,0.0,0.0,0.0,0.0,0.0,0.0,0.0,0.0,0.0,0.0,0.0,0.0,0.0,0.0,0.0,0.0,0.0,0.0,0.0,0.0,0.0,0.0,0.0,0.0,0.0,0.0,0.0,0.0,0.0,0.0,0.0,0.0,0.0,0.0,0.0,0.0,0.0,0.0,0.0,0.0,0.0,0.0,0.0,0.0,0.0,0.0,0.0,0.0,0.0,0.0,0.0,0.0,0.0,0.0,0.0,0.0,0.0,0.0,0.0,0.0,0.0,0.0,0.0,1.6389,1.6315,1.6228,1.5991,1.5947,1.6013,1.6185,1.6185,1.6185,1.6185,0.0,0.0,0.0,0.0,0.0,0.0,0.0,0.0,0.0,0.0,0.0,0.0,0.0,0.0,0.0,0.0,0.0,0.0,0.0,0.0,0.0,0.0,0.0,0.0,0.0,0.0,0.0,0.0,0.0,0.0,0.0,0.0,0.0,0.0,0.0,0.0,0.0,0.0,0.0,0.0,0.0,0.0,0.0,0.0,0.0,0.0,0.0,0.0,0.0,0.0,0.0,0.0,0.0,0.0,0.0,0.0,0.0,0.0,0.0,0.0,0.0,0.0,0.0,0.0,0.0,0.0,0.0,0.0,0.0,0.0,0.0,0.0,0.0,0.0,0.0,0.0,0.0,0.0,0.0,0.0,0.0,0.0,0.0,0.0,0.0,0.0,0.0,0.0,0.0,0.0,0.0,0.0,0.0,0.0,0.0,0.0,0.0,0.0,0.0,0.0,0.0,0.0,1.6972,1.6879,1.6744,1.6362,1.6318,1.6479,1.6837,1.6858,1.6964,1.7206,0.0,0.0,0.0,0.0,0.0,0.0,0.0,0.0,0.0,0.0,0.0,0.0,0.0,0.0,0.0,0.0,0.0,0.0,0.0,0.0,0.0,0.0,0.0,0.0,0.0,0.0,0.0,0.0,0.0,0.0,0.0,0.0,0.0,0.0,0.0,0.0,0.0,0.0,0.0,0.0,0.0,0.0,0.0,0.0,0.0,0.0,0.0,0.0,0.0,0.0,0.0,0.0,0.0,0.0,0.0,0.0,0.0,0.0,0.0,0.0,2.1752,0.0,0.0,0.0,0.0,0.0,0.0,0.0,0.0,0.0,0.0,0.0,0.0,0.0,0.0,0.0,0.0,0.0,0.0,0.0,0.0,0.0,0.0,0.0,0.0,0.0,0.0,0.0,0.0,0.0,0.0,0.0,0.0,0.0,0.0,0.0,0.0,0.0,0.0,0.0,0.0,0.0,1.7517,1.7469,1.7428,1.7229,1.7209,1.725,1.7353,1.7353,1.7374,1.7435,0.0,0.0,0.0,0.0,0.0,0.0,0.0,0.0,0.0,0.0,0.0,0.0,0.0,0.0,0.0,0.0,0.0,0.0,0.0,0.0,0.0,0.0,0.0,0.0,0.0,0.0,0.0,0.0,0.0,0.0,0.0,0.0,0.0,0.0,0.0,0.0,0.0,0.0,0.0,0.0,0.0,0.0,0.0,0.0,0.0,0.0,0.0,0.0,0.0,0.0,0.0,0.0,0.0,0.0,0.0,0.0,0.0,0.0,0.0,0.0,0.0,2.4119,0.0,0.0,0.0,0.0,0.0,0.0,0.0,0.0,0.0,0.0,0.0,0.0,0.0,0.0,0.0,0.0,0.0,0.0,0.0,0.0,0.0,0.0,0.0,0.0,0.0,0.0,0.0,0.0,0.0,0.0,0.0,0.0,0.0,0.0,0.0,0.0,0.0,0.0,0.0,0.0,1.81,1.8054,1.7968,1.7673,1.7639,1.7754,1.7961,1.7981,1.802,1.812,1.8383,0.0,0.0,0.0,0.0,0.0,0.0,0.0,0.0,0.0,0.0,0.0,0.0,0.0,0.0,0.0,0.0,0.0,0.0,0.0,0.0,0.0,0.0,0.0,0.0,0.0,0.0,0.0,0.0,0.0,0.0,0.0,0.0,0.0,0.0,0.0,0.0,0.0,0.0,0.0,0.0,0.0,0.0,0.0,0.0,0.0,0.0,0.0,0.0,0.0,0.0,0.0,0.0,0.0,0.0,2.946,2.946,2.9911,2.9569,2.871,2.947,2.7731,2.4382,0.0,0.0,0.0,0.0,0.0,0.0,0.0,0.0,0.0,0.0,0.0,0.0,0.0,0.0,0.0,0.0,0.0,0.0,0.0,0.0,0.0,0.0,0.0,0.0,0.0,2.6079,2.5915,0.0,0.0,0.0,0.0,0.0,0.0,0.0,0.0,0.0,0.0,0.0,0.0,1.8649,1.8611,1.8461,1.8068,1.8028,1.8187,1.8572,1.8611,1.8688,1.8841,1.9007,1.895,0.0,0.0,0.0,0.0,0.0,0.0,0.0,0.0,0.0,0.0,0.0,0.0,0.0,0.0,0.0,0.0,0.0,0.0,0.0,0.0,0.0,0.0,0.0,0.0,0.0,0.0,0.0,0.0,0.0,0.0,0.0,0.0,3.0121,2.7886,0.0,0.0,0.0,0.0,0.0,0.0,0.0,0.0,0.0,0.0,0.0,0.0,0.0,0.0,2.8379,2.9256,2.9303,2.8582,3.0672,3.1671,3.1743,3.39,3.444,3.3665,3.3788,0.0,2.6747,2.4769,0.0,0.0,0.0,0.0,0.0,0.0,0.0,0.0,0.0,0.0,0.0,0.0,0.0,0.0,0.0,0.0,0.0,0.0,0.0,0.0,0.0,0.0,2.1336,2.5347,2.6222,2.615,0.0,2.5214,2.4307,2.4012,0.0,0.0,0.0,0.0,0.0,0.0,0.0,0.0,1.9045,1.9026,1.9007,1.8936,1.8917,1.8936,1.9026,1.9026,1.9026,1.9064,1.9082,1.9082,1.9026,1.9064,0.0,0.0,0.0,0.0,0.0,0.0,0.0,0.0,0.0,0.0,0.0,0.0,0.0,0.0,0.0,0.0,0.0,0.0,0.0,0.0,0.0,0.0,0.0,0.0,0.0,0.0,0.0,0.0,0.0,2.8465,2.8755,2.6152,2.7163,2.6804,0.0,0.0,0.0,0.0,0.0,0.0,0.0,0.0,0.0,2.6835,2.9646,3.0966,3.0559,3.2296,3.298,3.2622,3.3674,3.4183,3.422,3.5299,3.5351,3.4606,3.4606,3.314,3.06,2.8184,2.6408,2.5132,0.0,0.0,0.0,0.0,0.0,2.4446,2.4395,0.0,0.0,0.0,0.0,0.0,0.0,0.0,0.0,0.0,0.0,0.0,0.0,0.0,0.0,2.5816,2.6381,2.6363,2.6363,2.5719,2.5063,0.0,2.4466,2.4081,2.3682,0.0,0.0,0.0,0.0,0.0,1.9328,1.9265,1.9265,1.9265,1.9265,1.9265,1.9265,1.9265,1.9265,1.9265,1.9265,1.9265,1.9265,1.9265,1.9265,0.0,0.0,0.0,0.0,0.0,0.0,0.0,0.0,0.0,0.0,0.0,0.0,0.0,0.0,0.0,0.0,0.0,0.0,0.0,0.0,0.0,0.0,0.0,0.0,0.0,0.0,0.0,0.0,2.7902,2.8625,2.5439,2.7343,2.7781,0.0,0.0,0.0,0.0,0.0,0.0,2.644,2.875,3.0035,2.9902,3.2354,3.3629,3.3586,3.5483,3.6417,3.6417,3.6417,3.6417,3.6417,3.6417,3.5874,3.4899,3.4899,3.4335,3.3212,3.0826,2.8757,2.7043,2.6481,2.6268,2.6347,2.6968,2.7191,2.7179,2.7103,2.7103,2.7024,2.6261,0.0,2.6171,2.6369,0.0,0.0,0.0,0.0,2.203,2.305,0.0,2.4747,2.6202,2.6502,2.6502,2.6502,2.6188,2.583,0.0,2.5214,2.4803,2.4502,0.0,0.0,0.0,0.0,2.0616,1.989,1.9723,1.9586,1.9409,1.9395,1.9395,1.9395,1.9395,1.9395,1.9395,1.9395,1.9395,1.9395,1.9395,1.9395,1.9395,0.0,0.0,0.0,0.0,0.0,0.0,0.0,0.0,0.0,0.0,0.0,0.0,0.0,0.0,0.0,0.0,0.0,0.0,0.0,0.0,0.0,0.0,0.0,0.0,0.0,0.0,0.0,0.0,0.0,2.8187,2.9703,0.0,0.0,0.0,0.0,3.0939,3.1084,3.0923,3.0618,3.3009,3.4277,3.4015,3.6535,3.7884,3.7884,3.8011,3.8082,3.8082,3.8082,3.8082,3.8082,3.8082,3.7214,3.5731,3.5731,3.486,3.3197,3.0726,2.9638,2.9282,2.6876,2.593,2.593,2.6045,2.6087,2.6099,2.6147,2.6159,2.6159,2.6111,2.6135,2.6333,2.7103,2.7033,0.0,0.0,2.4683,2.4059,2.4566,2.413,2.4069,2.6101,2.6554,2.6502,2.6502,2.6485,2.6311,0.0,2.5253,2.502,2.537,0.0,2.3954,2.4218,2.3023,2.1812,2.102,2.0583,2.0125,1.9468,1.9395,1.9395,1.9395,1.9395,1.9395,1.9395,1.9395,1.9395,1.9395,1.9395,1.9395,1.9395,2.0048,0.0,0.0,0.0,0.0,0.0,0.0,0.0,0.0,0.0,0.0,0.0,0.0,0.0,0.0,0.0,0.0,0.0,0.0,0.0,0.0,0.0,0.0,0.0,0.0,0.0,0.0,0.0,0.0,3.0443,3.2348,0.0,0.0,3.0099,3.0344,3.1268,3.257,3.3335,3.3281,3.5703,3.7044,3.6949,3.7833,3.8305,3.8257,3.7749,3.7479,3.743,3.743,3.743,3.743,3.743,3.6834,3.5768,3.5305,3.4482,3.3394,3.2569,3.2168,3.1996,3.1069,3.073,3.073,3.0757,3.0771,3.0771,3.0785,3.0799,3.0799,3.0799,3.0817,3.0505,2.8708,2.7759,2.6783,2.4435,2.394,2.4139,2.4311,2.4955,2.5742,2.6488,2.6657,2.664,2.664,2.6589,2.6503,2.6312,2.6012,2.574,2.5521,2.518,2.4727,2.4164,2.3617,2.2926,2.1947,2.1717,2.1281,2.0329,2.0251,2.0057,1.9626,1.9581,1.9581,1.9581,1.9581,1.9581,1.9581,1.98,1.9909,1.9909,2.041,2.0762,0.0,0.0,0.0,0.0,0.0,0.0,0.0,0.0,0.0,0.0,0.0,0.0,0.0,0.0,0.0,0.0,0.0,0.0,0.0,0.0,0.0,0.0,0.0,0.0,0.0,0.0,3.2378,3.1707,3.3694,3.4534,3.3038,3.2606,3.2762,3.3602,3.499,3.5807,3.5875,3.7478,3.8399,3.8399,3.8399,3.8368,3.8307,3.7794,3.7489,3.7426,3.7459,3.7473,3.7457,3.717,3.6592,3.5794,3.5024,3.424,3.3509,3.3577,3.3549,3.3466,3.3437,3.3437,3.3437,3.3437,3.3437,3.3437,3.3466,3.3466,3.3466,3.3466,3.3452,3.3038,3.0903,2.9804,2.8791,2.6375,2.5885,2.5999,2.5624,2.6184,2.6841,2.6725,2.6691,2.6691,2.6691,2.6657,2.664,2.6589,2.6469,2.6242,2.5886,2.5797,2.5524,2.4814,2.4564,2.4105,2.3201,2.2717,2.2109,2.1167,2.0871,2.0551,2.0111,2.0065,2.0065,2.0065,2.0065,2.0065,2.0065,2.0275,2.0412,2.0412,2.1016,2.1439,2.1649,0.0,0.0,0.0,0.0,0.0,0.0,0.0,0.0,0.0,0.0,0.0,0.0,0.0,0.0,0.0,0.0,0.0,0.0,0.0,0.0,0.0,0.0,0.0,2.8098,3.2195,3.4378,3.2186,3.38,3.5169,3.5302,3.5197,3.6055,3.8327,3.851,3.8478,3.8415,3.8399,3.8399,3.8399,3.8399,3.8368,3.8289,3.835,3.8332,3.8271,3.8332,3.8362,3.8328,3.7483,3.6687,3.5905,3.509,3.4291,3.356,3.3613,3.3623,3.3605,3.352,3.3491,3.3491,3.3491,3.3491,3.3506,3.3577,3.3605,3.3605,3.3605,3.3549,3.3491,3.3491,3.3172,3.2614,3.1811,3.0814,2.9725,2.8604,2.7747,2.7133,2.6791,2.6708,2.6708,2.6691,2.6691,2.6691,2.6623,2.6554,2.6502,2.6502,2.6382,2.6313,2.6313,2.5852,0.0,2.4718,2.3615,2.2629,2.1951,2.1285,2.089,2.0842,2.0826,2.081,2.0794,2.0794,2.0794,2.0794,2.0811,2.0826,2.0826,2.1858,2.2361,2.2327,0.0,0.0,0.0,0.0,0.0,0.0,0.0,0.0,0.0,0.0,0.0,0.0,0.0,0.0,0.0,0.0,0.0,0.0,0.0,0.0,0.0,0.0,3.3044,3.3108,3.4192,3.543,3.6632,3.7309,3.7701,3.7728,3.7634,3.7845,3.8588,3.8559,3.8525,3.8611,3.8627,3.8627,3.8627,3.8627,3.853,3.8368,3.7898,3.7593,3.7417,3.7512,3.7525,3.7525,3.7275,3.7057,3.6802,3.6042,3.5268,3.4516,3.459,3.427,3.3739,3.3619,3.3577,3.3577,3.3577,3.3577,3.3577,3.3591,3.3605,3.3605,3.3605,3.3591,3.3577,3.3577,3.3045,3.2264,3.145,3.0399,2.9278,2.8393,2.7868,2.7491,2.7149,2.7053,2.7005,2.6741,2.6691,2.6691,2.6674,2.6657,2.6623,2.652,2.6468,2.6451,2.6451,2.6329,0.0,2.5533,2.5194,2.4608,2.3631,2.3335,2.2789,2.1754,2.1573,2.1317,2.0826,2.0794,2.0794,2.0794,2.1039,2.1246,2.1455,2.2033,2.2437,0.0,0.0,0.0,0.0,0.0,0.0,0.0,0.0,0.0,0.0,0.0,0.0,0.0,0.0,0.0,0.0,0.0,0.0,0.0,0.0,0.0,0.0,3.2561,3.5514,3.6916,3.6751,3.7036,3.8508,3.8707,3.8707,3.8707,3.8624,3.8609,3.8692,3.8624,3.8624,3.8692,3.8707,3.8707,3.8707,3.8707,3.8593,3.8399,3.8104,3.7854,3.7644,3.7773,3.782,3.7836,3.7457,3.7277,0.0,3.6446,3.582,3.5414,3.5522,3.5275,0.0,0.0,0.0,0.0,0.0,3.3657,3.3684,3.3684,3.3684,3.3684,3.3684,3.3661,3.3605,3.3605,3.3207,3.2595,3.1778,3.106,3.0234,2.8929,2.849,2.8203,2.7561,2.7415,2.7322,2.6989,2.6907,2.6874,2.6725,0.0,0.0,2.6589,2.6555,2.6537,2.6537,2.652,2.6399,2.6136,2.5819,2.5385,2.4766,2.4385,2.3845,2.2947,2.2816,0.0,0.0,0.0,2.215,2.2167,2.2425,0.0,0.0,0.0,2.3583,0.0,0.0,0.0,0.0,2.3401,2.303,0.0,0.0,0.0,0.0,0.0,0.0,0.0,0.0,0.0,0.0,0.0,0.0,0.0,0.0,0.0,0.0,3.3747,3.6402,3.9478,3.9294,3.8836,3.8836,3.8762,3.8744,3.8836,3.8836,3.8836,3.8836,3.8836,3.8799,3.8707,0.0,0.0,0.0,0.0,3.8761,3.8399,3.8669,3.8653,3.8382,3.8578,3.8673,3.8655,3.7894,3.7549,3.7497,3.6732,3.6347,3.6256,3.6384,3.6376,3.6138,3.449,3.3858,3.384,3.3748,3.3753,0.0,0.0,0.0,0.0,3.3807,3.3726,3.3615,3.3615,3.352,3.3259,3.2444,3.2212,3.1779,2.9958,2.9422,2.9105,2.8129,2.7813,2.7654,2.7338,2.7228,2.7117,2.6808,2.6725,2.6691,2.6691,2.6657,2.6606,2.6606,2.6571,2.652,2.652,2.595,2.5547,2.5547,0.0,0.0,2.4279,2.4263,2.4197,2.413,2.4066,2.4066,2.4114,2.4243,2.4308,2.4327,2.4996,2.5127,2.474,2.5393,2.5497,2.5028,2.4021,2.3571,0.0,0.0,0.0,0.0,0.0,0.0,0.0,0.0,0.0,0.0,0.0,0.0,0.0,0.0,0.0,3.247,3.5634,3.842,3.9717,3.9772,3.9662,3.9662,3.9093,3.8946,3.9588,3.9662,3.9662,3.9662,3.9662,3.9386,3.8726,3.9313,0.0,3.8726,3.9839,3.9811,3.8417,3.9071,3.9057,3.8322,0.0,0.0,3.8525,3.8478,3.8453,3.8453,3.8273,3.783,3.7224,3.7257,3.6905,3.6193,3.5155,3.4738,3.4665,3.4018,3.3793,3.3807,3.3807,3.3807,3.3807,3.3807,3.3793,3.3766,3.3766,3.3657,0.0,3.2593,3.2278,3.1948,3.0948,3.0193,2.9571,2.9101,2.8482,2.7954,2.7654,2.74,2.7181,2.7117,2.6891,2.6691,2.6691,2.6674,2.6691,2.6691,2.6674,2.6657,2.6657,2.6539,2.6455,2.6455,2.627,2.59,2.5278,2.5179,2.4895,2.4308,2.4258,2.4243,2.4258,2.429,2.4396,2.4625,2.4756,2.5082,2.5582,2.5713,2.5868,2.6013,2.5056,2.4322,0.0,0.0,0.0,0.0,0.0,0.0,0.0,0.0,0.0,0.0,0.0,2.8674,0.0,0.0,3.4259,3.4607,3.7588,4.0194,4.0983,4.0744,4.0506,4.0506,4.0157,4.0065,4.0469,4.0506,4.0506,4.0506,4.0506,4.0341,3.9921,4.0286,4.0322,3.9918,4.0219,3.9937,3.9019,3.9102,3.8885,3.8336,3.853,3.8609,3.8609,3.8658,3.8927,3.9276,3.8872,3.8707,3.8667,3.8267,3.7863,3.7422,3.6578,3.5738,3.4912,3.41,3.3807,3.3807,3.3807,3.3807,3.3807,3.3807,3.378,3.3753,3.3753,3.3671,3.35,3.3071,3.2892,3.2672,3.1813,3.1292,3.0849,3.0296,2.984,2.9484,2.9171,2.8644,2.8215,2.8082,2.7455,2.6956,2.6956,2.6808,2.6691,2.6691,2.6691,2.6691,2.6691,2.6691,2.6691,2.6691,2.6674,2.6489,2.6084,2.6017,2.5832,2.543,2.5462,2.5479,2.5446,2.5479,2.5564,2.5696,2.5696,2.5878,2.6207,2.6207,2.626,2.6399,2.5921,2.5181,0.0,0.0,0.0,0.0,0.0,0.0,0.0,0.0,2.9977,3.1626,3.2088,3.2259,3.2451,3.469,3.656,3.6827,3.9118,4.1203,4.2158,4.1754,4.1334,4.1334,4.1058,4.093,4.1077,4.1095,4.115,4.1315,4.1334,4.126,4.1113,4.1242,4.126,4.1095,4.0765,4.0352,3.9893,3.9367,3.8949,3.8636,3.8651,3.8658,3.8658,3.8692,3.9056,3.9625,3.8982,3.9074,3.9625,3.8964,3.8707,3.8615,3.7823,3.667,3.5371,3.438,3.3935,3.3807,3.3807,3.3807,3.3807,3.3807,3.3766,3.3726,3.3726,3.3671,3.3619,3.3549,3.352,3.3346,3.2653,3.2363,3.2077,3.1424,3.1121,3.0925,3.0668,3.0034,2.9419,2.9059,2.832,2.7689,2.7454,2.7313,2.7131,2.6742,2.6691,2.6691,2.6691,2.6691,2.6691,2.6691,2.6691,2.6674,2.6623,2.6623,2.6589,2.6537,2.664,2.6674,2.6623,2.6674,2.6691,2.6691,2.6691,2.6674,2.6623,2.6623,2.6572,2.652,2.652,2.596,2.681,2.7456,2.9476,2.9838,3.0868,3.1755,0.0,0.0,3.1684,3.1789,3.2396,3.3322,3.4748,3.5766,3.6883,3.8302,3.939,4.0561,4.2084,4.2213,4.2176,4.2176,4.0891,4.0304,4.1022,4.1095,4.1389,4.2121,4.2176,4.1864,4.1132,4.1791,4.1846,4.1113,4.233,4.2314,4.087,4.0658,4.0204,3.9458,3.8825,3.8525,3.8525,3.8658,3.8762,3.8836,3.8744,3.8762,3.8836,3.8744,3.8707,3.8615,3.7823,3.7382,3.7033,3.5445,3.4399,3.3807,3.3807,3.3807,3.3807,3.3807,3.3775,3.3793,3.3793,3.3739,3.3684,3.3671,3.3629,3.3573,3.3468,3.2917,3.2338,3.2197,3.1601,3.1048,3.0971,3.0639,3.0151,2.9394,2.9549,2.9449,2.8365,2.8748,2.8613,2.6962,2.6691,2.6691,2.6691,2.6691,2.6691,2.6691,2.6691,2.6691,2.6674,2.6674,2.6691,2.6691,2.6691,2.6691,2.6674,2.6691,2.6691,2.6691,2.6691,2.6691,2.6674,2.6674,2.664,2.6606,2.6606,2.6418,3.2292,3.1627,0.0,0.0,3.4101,3.4299,3.4191,3.4428,3.4882,3.5655,3.6468,3.7077,3.7274,3.8302,3.9375,0.0,4.1181,4.2229,4.2892,4.2598,4.2139,4.1645,4.0598,4.0396,4.168,4.1809,4.2139,4.2928,4.3002,4.2837,4.2506,4.2818,4.2837,4.2506,4.2674,4.242,4.171,4.1216,4.078,4.0399,3.9658,3.9559,4.0001,3.9591,3.9662,4.0104,4.0598,4.0543,4.0049,3.9588,3.9405,3.9313,3.8505,3.7915,3.7364,3.6193,3.5224,3.4491,3.4491,3.4192,3.3807,3.3807,3.3807,3.3807,3.3807,3.378,3.3753,3.3712,3.3671,3.3643,3.3619,3.335,3.3095,3.3053,3.2798,3.2547,3.2464,3.1985,3.1433,3.1066,3.0627,3.0158,2.9669,2.953,2.9231,2.8442,2.776,2.7334,2.7334,2.6962,2.6691,2.6691,2.6691,2.6691,2.6691,2.6691,2.6691,2.6691,2.6691,2.6691,2.6691,2.6691,2.6691,2.6691,2.6691,2.6691,2.6691,2.6691,2.6691,2.6657,2.6623,2.6537,3.4186,0.0,0.0,3.6165,3.7137,3.7411,3.728,3.7564,3.8136,3.9157,3.9827,4.0047,3.9478,4.0139,4.0912,4.1352,4.2213,4.291,4.313,4.2671,4.1919,4.0891,4.0249,4.0359,4.1515,4.1644,4.2066,4.3075,4.3167,4.3276,4.3496,4.3515,4.3515,4.3515,4.2928,4.2618,4.255,4.1812,4.1409,4.1359,4.0584,4.0543,4.1077,4.0506,4.0561,4.1113,4.1479,4.1313,4.0726,3.99,3.957,3.9515,3.8927,3.834,3.7768,3.7184,3.6285,3.5316,3.5078,3.4619,3.41,3.3862,3.3807,3.3807,3.3807,3.3807,3.3793,3.3739,3.3726,3.3712,3.3657,3.3675,3.3643,3.3629,3.3633,3.3619,3.3534,3.3051,3.2551,3.2276,3.173,3.1198,3.0862,3.0586,3.035,3.0128,2.9229,2.8405,2.7875,2.7165,2.6691,2.6691,2.6691,2.6691,2.6691,2.6691,2.6691,2.6691,2.6691,2.6691,2.6691,2.6691,2.6793,2.6996,2.6996,2.7114,2.7317,2.7114,2.6996,2.6996,2.6742,2.6521,0.0,0.0,3.4307,3.6528,3.9233,4.1267,4.0988,4.0963,4.0983,4.1022,4.104,4.1058,4.1022,4.0432,4.0451,4.2011,4.1662,4.1444,4.2231,4.2323,4.1717,4.012,3.99,3.9918,0.0,3.9955,4.0616,4.2213,4.2341,4.2671,4.346,4.3515,4.3515,4.3515,4.3478,4.346,4.3461,4.2653,4.2268,4.2249,4.1444,4.1077,4.1095,4.1058,4.1077,4.1058,4.0304,3.9955,3.9863,3.9074,3.8744,3.8726,3.8707,3.8689,3.867,3.8652,3.7624,3.6138,3.5298,3.4986,3.4839,3.4064,3.3807,3.3807,3.3807,3.3807,3.3807,3.3807,3.3807,3.3807,3.3775,3.3775,3.378,3.3712,3.3698,3.3671,3.3619,3.353,3.3237,3.2437,3.2839,3.2946,3.177,3.2208,3.2464,3.1736,3.1007,2.9866,2.8029,2.7165,2.6691,2.6691,2.6691,2.6691,2.6691,2.6691,2.6691,2.6691,2.6691,2.6691,2.6691,2.6691,2.7046,2.7756,2.7773,2.8163,2.8925,2.8163,2.7773,2.7756,2.7029,2.6453,0.0,0.0,3.7001,4.0118,4.1192,4.1522,4.1609,4.1354,4.0948,4.0414,3.9065,3.7824,3.7286,3.7397,3.793,3.9016,4.0719,4.1992,4.2268,4.2304,4.1699,4.0084,3.99,0.0,0.0,0.0,0.0,4.2176,4.2304,4.2653,4.346,4.3515,4.3515,4.3515,4.3515,4.3515,4.3515,4.3222,4.3094,4.3075,4.2818,4.2415,4.1919,4.2451,4.269,4.2671,4.2396,4.1974,4.1423,4.0618,3.9992,3.9441,3.8909,3.8707,3.8707,3.8707,3.8358,3.7771,3.6945,3.6303,3.5734,3.4876,3.5,3.5238,3.4137,3.416,3.4472,3.3954,3.3807,3.3807,3.3807,3.3807,3.3775,3.378,3.3766,3.3753,3.3671,3.3643,3.3514,3.3174,3.3313,3.3332,3.2862,3.2793,3.2634,3.2162,3.1057,2.9663,2.801,2.757,2.7232,2.6742,2.6691,2.6691,2.6691,2.7165,2.7418,2.7418,2.7926,2.8231,2.8231,2.8231,2.835,2.8586,2.8602,2.8739,2.8993,2.8179,2.7807,2.779,2.7012,2.6555,0.0,3.7034,3.9297,4.2361,4.2819,4.2478,4.2249,4.1838,4.1222,4.012,3.8029,3.615,3.5348,3.4884,3.4994,3.615,3.8258,4.0073,4.0937,4.1337,4.1248,4.043,4.0322,4.0139,0.0,0.0,0.0,4.1791,4.2139,4.2653,4.346,4.3515,4.3515,4.3515,4.3515,4.3515,4.3515,4.3515,4.3515,4.3515,4.3515,4.3222,4.2745,4.3259,4.3332,4.3057,4.2763,4.2194,4.1387,4.0579,3.9937,3.9423,3.8909,3.8707,3.8707,3.8707,3.8707,3.8579,3.7786,3.7162,3.6578,3.5752,3.5844,3.6101,3.5018,3.4839,3.4894,3.4362,3.4027,3.3807,3.3807,3.3807,3.3807,3.3807,3.3807,3.3793,3.3753,3.3712,3.3657,3.3549,3.3524,3.3481,3.3408,3.3068,3.2731,3.2502,3.1443,3.0212,2.897,2.8472,2.8044,2.7571,2.7266,2.7215,2.7503,2.7689,2.7925,2.8196,2.8704,2.8993,2.8993,2.8993,2.9128,2.9381,2.9381,2.9534,2.9788,2.8738,2.823,2.8213,2.713,2.6623,3.6825,3.9369,4.118,4.3235,4.4052,4.4051,4.2943,4.2437,4.1699,4.0063,3.7824,3.5887,0.0,0.0,3.2004,3.3815,3.4897,3.6311,3.8637,3.9778,4.0557,0.0,0.0,0.0,0.0,0.0,0.0,4.115,0.0,4.2653,4.346,4.3515,4.3515,4.3515,4.3515,4.3515,4.3515,4.3515,4.3515,4.3515,4.3515,4.3515,4.3515,4.3515,4.3057,4.2268,4.148,4.0689,3.9827,3.9074,3.8744,3.8707,3.8707,3.8707,3.8707,3.8707,3.8707,3.8597,3.7841,3.7566,3.7437,3.6615,3.6376,3.6413,3.6321,3.5752,3.5133,3.5078,3.4509,3.3917,3.3862,3.3899,3.3917,3.3862,3.3862,3.3862,3.3862,3.3808,3.3725,3.3619,3.3534,3.3481,3.3408,3.3083,3.2827,3.2827,3.2214,3.1456,3.0697,2.9705,2.9044,2.8993,2.8332,2.8162,2.8942,2.8332,2.8229,2.901,2.9094,2.9111,2.9111,2.9111,2.9431,3.0142,3.0176,3.0497,3.119,2.9771,2.9044,2.8959,2.7503,2.6725,3.9115,4.144,4.3397,4.4307,4.4008,4.3371,4.2813,4.1567,3.9911,3.7811,3.4984,3.2321,0.0,0.0,0.0,3.3833,3.7182,0.0,4.1252,4.2132,0.0,4.1222,0.0,4.1772,4.115,4.1644,0.0,0.0,4.2176,4.2653,4.346,4.3515,4.3515,4.3515,4.3515,4.3515,4.3515,4.3515,4.3515,4.3515,4.3515,4.3515,4.3515,4.3515,4.3057,4.2286,4.2084,4.1203,3.9879,3.968,3.9239,3.8707,3.8707,3.8707,3.8707,3.8707,3.8707,3.867,3.8469,3.8395,3.8267,3.7456,3.7588,3.7863,3.6652,3.656,3.6725,3.6138,3.5826,3.5514,3.4857,3.5183,3.5495,3.4839,3.4692,3.4692,3.4692,3.4637,3.4402,3.3729,3.3509,3.3408,3.3393,3.3301,3.3256,3.3256,3.2619,3.176,3.0733,3.0148,2.96,2.9061,2.8824,2.879,2.8976,2.9313,2.96,2.982,3.0328,3.0632,3.0632,3.0632,3.0717,3.092,3.092,3.1004,3.119,3.0277,2.9533,2.8993,2.8604,2.7791,4.1585,4.3589,4.5135,4.4872,4.3989,4.2747,4.1022,3.9489,3.7649,3.4995,3.2184,0.0,2.8531,0.0,0.0,0.0,0.0,0.0,4.1027,4.2034,4.2459,0.0,4.2543,0.0,4.2194,4.2561,4.2818,0.0,4.2818,4.302,4.3478,4.3515,4.3497,4.3464,4.3464,4.3464,4.3464,4.3464,4.3463,4.3515,4.3515,4.3515,4.3515,4.3515,4.3057,4.2304,0.0,4.1589,4.0396,4.0047,3.9625,3.9239,3.9239,3.9239,3.9239,3.9239,3.9239,3.9184,3.8817,3.8707,3.8634,3.8175,3.8322,3.8542,3.7624,3.7422,3.7419,3.696,3.656,3.6193,3.5697,3.5936,3.6174,3.5697,3.554,3.5494,3.5494,3.5422,3.5239,3.471,3.4247,3.3936,3.3936,3.3628,3.3393,3.3393,3.2766,3.2073,3.1429,3.0908,3.0412,3.0025,2.9687,2.96,2.9941,3.0057,3.0243,3.0565,3.097,3.119,3.119,3.119,3.119,3.119,3.119,3.119,3.119,3.0463,2.9777,2.9168,2.8777,2.8008,4.4011,4.5453,4.6266,4.5185,4.3937,4.2088,3.8717,3.7113,3.539,3.2024,0.0,2.8203,2.7884,2.7892,2.8614,3.0647,0.0,3.6514,3.9835,4.1021,4.2004,4.3348,4.3515,4.3515,4.3515,4.3515,4.3515,4.3515,4.3515,4.3515,4.3515,4.3515,4.3463,4.3412,4.3376,4.3358,4.3358,4.3394,4.3429,4.3497,4.3497,4.3515,4.3515,4.3515,4.3057,4.2304,0.0,0.0,4.104,4.0359,4.0065,4.0065,4.0065,4.0065,4.0065,4.0065,3.9992,3.9808,3.9221,3.8946,3.8836,3.8726,3.8707,3.8707,3.8707,3.8212,3.7658,3.7658,3.7162,3.6597,3.6486,3.6541,3.6597,3.6468,3.6355,3.6259,3.6259,3.6115,3.6006,3.6038,3.5359,3.4754,3.4754,3.4099,3.3541,3.3497,3.2805,3.2283,3.2231,3.1618,3.119,3.119,3.0632,3.0497,3.114,3.0615,3.0531,3.1157,3.119,3.119,3.119,3.119,3.119,3.119,3.119,3.1151,3.1075,3.0432,2.9831,2.9242,2.8578,2.7896,4.5761,4.613,4.6088,4.5639,4.3652,4.1072,3.8302,3.655,0.0,0.0,2.8577,2.7705,2.5758,2.6903,2.9101,3.2034,3.4583,0.0,0.0,0.0,4.2483,0.0,0.0,0.0,0.0,0.0,0.0,0.0,0.0,0.0,4.3515,4.3515,4.3463,4.3412,4.3305,4.3233,4.3233,4.334,4.3412,4.3429,4.3463,4.3515,4.3515,4.3515,4.3057,4.2304,0.0,0.0,4.1095,4.0948,4.0875,4.0875,4.0875,4.0875,4.0875,4.0875,4.0469,3.9974,4.0506,4.0249,3.957,3.8927,3.8707,3.8707,3.8707,3.8597,3.8487,3.8487,3.8395,3.8138,3.7456,3.779,3.812,3.7456,3.7198,3.7086,3.7086,3.6471,3.6093,3.6701,3.6162,3.5587,3.5587,3.4917,3.4279,3.3958,3.2977,3.2179,3.1841,3.1447,3.119,3.119,3.1089,3.1055,3.119,3.1072,3.1055,3.119,3.119,3.119,3.119,3.119,3.119,3.119,3.119,3.0938,3.0456,3.0323,2.9653,2.8501,2.8962,2.8474,4.5589,4.5858,4.5786,4.4468,4.2816,4.0387,3.612,0.0,0.0,0.0,2.647,2.6137,2.5013,2.6657,0.0,3.1359,3.4369,3.7499,0.0,0.0,0.0,0.0,0.0,0.0,0.0,0.0,0.0,0.0,0.0,0.0,4.3515,4.3392,4.3304,4.3251,4.3123,4.3087,4.3142,4.3196,4.3305,4.3394,4.3429,4.3481,4.3515,4.3515,4.3277,4.291,4.291,0.0,4.2323,4.1901,4.1735,4.1735,4.1735,4.1735,4.1735,4.1735,4.1479,4.113,4.1095,4.0855,4.0396,3.9588,3.9313,3.9313,3.9313,3.9038,3.8799,3.9203,3.9019,3.8707,3.8741,3.9038,3.9205,3.8808,3.8243,3.7804,3.779,3.74,3.7209,3.7557,3.6961,3.6417,3.6417,3.5765,3.5078,3.4647,3.3633,3.2774,3.2391,3.1664,3.119,3.119,3.119,3.119,3.119,3.119,3.119,3.119,3.119,3.119,3.119,3.119,3.119,3.119,3.0958,3.0699,3.0398,3.0161,2.9534,2.8614,2.8884,2.8489,4.4808,4.5312,4.5432,4.3483,4.2062,3.9703,3.4167,3.2198,0.0,2.5705,2.4937,2.5077,2.5062,2.6524,2.8315,0.0,3.2937,3.5923,3.8833,0.0,0.0,0.0,0.0,0.0,0.0,0.0,0.0,0.0,0.0,0.0,4.3515,4.3304,4.3178,4.3105,4.2994,4.2938,4.3067,4.3086,4.3178,4.3341,4.334,4.3394,4.348,4.348,4.3497,4.3515,4.3515,0.0,0.0,4.2818,4.2544,4.2527,4.2561,4.2561,4.2561,4.2561,4.2451,4.2231,4.1772,4.1515,4.1205,4.0414,4.0029,3.9863,3.9698,3.9203,3.8836,3.946,3.9184,3.8891,3.968,3.99,3.9921,4.001,3.9438,3.8813,3.8515,3.8479,3.8425,3.8245,3.7701,3.7267,3.7267,3.658,3.589,3.5451,3.4447,3.3579,3.3185,3.2281,3.1664,3.1664,3.1376,3.119,3.119,3.119,3.119,3.119,3.1343,3.136,3.1207,3.1343,3.136,3.119,3.0838,3.0559,3.0398,2.993,2.9393,2.8764,2.8559,2.8213,4.403,4.4841,4.5062,4.4123,4.1946,3.8795,3.3993,0.0,2.9573,2.5539,2.5397,2.5955,2.5904,2.6067,2.6928,0.0,0.0,3.1622,3.6086,0.0,0.0,0.0,0.0,0.0,0.0,0.0,0.0,0.0,0.0,0.0,0.0,4.3304,4.3196,4.3196,4.3013,4.2919,4.2919,4.303,4.3104,4.3123,4.3196,4.3305,4.3412,4.3412,4.3446,4.3515,0.0,0.0,0.0,4.3407,4.3353,4.3301,4.337,4.3404,4.3404,4.3404,4.2928,4.2396,4.3039,4.28,4.2066,4.1242,4.0506,3.9753,3.9038,3.8762,3.8726,3.8799,3.8762,3.8891,3.968,3.99,4.0052,4.0585,4.0729,4.0475,3.9511,3.9346,3.9144,3.8352,3.8154,3.81,3.81,3.743,3.6754,3.6344,3.5261,3.4347,3.3947,3.3492,3.3203,3.3203,3.2002,3.119,3.119,3.119,3.119,3.119,3.1836,3.1904,3.1224,3.1853,3.1887,3.1207,3.1151,3.0818,3.0123,2.9673,2.9065,2.8336,2.7919,2.7675,4.223,4.355,4.4122,4.2636,4.0369,3.7407,3.3155,0.0,2.8455,2.5997,2.5772,2.6183,2.6639,2.6725,2.7018,0.0,0.0,0.0,3.2639,0.0,0.0,0.0,0.0,0.0,0.0,0.0,0.0,0.0,0.0,0.0,0.0,4.3232,4.3142,4.3031,4.2939,4.2901,4.2901,4.2938,4.303,4.3104,4.3141,4.3196,4.3269,4.3358,4.3411,4.3446,0.0,0.0,0.0,4.3429,4.3376,4.3286,4.3394,4.3446,4.3446,4.348,4.3313,4.3057,4.3404,4.3277,4.28,4.1517,4.0875,4.0469,3.9662,3.9074,3.8799,3.9294,3.9074,3.8891,3.968,4.0235,4.0754,4.1458,4.1225,4.0556,3.9653,3.9455,3.9185,3.8354,3.8209,3.8209,3.8209,3.7937,3.7584,3.7131,3.6274,3.5451,3.482,3.4163,3.3666,3.3427,3.2476,3.2036,3.2493,3.2124,3.2056,3.2493,3.2797,3.2831,3.2544,3.2814,3.2814,3.2527,3.2244,3.1736,3.0995,3.0453,2.9616,2.8543,2.8271,2.7959,3.9463,4.1356,4.2448,4.1103,3.8802,3.5989,0.0,0.0,2.7485,2.6249,2.6188,2.6593,2.7411,2.7552,2.7486,2.7242,2.8063,2.9034,2.9873,3.2006,0.0,0.0,0.0,0.0,0.0,0.0,0.0,0.0,0.0,0.0,0.0,4.316,4.3105,4.2957,4.2919,4.2901,4.2901,4.2901,4.2938,4.303,4.303,4.3086,4.316,4.3269,4.3305,4.334,0.0,0.0,0.0,4.3394,4.334,4.3196,4.334,4.3394,4.3412,4.3464,4.348,4.3515,4.3515,4.3515,4.3276,4.1901,4.1279,4.0948,4.0139,3.9331,3.8817,3.9386,3.9313,3.9294,4.0341,4.0972,4.1546,4.2316,4.1956,4.1141,4.0034,3.9783,3.9475,3.8408,3.839,3.848,3.8245,3.8408,3.836,3.7792,3.7059,3.6338,3.5777,3.497,3.4356,3.407,3.3389,3.3068,3.3372,3.2916,3.2848,3.3372,3.3609,3.3626,3.3406,3.3609,3.3626,3.3406,3.3053,3.259,3.2026,3.1056,3.009,2.914,2.8508,2.7993,3.5601,3.8173,3.9953,3.9934,3.7548,3.4618,0.0,0.0,2.6821,2.6145,2.6631,2.743,2.8247,2.8388,2.8134,2.7336,2.7204,0.0,2.8232,3.0465,0.0,0.0,0.0,0.0,0.0,0.0,0.0,0.0,0.0,0.0,0.0,4.3104,4.3104,4.3104,4.2975,4.2901,4.2901,4.2901,4.2901,4.2901,4.2901,4.2975,4.3104,4.3104,4.3142,0.0,0.0,0.0,0.0,4.3428,4.3375,4.3196,4.334,4.3394,4.3394,4.3394,4.3446,4.3515,4.3515,4.3515,4.3369,4.2543,4.1754,4.0948,4.0139,3.9331,3.8707,3.8707,3.9276,4.0249,4.1864,4.2237,4.2353,4.3032,4.3178,4.2686,4.089,4.0581,4.0198,3.8534,3.8826,3.9115,3.8354,3.8844,3.9115,3.8301,3.745,3.6882,3.6882,3.6122,3.5566,3.5583,3.4928,3.4184,3.3457,3.3406,3.3389,3.3406,3.4083,3.4167,3.344,3.41,3.415,3.3423,3.3262,3.3172,3.3098,3.1216,3.0275,3.0149,2.8396,2.7625,3.2642,3.4528,3.5813,3.524,3.3167,3.1047,3.0291,2.8157,2.657,2.7459,2.7834,2.8284,2.9138,2.9288,2.9007,2.8153,2.8022,0.0,0.0,0.0,0.0,0.0,0.0,0.0,0.0,0.0,0.0,0.0,0.0,0.0,0.0,0.0,4.2394,4.2957,4.2919,4.2901,4.2901,4.2901,4.2901,4.2901,4.2901,4.2919,4.2975,4.3049,0.0,0.0,0.0,0.0,0.0,4.3233,4.3178,4.3123,4.3178,4.3196,4.3215,4.3359,4.3394,4.3446,4.348,4.3515,4.3369,4.2561,4.2139,4.168,4.0304,3.9331,3.8817,3.9368,3.9698,4.0251,4.1817,4.2222,4.2372,4.3032,4.316,4.2814,4.1706,4.1434,4.1071,3.9985,3.9985,4.0075,3.9822,3.9985,3.9788,3.8708,3.8307,3.7733,3.6626,3.6241,3.5958,3.5644,3.538,3.5143,3.4906,3.4438,3.437,3.4873,3.5109,3.5143,3.4906,3.5076,3.5071,3.4829,3.4309,3.3749,3.3232,3.1717,3.0267,2.8878,2.8,2.76,2.9816,3.154,3.2691,3.2506,3.0686,0.0,0.0,2.7642,2.6462,2.8078,2.8388,2.8679,2.9532,2.9439,2.9035,2.8482,2.789,2.761,0.0,0.0,0.0,0.0,0.0,0.0,0.0,0.0,0.0,0.0,0.0,0.0,0.0,0.0,4.1922,4.2429,4.2158,4.214,4.2448,4.2448,4.2592,4.2901,4.2901,4.2901,4.2901,4.2994,0.0,0.0,0.0,0.0,0.0,4.3142,4.3142,4.3142,4.3142,4.3142,4.3142,4.3287,4.3323,4.334,4.3375,4.3393,4.3301,4.286,4.251,4.1999,4.0663,3.9742,3.9386,4.0487,4.0545,4.0643,4.2241,4.2372,4.2266,4.2978,4.3105,4.2795,4.2014,4.176,4.1451,4.0655,4.0745,4.0854,4.0546,4.06,4.0235,3.89,3.8435,3.7757,3.645,3.6152,3.5915,3.5644,3.56,3.56,3.56,3.5182,3.5115,3.5566,3.5594,3.5571,3.5571,3.5475,3.5423,3.5423,3.4913,3.4331,3.3647,3.209,3.0426,2.8697,2.8213,2.7839,0.0,2.8869,3.0179,3.1002,2.9566,2.8166,2.8968,2.7548,0.0,2.8078,2.8444,2.8716,2.9476,2.895,2.8397,2.8313,2.7119,0.0,0.0,0.0,0.0,0.0,0.0,0.0,0.0,0.0,0.0,0.0,0.0,0.0,0.0,0.0,4.1614,4.1614,4.0782,4.0782,4.1687,4.1705,4.2103,4.2901,4.2901,4.2901,4.2901,4.2901,0.0,0.0,0.0,0.0,0.0,4.316,4.3178,4.3196,4.3123,4.3142,4.3178,4.3123,4.3142,4.3196,4.3196,4.3214,4.3233,4.334,4.2845,4.2024,4.1226,4.0505,4.0288,4.1847,4.1652,4.1347,4.2956,4.2686,4.2178,4.2904,4.2994,4.2701,4.194,4.1795,4.156,4.0818,4.127,4.1542,4.08,4.0898,4.0572,3.9037,3.8114,3.7262,3.6448,3.5956,3.5667,3.56,3.56,3.5577,3.5577,3.56,3.56,3.56,3.552,3.5492,3.5492,3.5377,3.5291,3.5291,3.5128,3.469,3.4005,3.2243,3.0731,2.9396,2.8897,2.8323,2.3344,0.0,2.5261,2.6127,2.5928,2.5747,0.0,2.6868,2.7204,2.8209,2.8923,0.0,2.8791,2.8583,2.8253,2.758,2.7771,2.8536,0.0,0.0,0.0,0.0,0.0,0.0,0.0,0.0,0.0,0.0,0.0,0.0,0.0,0.0,4.0782,4.0782,3.9441,3.9695,4.1687,4.1705,4.2103,4.2901,4.2901,4.2901,4.2901,4.2901,0.0,0.0,0.0,0.0,4.3086,4.3012,4.3031,4.305,4.2341,4.2431,4.2922,4.2396,4.2614,4.3123,4.3178,4.3214,4.3214,4.3233,4.2703,4.2119,4.2522,4.1682,4.0804,4.179,4.19,4.1956,4.2923,4.3014,4.285,4.292,4.2919,4.2865,4.2647,4.2611,4.2556,4.2357,4.2484,4.2556,4.2357,4.2103,4.149,4.0185,3.953,3.8568,3.6899,3.6593,3.6259,3.5588,3.552,3.5475,3.5383,3.5526,3.5594,3.552,3.5514,3.5446,3.5337,3.5222,3.5152,3.5152,3.4618,3.3568,3.205,3.1619,3.0781,2.9565,2.942,2.9292,2.2057,2.303,2.3974,2.4069,2.4676,2.5378,2.5898,2.633,2.6885,2.7684,2.8246,0.0,0.0,2.7853,2.7815,2.7838,2.8399,0.0,0.0,0.0,0.0,0.0,0.0,0.0,0.0,0.0,0.0,0.0,0.0,0.0,0.0,0.0,4.0149,3.9985,3.8616,3.876,4.0637,4.0655,4.1234,4.2339,4.1977,4.1995,4.2339,4.1977,0.0,0.0,0.0,0.0,4.2486,4.2793,4.2975,4.305,4.254,4.2594,4.2939,4.2577,4.2686,4.3012,4.305,4.3105,4.3142,4.3068,4.2796,4.2577,4.2941,4.245,4.1868,4.2395,4.2541,4.2614,4.2995,4.3049,4.2994,4.2919,4.2901,4.2901,4.2901,4.2901,4.2901,4.2901,4.2731,4.2595,4.2595,4.1994,4.1231,4.0219,3.9681,3.8764,3.7005,3.6749,3.6409,3.5599,3.5446,3.5377,3.5314,3.5389,3.5452,3.5423,3.5337,3.5291,3.5222,3.5065,3.4994,3.4994,3.4143,3.3342,3.2641,3.1844,3.1086,3.0406,3.0135,2.9849,2.1784,2.3347,2.4555,2.3794,2.4671,2.5766,2.5965,2.6,2.6188,2.6875,2.7163,0.0,0.0,2.705,0.0,0.0,0.0,0.0,0.0,0.0,0.0,0.0,0.0,0.0,0.0,0.0,0.0,0.0,0.0,0.0,0.0,0.0,0.0,3.9211,3.8097,3.8026,3.9101,3.9297,4.0111,4.1506,4.0836,4.0854,4.1488,4.08,4.0492,0.0,0.0,0.0,4.1759,4.2574,4.2975,4.3068,4.2922,4.2958,4.3049,4.2922,4.2885,4.2901,4.2901,4.2975,4.3049,4.2938,4.2975,4.3049,4.2938,4.2901,4.2938,4.3105,4.3105,4.3067,4.3067,4.2994,4.2901,4.2901,4.2901,4.2901,4.2901,4.2901,4.2882,4.2806,4.2458,4.2177,4.2115,4.1366,4.0595,3.9957,3.9464,3.8667,3.7273,3.7017,3.6636,3.5866,3.5666,3.5596,3.5579,3.5556,3.5556,3.5556,3.5268,3.5088,3.5065,3.497,3.4875,3.478,3.3834,3.3501,3.3832,3.237,3.1566,3.1401,3.088,3.0372,2.0889,2.3182,2.5227,2.4634,2.4687,2.5075,2.5823,2.6,2.6046,2.6164,2.6774,0.0,0.0,2.6614,2.7065,0.0,0.0,0.0,0.0,0.0,0.0,0.0,0.0,0.0,0.0,0.0,0.0,0.0,0.0,0.0,0.0,0.0,0.0,3.8296,3.7786,3.7595,3.7792,3.885,3.9822,4.0673,4.0546,4.0564,4.0673,4.0546,4.0492,0.0,0.0,4.1705,4.1759,4.2574,4.2901,4.2865,4.2176,4.2321,4.2865,4.2176,4.2321,4.2901,4.2901,4.2901,4.2938,4.2919,4.2901,4.2938,4.2919,4.2901,4.2901,4.2957,4.2938,4.2938,4.2938,4.2919,4.2901,4.2901,4.2901,4.2901,4.2901,4.2901,4.2769,4.2378,4.2239,4.2074,4.1696,4.1162,4.0767,4.0647,4.0231,3.9589,3.8613,3.8487,3.8086,3.7144,3.7011,3.6962,3.6821,3.6821,3.6821,3.6821,3.574,3.5041,3.4947,3.4923,3.4691,3.4226,3.4034,3.3533,3.2656,3.2398,3.199,3.1489,3.1404,3.1301,2.0683,2.1969,2.3514,2.5372,2.6757,2.7675,2.7677,2.7687,2.7447,2.6642,0.0,0.0,0.0,0.0,2.9041,0.0,0.0,0.0,0.0,0.0,0.0,0.0,0.0,0.0,0.0,0.0,0.0,0.0,0.0,0.0,0.0,0.0,0.0,0.0,3.7073,3.7075,3.7505,3.808,3.8887,3.9894,3.946,3.9478,3.9894,3.946,3.926,3.9297,0.0,4.0456,4.0564,4.1759,4.2248,4.2266,4.2321,4.2574,4.2846,4.2484,4.2574,4.2901,4.2901,4.2901,4.2901,4.2901,4.2901,4.2901,4.2901,4.2901,4.2901,4.2901,4.2901,4.2901,4.2901,4.2901,4.2901,4.2901,4.2901,4.2825,4.2595,4.2518,4.2378,4.1909,4.1609,4.1366,4.1162,4.0731,4.0427,4.0427,4.0246,3.9817,3.9015,3.8782,3.8371,3.7511,3.7278,3.7169,3.7119,3.7102,3.6936,3.6539,3.5925,3.5385,3.4916,3.4618,3.4349,3.4101,3.3497,3.2926,3.2398,3.2064,3.1768,3.1511,3.1511,3.1511,2.0683,2.1199,2.2301,2.5709,2.7571,2.8714,2.9266,2.8935,2.8315,2.7583,0.0,0.0,0.0,2.7411,0.0,0.0,0.0,0.0,0.0,0.0,0.0,0.0,0.0,0.0,0.0,0.0,0.0,0.0,0.0,0.0,0.0,0.0,0.0,0.0,3.6236,3.6423,3.7209,3.7321,3.7954,3.9097,3.8499,3.8517,3.9115,3.848,3.8209,3.8245,3.906,3.9387,3.9496,4.0854,4.1524,4.1759,4.2375,4.2719,4.2901,4.2901,4.2901,4.2901,4.2901,4.2901,4.2901,4.2901,4.2901,4.2901,4.2901,4.2901,4.2901,4.2901,4.2901,4.2901,4.2901,4.2901,4.2901,4.2901,4.2825,4.2634,4.2297,4.2115,4.1888,4.1432,4.1065,4.0754,4.0676,4.0353,4.0096,4.0096,4.0096,3.9868,3.9235,3.8967,3.8614,3.7995,3.7743,3.7548,3.7402,3.7246,3.6856,3.6118,3.5884,3.5465,3.4759,3.419,3.3832,3.3688,3.2846,3.2342,3.2176,3.1726,3.1511,3.1511,3.1511,3.1511,2.0662,2.1905,2.3392,2.5298,2.4786,2.4929,2.923,2.8489,2.7263,2.865,0.0,0.0,0.0,0.0,0.0,0.0,0.0,0.0,0.0,0.0,0.0,0.0,0.0,0.0,0.0,0.0,0.0,0.0,0.0,0.0,0.0,0.0,0.0,0.0,0.0,3.5638,3.6388,3.6759,3.7393,3.8299,3.8227,3.8227,3.8281,3.8227,3.8209,3.8245,3.906,3.9387,3.946,4.0274,4.1035,4.1705,4.1759,4.2248,4.2901,4.2901,4.2901,4.2901,4.2901,4.2901,4.2901,4.2901,4.2901,4.2901,4.2901,4.2901,4.2901,4.2901,4.2901,4.2901,4.2901,4.2901,4.2901,4.2901,4.2575,4.2239,4.2198,4.1867,4.141,4.0926,4.0825,4.0676,4.0221,4.0121,4.0096,4.0096,4.0096,3.9978,3.9688,3.962,3.9499,3.9203,3.9149,3.8902,3.8288,3.7706,3.7044,3.6349,3.5583,3.488,3.4275,3.3615,3.3029,3.252,3.2437,3.212,3.1553,3.1524,3.1511,3.1511,3.1511,3.1511,2.0699,2.1641,2.294,2.5158,2.4798,2.5153,2.9848,3.0601,3.0332,3.0448,3.0858,0.0,0.0,0.0,0.0,0.0,0.0,0.0,0.0,0.0,0.0,0.0,0.0,0.0,0.0,0.0,0.0,0.0,0.0,0.0,0.0,0.0,0.0,0.0,0.0,3.4572,3.5597,3.5781,3.6484,3.7756,3.7756,3.7933,3.8209,3.8209,3.8209,3.8227,3.8517,3.8662,3.8699,3.9496,4.0003,4.0365,4.1325,4.2194,4.2901,4.2901,4.2901,4.2901,4.2901,4.2901,4.2901,4.2901,4.2901,4.2901,4.2901,4.2901,4.2844,4.2555,4.2458,4.2518,4.2825,4.2901,4.2901,4.2901,4.2537,4.2115,4.1825,4.141,4.0926,4.0458,4.0377,4.0303,4.0121,4.0096,4.0096,4.0096,4.0037,3.9935,3.9849,3.9694,3.9388,3.8854,3.8395,3.8026,3.7764,3.7531,3.7111,3.6396,3.6032,3.534,3.425,3.3638,3.302,3.2398,3.2035,3.1726,3.1511,3.1511,3.1511,3.1511,3.1511,3.1511,2.0275,2.0818,2.1852,2.4549,2.4782,2.5568,3.0235,3.1539,3.1861,3.2269,3.2383,3.2106,3.1138,0.0,0.0,0.0,0.0,0.0,0.0,0.0,0.0,0.0,0.0,0.0,0.0,0.0,0.0,0.0,0.0,0.0,0.0,0.0,0.0,0.0,0.0,0.0,3.532,3.5246,3.5911,3.7321,3.745,3.7756,3.8209,3.8209,3.8209,3.8209,3.8209,3.8209,3.8245,3.879,3.9315,3.9876,4.118,4.21,4.2673,4.2673,4.2595,4.2478,4.2634,4.2577,4.2518,4.2788,4.2806,4.2673,4.2673,4.2673,4.2577,4.2098,4.1973,4.2056,4.238,4.2458,4.2458,4.2458,4.2098,4.1674,4.1366,4.0902,4.0483,4.0171,4.0096,4.0096,4.0096,4.0096,4.0087,4.0037,3.9961,3.9875,3.9772,3.9616,3.9228,3.8518,3.7618,3.7071,3.7071,3.6906,3.6616,3.6133,3.606,3.5528,3.4335,3.3742,3.3127,3.2455,3.2027,3.1705,3.1511,3.1511,3.1511,3.1511,3.1511,3.1511,1.9387,1.9475,2.0304,2.3418,2.4375,2.5736,3.0277,3.0692,3.0976,3.3999,3.3339,3.2336,3.2741,0.0,0.0,0.0,0.0,0.0,0.0,0.0,0.0,0.0,0.0,0.0,0.0,0.0,0.0,0.0,0.0,0.0,0.0,0.0,0.0,0.0,0.0,0.0,3.5549,3.5338,3.5772,3.6902,3.7321,3.7756,3.8209,3.8209,3.8209,3.8209,3.8209,3.8209,3.8192,3.8192,3.908,4.0564,4.1343,4.1893,4.2177,4.2198,4.1888,4.1569,4.2032,4.1888,4.1656,4.2577,4.2557,4.2198,4.2198,4.2198,4.2095,4.163,4.1481,4.1481,4.1481,4.1481,4.1481,4.1503,4.1139,4.0802,4.0802,4.041,4.0096,4.0096,4.0096,4.0096,4.0096,4.0096,4.0062,3.9926,3.9901,3.9798,3.9528,3.9475,3.9175,3.8379,3.7161,3.6399,3.6399,3.5846,3.5504,3.5504,3.5504,3.519,3.4533,3.3844,3.32,3.2512,3.2497,3.2168,3.1511,3.1511,3.1511,3.1511,3.1511,3.1511,1.9738,2.1291,2.3125,2.4219,0.0,0.0,3.0741,3.1558,3.2465,0.0,3.4801,3.3929,3.2978,0.0,0.0,0.0,0.0,0.0,0.0,0.0,0.0,0.0,0.0,0.0,0.0,0.0,0.0,0.0,0.0,0.0,0.0,0.0,0.0,0.0,0.0,0.0,3.3705,3.4432,3.5338,3.6486,3.7183,3.7756,3.8209,3.8209,3.8209,3.8209,3.8209,3.802,3.7703,3.7394,3.7887,3.888,3.966,4.0359,4.0997,4.1523,4.1613,4.1525,4.1656,4.163,4.1547,4.1807,4.1807,4.1717,4.1717,4.1717,4.1609,4.1139,4.1019,4.0926,4.0611,4.0531,4.0666,4.1326,4.1139,4.0802,4.0802,4.041,4.0096,4.0096,4.0096,4.0096,4.0096,4.0096,4.0087,4.0062,3.948,3.8805,3.8124,3.7605,3.7221,3.6981,3.6258,3.5765,3.5765,3.5587,3.5504,3.5504,3.5504,3.519,3.4533,3.4324,3.3873,3.3215,3.32,3.2886,3.2183,3.2183,3.1959,3.1511,3.1511,3.1511,2.0261,2.2058,2.4034,2.573,2.7769,2.982,3.1714,0.0,0.0,0.0,0.0,3.5296,0.0,0.0,0.0,0.0,0.0,0.0,0.0,0.0,0.0,0.0,0.0,0.0,0.0,0.0,0.0,0.0,0.0,0.0,0.0,0.0,0.0,0.0,0.0,0.0,3.351,3.4074,3.5013,3.631,3.6986,3.7626,3.8209,3.8209,3.8209,3.8192,3.7984,3.7667,3.7246,3.6997,3.7376,3.8151,3.8588,3.9326,4.0167,4.062,4.0856,4.0955,4.1162,4.1094,4.1001,4.137,4.137,4.123,4.123,4.123,4.1116,4.0659,4.0507,4.0476,4.0171,4.0096,4.0229,4.0808,4.0731,4.0507,4.0507,4.0303,4.0096,4.0096,4.0096,4.0096,4.0096,3.9918,3.9696,3.9558,3.8761,3.8007,3.7488,3.6799,3.6399,3.6399,3.5846,3.5504,3.5504,3.5504,3.5504,3.5504,3.5504,3.5325,3.4906,3.4891,3.4562,3.3903,3.3888,3.3559,3.2901,3.2901,3.2557,3.1899,3.1899,3.175,2.1007,2.2361,2.3951,2.7705,2.9479,0.0,3.3024,3.4612,3.5928,3.697,0.0,0.0,0.0,0.0,0.0,0.0,0.0,0.0,0.0,0.0,0.0,0.0,0.0,0.0,0.0,0.0,0.0,0.0,0.0,0.0,0.0,0.0,0.0,0.0,0.0,0.0,3.4318,3.4213,3.4862,0.0,3.683,3.7502,3.8209,3.8209,3.8192,3.8106,3.765,3.7227,3.6841,3.6801,3.7221,3.7889,3.7959,3.8629,3.9543,3.9594,3.9826,4.0171,4.0604,4.0476,4.0229,4.1094,4.1071,4.0731,4.0731,4.0731,4.0652,4.0221,4.0096,4.0096,4.0096,4.0096,4.0096,4.0096,4.0096,4.0096,4.0096,4.0096,4.007,4.002,4.002,3.9995,3.9944,3.947,3.8957,3.858,3.7819,3.731,3.7251,3.6692,3.6321,3.6321,3.5829,3.5504,3.5504,3.5504,3.5504,3.5504,3.5504,3.5504,3.5504,3.5504,3.5205,3.4608,3.4593,3.4279,3.3589,3.3589,3.3245,3.2602,3.2602,3.2228,2.2404,2.4671,0.0,2.915,3.1202,3.2966,3.4081,3.4369,3.4446,3.4702,0.0,0.0,0.0,0.0,0.0,0.0,0.0,0.0,0.0,0.0,0.0,0.0,0.0,0.0,0.0,0.0,0.0,0.0,0.0,0.0,0.0,0.0,0.0,0.0,0.0,3.2492,3.3164,3.4648,3.5582,0.0,3.729,3.8028,3.8209,3.8209,3.7984,3.7632,3.7208,3.6801,3.6409,3.6028,3.5978,3.6205,3.6819,3.7552,3.836,3.8938,3.9544,4.0121,4.0221,4.0196,4.0121,4.0353,4.0328,4.0254,4.0254,4.0254,4.0246,4.0121,4.0096,4.0096,4.0096,4.0096,4.0096,4.0096,4.0096,4.0096,4.0096,4.0096,3.9969,3.9487,3.9391,3.9242,3.8767,3.8458,3.7975,3.7188,3.6904,3.6569,3.599,3.5765,3.5668,3.5668,3.5602,3.5504,3.5504,3.5504,3.5504,3.5504,3.5504,3.5504,3.5504,3.5504,3.5429,3.5295,3.528,3.4951,3.4294,3.4294,3.3918,3.3275,3.3275,3.2931,2.229,2.4987,0.0,3.0846,0.0,3.352,3.3936,3.3854,3.3663,3.3486,0.0,0.0,0.0,0.0,0.0,0.0,0.0,0.0,0.0,0.0,0.0,0.0,0.0,0.0,0.0,0.0,0.0,0.0,0.0,0.0,0.0,0.0,0.0,0.0,3.2536,3.2716,3.3083,3.4514,3.5406,3.5804,3.7033,3.7828,3.8209,3.8209,3.7827,3.7208,3.6997,3.6539,3.5937,3.5694,3.56,3.5633,3.6062,3.6907,3.7956,3.8328,3.8937,3.9622,3.9977,3.9876,3.9639,3.9994,4.0096,4.0096,4.0096,4.0096,4.0096,4.0096,4.0096,4.0096,4.0096,3.9893,3.967,3.967,3.9893,4.0096,4.0096,3.9876,3.9592,3.9259,3.8974,3.8657,3.8234,3.7687,3.7068,3.6291,3.6102,3.5911,3.5554,3.5504,3.5504,3.5504,3.5504,3.5504,3.5504,3.5504,3.5504,3.5504,3.5504,3.5504,3.5504,3.5504,3.5504,3.5504,3.5504,3.5325,3.4966,3.4966,3.4622,3.3994,3.3994,3.3619,2.145,2.4533,2.7773,3.2103,3.3302,0.0,3.3393,3.324,3.2994,0.0,0.0,0.0,0.0,0.0,0.0,0.0,0.0,0.0,0.0,0.0,0.0,0.0,0.0,0.0,0.0,0.0,0.0,0.0,0.0,0.0,0.0,0.0,3.2939,3.3286,3.2972,3.2988,3.3411,3.4208,3.4917,3.5605,3.6399,3.7285,3.8191,3.7978,3.7506,3.69,3.6821,3.635,3.56,3.56,3.56,3.56,3.56,3.6529,3.7905,3.7905,3.8447,3.9276,3.9893,3.9706,3.9276,3.991,4.0096,4.0096,4.0096,4.0096,4.0096,4.0096,4.002,3.9927,3.9927,3.9497,3.9055,3.9055,3.9444,3.9799,3.9799,3.9391,3.9001,3.8849,3.8334,3.7835,3.7658,3.6948,3.6259,3.5752,3.5572,3.5504,3.5504,3.5504,3.5504,3.5504,3.5504,3.5504,3.5504,3.5504,3.5504,3.5504,3.5504,3.5504,3.5504,3.5504,3.5504,3.5504,3.5504,3.5504,3.5504,3.5504,3.5205,3.4651,3.4651,3.4292,2.0415,0.0,2.9089,0.0,3.2886,3.3393,0.0,0.0,0.0,0.0,0.0,0.0,0.0,0.0,0.0,0.0,0.0,0.0,0.0,0.0,0.0,0.0,0.0,0.0,0.0,0.0,0.0,0.0,0.0,0.0,0.0,3.2779,3.2811,3.2876,3.2844,3.2988,3.3411,3.4208,3.4661,3.4769,3.5569,3.6743,3.8156,3.7056,3.6664,3.688,3.6516,3.6071,3.56,3.56,3.56,3.56,3.56,3.6529,3.7905,3.7905,3.8768,3.9977,4.0079,4.0045,3.9977,4.0079,4.0096,4.0096,4.0096,4.0096,4.0096,4.0096,3.9722,3.9312,3.9312,3.8876,3.8435,3.8435,3.8474,3.853,3.853,3.849,3.8222,3.7531,3.6814,3.6258,3.6039,3.5881,3.5752,3.5554,3.5504,3.5504,3.5504,3.5504,3.5504,3.5504,3.5504,3.5504,3.5504,3.5504,3.5504,3.5504,3.5504,3.5504,3.5504,3.5504,3.5504,3.5504,3.5504,3.5504,3.5504,3.5504,3.5459,3.537,3.537,3.4996,2.1615,2.5007,2.822,0.0,3.2469,3.285,3.3302,0.0,0.0,0.0,0.0,0.0,0.0,0.0,0.0,0.0,0.0,0.0,0.0,0.0,0.0,0.0,0.0,0.0,0.0,0.0,0.0,0.0,0.0,0.0,3.2518,3.2699,3.2908,3.3114,3.2908,3.2988,3.3411,3.4208,3.5059,3.5946,3.629,3.7069,3.8174,3.7112,3.672,3.688,3.6471,3.6045,3.56,3.56,3.56,3.56,3.56,3.6299,3.728,3.728,3.7692,3.8369,3.9199,3.9208,3.8988,3.9842,4.0096,4.0096,4.0096,4.0096,4.002,3.9696,3.9391,3.9109,3.8767,3.8238,3.7796,3.7796,3.7533,3.7266,3.7131,3.7383,3.7383,3.6631,3.6133,3.5799,3.572,3.5638,3.5572,3.5504,3.5504,3.5504,3.5504,3.5504,3.5504,3.5504,3.5504,3.5504,3.5504,3.5504,3.5504,3.5504,3.5504,3.5504,3.5504,3.5504,3.5504,3.5504,3.5504,3.5504,3.5504,3.5504,3.5504,3.5504,3.5504,3.534,0.0,0.0,2.5879,2.9766,3.117,3.1813,0.0,0.0,0.0,0.0,0.0,0.0,0.0,0.0,0.0,0.0,0.0,0.0,0.0,0.0,0.0,0.0,0.0,0.0,0.0,0.0,0.0,0.0,0.0,0.0,3.2436,3.2584,3.2844,3.3241,3.2972,3.2939,3.3238,3.3946,3.5005,3.6397,3.6397,3.6874,3.7678,3.6944,3.6648,3.6721,3.6305,3.5915,3.56,3.56,3.56,3.56,3.56,3.6096,3.6795,3.6795,3.6931,3.7252,3.8328,3.8481,3.8362,3.9469,3.996,4.0096,4.0096,3.9995,3.9773,3.9339,3.8974,3.8645,3.8181,3.7621,3.7178,3.7178,3.68,3.6383,3.6242,3.6492,3.6585,3.6022,3.5767,3.5638,3.5638,3.5587,3.5504,3.5504,3.5504,3.5504,3.5504,3.5504,3.5504,3.5504,3.5504,3.5504,3.5504,3.5504,3.5504,3.5504,3.5504,3.5504,3.5504,3.5504,3.5504,3.5504,3.5504,3.5504,3.5504,3.5504,3.5504,3.5504,3.5504,3.5504,0.0,1.9814,0.0,2.5751,2.8367,0.0,0.0,0.0,0.0,0.0,0.0,0.0,0.0,0.0,0.0,0.0,0.0,0.0,0.0,0.0,0.0,0.0,0.0,0.0,0.0,0.0,0.0,0.0,0.0,0.0,3.2731,3.2485,3.2468,3.2829,3.2811,3.2811,3.2827,3.3262,3.39,3.4718,3.4718,3.5303,3.6381,3.5963,3.5981,3.6322,3.5827,3.5622,3.56,3.56,3.56,3.56,3.56,3.6096,3.6795,3.6795,3.7229,3.7855,3.7939,3.8396,3.8954,3.9022,3.9537,4.0096,4.0096,3.9696,3.9232,3.9206,3.8367,3.7506,3.7431,3.7013,3.6554,3.6554,3.6383,3.6211,3.6196,3.5975,3.5752,3.572,3.5589,3.5504,3.5504,3.5504,3.5504,3.5504,3.5504,3.5504,3.5504,3.5504,3.5504,3.5504,3.5504,3.5504,3.5504,3.5504,3.5504,3.5504,3.5504,3.5504,3.5504,3.5504,3.5504,3.5504,3.5504,3.5504,3.5504,3.5504,3.5504,3.5504,3.5504,3.5504,0.0,0.0,0.0,2.476,2.6684,2.7978,0.0,0.0,0.0,0.0,0.0,0.0,0.0,0.0,0.0,0.0,0.0,0.0,0.0,0.0,0.0,0.0,0.0,0.0,0.0,0.0,0.0,0.0,0.0,0.0,3.2092,3.2435,3.2568,3.2468,3.2682,3.2923,3.3178,3.3334,3.3668,3.4221,3.469,3.5293,3.5983,3.6053,3.617,3.628,3.5805,3.56,3.56,3.56,3.56,3.56,3.56,3.5769,3.6028,3.6028,3.6214,3.6495,3.7009,3.7669,3.8379,3.8853,3.9503,4.0096,4.0096,3.9944,3.9601,3.8849,3.8322,3.7796,3.7028,3.6662,3.646,3.6352,3.6195,3.6022,3.5911,3.5784,3.5655,3.5604,3.5522,3.5504,3.5504,3.5504,3.5504,3.5504,3.5504,3.5504,3.5504,3.5504,3.5504,3.5504,3.5504,3.5504,3.5504,3.5504,3.5504,3.5504,3.5504,3.5504,3.5504,3.5504,3.5504,3.5504,3.5504,3.5504,3.5504,3.5504,3.5504,3.5504,3.5504,3.5504,1.7683,0.0,0.0,0.0,0.0,2.5403,0.0,0.0,0.0,0.0,0.0,0.0,0.0,0.0,0.0,0.0,0.0,0.0,0.0,0.0,0.0,0.0,0.0,0.0,0.0,0.0,0.0,0.0,0.0,0.0,3.1714,3.2162,3.2401,3.23,3.2384,3.2617,3.3039,3.3039,3.3162,3.3433,3.4463,3.5011,3.5215,3.5959,3.6216,3.6045,3.5734,3.56,3.56,3.56,3.56,3.56,3.56,3.56,3.56,3.56,3.56,3.5667,3.6214,3.706,3.799,3.8464,3.9317,4.0045,3.985,3.9653,3.9295,3.8294,3.7838,3.7504,3.6616,3.6383,3.6352,3.6179,3.6053,3.5941,3.5752,3.5688,3.5671,3.5537,3.5504,3.5504,3.5504,3.5504,3.5504,3.5504,3.5504,3.5504,3.5504,3.5504,3.5504,3.5504,3.5246,3.5213,3.5472,3.5246,3.5198,3.5472,3.5504,3.5504,3.5504,3.5504,3.5504,3.5504,3.5504,3.5504,3.5504,3.5504,3.5504,3.5504,3.5504,3.5504,0.0,0.0,0.0,0.0,0.0,0.0,0.0,0.0,0.0,0.0,0.0,0.0,0.0,0.0,0.0,0.0,0.0,0.0,0.0,0.0,0.0,0.0,0.0,0.0,0.0,0.0,0.0,0.0,0.0,3.1351,3.1675,3.1694,3.1878,3.2283,3.1914,3.1896,3.23,3.23,3.2318,3.2335,3.3862,3.4373,3.4068,3.5587,3.6023,3.56,3.56,3.56,3.56,3.56,3.56,3.56,3.56,3.56,3.56,3.56,3.56,3.56,3.56,3.6597,3.7872,3.7872,3.8853,3.9961,3.9358,3.8778,3.821,3.7578,3.6983,3.6492,3.6274,3.6196,3.6179,3.6037,3.6005,3.5941,3.572,3.5688,3.5671,3.5537,3.5504,3.5504,3.5504,3.5504,3.5504,3.5472,3.5472,3.5472,3.5424,3.5439,3.5439,3.5439,3.4725,3.4576,3.5359,3.4725,3.461,3.5392,3.5472,3.5472,3.5504,3.5504,3.5504,3.5504,3.5504,3.5504,3.5504,3.5504,3.5504,3.5504,3.5504,3.5504,1.5855,0.0,0.0,0.0,0.0,0.0,0.0,0.0,0.0,0.0,0.0,0.0,0.0,0.0,0.0,0.0,0.0,0.0,0.0,0.0,0.0,0.0,0.0,0.0,0.0,0.0,0.0,0.0,3.1428,3.1487,3.1349,3.1349,3.162,3.2283,3.1914,3.1896,3.23,3.23,3.2459,3.2744,3.3713,3.4238,3.4389,3.5358,3.5717,3.56,3.56,3.56,3.56,3.56,3.56,3.56,3.56,3.56,3.56,3.56,3.56,3.56,3.56,3.6265,3.7117,3.7117,3.8091,3.9176,3.8593,3.8669,3.8728,3.7695,3.7268,3.7043,3.6523,3.6305,3.6179,3.6037,3.6005,3.591,3.5604,3.5621,3.5671,3.5537,3.5504,3.5504,3.5504,3.5504,3.5311,3.4725,3.4643,3.4442,3.3885,3.3831,3.3831,3.3831,3.3644,3.3596,3.3831,3.363,3.3837,3.4576,3.4643,3.4905,3.5472,3.5504,3.5504,3.5504,3.5504,3.5504,3.5504,3.5504,3.5504,3.5504,3.5504,3.5504,0.0,0.0,0.0,0.0,0.0,0.0,0.0,2.3969,0.0,0.0,0.0,0.0,0.0,0.0,0.0,0.0,0.0,0.0,0.0,0.0,0.0,0.0,0.0,0.0,0.0,0.0,0.0,0.0,3.137,3.1468,3.1408,3.156,3.1927,3.2526,3.245,3.2372,3.2308,3.2601,3.2729,3.2669,3.371,3.4316,3.4523,3.5245,3.56,3.56,3.56,3.56,3.56,3.56,3.56,3.56,3.56,3.56,3.56,3.56,3.56,3.56,3.56,3.6129,3.6795,3.6795,3.7811,3.8823,3.7965,3.8236,3.8574,3.7371,3.6967,3.6815,3.6461,3.6258,3.6085,3.6037,3.5941,3.5799,3.5636,3.5589,3.5589,3.5537,3.5504,3.5504,3.5504,3.5504,3.5246,3.4428,3.4312,3.4027,3.3283,3.3178,3.3178,3.3178,3.2932,3.2861,3.3178,3.2932,3.3073,3.3788,3.3837,3.4192,3.4986,3.4986,3.5166,3.5504,3.5504,3.5504,3.5504,3.5504,3.5504,3.5504,3.5504,3.5504,0.0,0.0,0.0,0.0,0.0,0.0,2.3142,2.3807,2.4496,0.0,0.0,0.0,0.0,0.0,0.0,0.0,0.0,0.0,0.0,0.0,0.0,0.0,0.0,0.0,0.0,0.0,3.1269,3.1269,3.123,3.1329,3.1638,3.2049,3.2454,3.2827,3.3206,3.3085,3.2429,3.3068,3.3102,3.2564,3.3884,3.4539,3.4641,3.5295,3.56,3.56,3.56,3.56,3.56,3.56,3.56,3.56,3.56,3.56,3.56,3.56,3.56,3.56,3.56,3.6079,3.6694,3.6778,3.7696,3.8581,3.7524,3.7672,3.7953,3.6831,3.6383,3.6242,3.6242,3.6116,3.6037,3.6005,3.5863,3.5688,3.5688,3.5572,3.5504,3.5504,3.5504,3.5504,3.5504,3.5504,3.5246,3.4428,3.4245,3.3891,3.3178,3.3017,3.2946,3.2946,3.2376,3.2232,3.2911,3.234,3.2304,3.3038,3.3073,3.3457,3.4279,3.4312,3.4677,3.5472,3.5504,3.5504,3.5504,3.5504,3.5504,3.5504,3.5504,3.5504,0.0,0.0,0.0,0.0,0.0,0.0,2.0696,2.0747,2.1155,0.0,0.0,0.0,0.0,0.0,0.0,0.0,0.0,0.0,0.0,0.0,0.0,0.0,0.0,0.0,0.0,0.0,3.1601,3.1601,3.1351,3.123,3.1291,3.1927,3.2334,3.2414,3.3059,3.3339,3.3186,3.3339,3.3626,3.4066,3.4353,3.481,3.538,3.5532,3.56,3.56,3.56,3.56,3.56,3.56,3.56,3.56,3.56,3.56,3.56,3.56,3.56,3.56,3.56,3.5701,3.5943,3.6592,3.7062,3.7367,3.7243,3.7395,3.7431,3.6693,3.646,3.6445,3.6445,3.632,3.6148,3.6037,3.5863,3.5671,3.5554,3.5537,3.5504,3.5504,3.5504,3.5504,3.5504,3.5504,3.5246,3.4428,3.3788,3.3143,3.2398,3.1786,3.1445,3.1445,3.1296,3.1259,3.1408,3.1296,3.1542,3.2268,3.229,3.2918,3.423,3.4312,3.4677,3.5472,3.5504,3.5504,3.5504,3.5504,3.5504,3.5504,3.5504,3.5504,0.0,0.0,0.0,2.1297,0.0,0.0,0.0,2.1739,2.1977,0.0,0.0,0.0,0.0,0.0,0.0,0.0,0.0,0.0,0.0,0.0,0.0,0.0,0.0,0.0,0.0,0.0,3.1638,3.1449,3.1291,3.119,3.119,3.2239,3.2848,3.2848,3.3931,3.4315,3.3947,3.432,3.4506,3.4489,3.4878,3.525,3.56,3.56,3.56,3.56,3.56,3.56,3.56,3.56,3.56,3.56,3.56,3.56,3.56,3.56,3.56,3.565,3.6062,3.5996,3.588,3.664,3.6986,3.7057,3.6825,3.6848,3.6892,3.6585,3.6414,3.6352,3.6352,3.6148,3.5943,3.5863,3.5718,3.5572,3.5504,3.5504,3.5504,3.5504,3.5504,3.5504,3.5504,3.5504,3.5246,3.4428,3.4007,3.3339,3.2254,3.1773,3.1394,3.1061,3.0986,3.0986,3.0986,3.0986,3.1161,3.1529,3.1529,3.2196,3.3699,3.3768,3.4308,3.5472,3.5504,3.5504,3.5504,3.5504,3.5504,3.5504,3.5504,3.5504,0.0,0.0,0.0,0.0,0.0,2.2966,0.0,0.0,0.0,0.0,0.0,0.0,0.0,0.0,0.0,0.0,0.0,0.0,0.0,0.0,0.0,0.0,0.0,0.0,0.0,0.0,3.144,3.1312,3.1038,3.0966,3.1193,3.2611,3.3406,3.3406,3.4822,3.5295,3.4726,3.5295,3.5295,3.4726,3.5312,3.56,3.56,3.56,3.56,3.56,3.56,3.56,3.56,3.56,3.56,3.56,3.56,3.56,3.5616,3.5769,3.5751,3.5784,3.6565,3.6443,3.6066,3.6799,3.7112,3.7118,3.6535,3.641,3.6492,3.6492,3.6352,3.6196,3.6196,3.5975,3.5752,3.572,3.5621,3.5522,3.5504,3.5504,3.5504,3.5504,3.5504,3.5504,3.5504,3.5504,3.5279,3.4643,3.438,3.3856,3.267,3.229,3.1882,3.1259,3.1086,3.0986,3.0986,3.0986,3.0986,3.0986,3.0986,3.1616,3.2932,3.3248,3.3988,3.5246,3.5279,3.5213,3.5082,3.5082,3.5213,3.5504,3.5504,3.5504,0.0,0.0,0.0,0.0,2.3727,0.0,0.0,0.0,0.0,0.0,0.0,0.0,0.0,0.0,0.0,0.0,0.0,0.0,0.0,0.0,0.0,0.0,0.0,0.0,0.0,0.0,0.0,3.1609,3.0419,3.0122,3.1142,3.2611,3.3406,3.3406,3.4822,3.5549,3.5481,3.5549,3.5549,3.5481,3.5549,3.56,3.56,3.56,3.56,3.56,3.56,3.56,3.56,3.56,3.56,3.56,3.56,3.56,3.5684,3.64,3.6333,3.5967,3.6721,3.6582,3.62,3.6956,3.7279,3.7261,3.6661,3.6492,3.6492,3.6492,3.6352,3.6196,3.6196,3.6085,3.5926,3.5752,3.5688,3.5638,3.5537,3.5504,3.5504,3.5504,3.5504,3.5504,3.5504,3.5504,3.5472,3.5392,3.4758,3.423,3.4061,3.2918,3.2087,3.1978,3.1394,3.0986,3.0986,3.0986,3.0986,3.0986,3.0986,3.1371,3.2182,3.3478,3.4245,3.4428,3.4428,3.4109,3.3471,3.3471,3.4153,3.5504,3.5504,3.5504,0.0,0.0,0.0,0.0,0.0,0.0,0.0,0.0,2.2479,0.0,0.0,0.0,0.0,0.0,0.0,0.0,0.0,0.0,0.0,0.0,0.0,0.0,0.0,0.0,0.0,0.0,0.0,0.0,0.0,3.0176,3.1755,3.2831,3.3609,3.4015,3.5042,3.56,3.56,3.56,3.56,3.56,3.56,3.56,3.56,3.56,3.56,3.56,3.56,3.56,3.5633,3.6096,3.6299,3.6332,3.6772,3.6671,3.6383,3.7161,3.729,3.7133,3.7518,3.7242,3.6754,3.6796,3.6823,3.6831,3.6585,3.6492,3.6492,3.6492,3.6352,3.6196,3.6196,3.6085,3.5941,3.5752,3.5688,3.5671,3.5522,3.5504,3.5504,3.5504,3.5504,3.5504,3.5504,3.5504,3.5504,3.5504,3.5198,3.4658,3.3768,3.3108,3.2412,3.1529,3.1198,3.0986,3.0986,3.0986,3.0986,3.0986,3.1394,3.1773,3.2074,3.3108,3.3665,3.3665,3.3665,3.3526,3.3178,3.3178,3.3541,3.4187,3.4187,3.4375,2.5939,0.0,0.0,0.0,0.0,0.0,0.0,0.0,0.0,0.0,0.0,0.0,0.0,0.0,0.0,0.0,0.0,0.0,0.0,0.0,0.0,0.0,0.0,0.0,0.0,0.0,0.0,0.0,2.9674,2.9765,3.2161,3.3,3.3744,3.4472,3.5211,3.56,3.56,3.56,3.56,3.56,3.56,3.56,3.56,3.56,3.5718,3.5943,3.5943,3.6039,3.6276,3.6857,3.7117,3.7161,3.7905,3.7872,3.7472,3.8007,3.8096,3.801,3.8292,3.7889,3.7182,3.6675,3.6492,3.6492,3.6492,3.6492,3.6492,3.6492,3.6352,3.6196,3.6196,3.6085,3.5941,3.5752,3.5688,3.5671,3.5522,3.5504,3.5504,3.5504,3.5504,3.5504,3.5504,3.5504,3.5504,3.5504,3.5311,3.4773,3.3644,3.3143,3.2484,3.1431,3.1123,3.0986,3.0986,3.0986,3.0986,3.0986,3.1492,3.1869,3.2074,3.2613,3.2897,3.2897,3.2897,3.2791,3.2591,3.2591,3.2591,3.2627,3.3213,3.3802,0.0,0.0,0.0,2.5515,0.0,0.0,0.0,0.0,2.3822,0.0,0.0,0.0,0.0,0.0,0.0,0.0,0.0,0.0,0.0,0.0,0.0,0.0,0.0,0.0,0.0,0.0,0.0,2.9861,2.8012,2.8331,3.2096,3.3,3.3744,3.4472,3.5211,3.56,3.56,3.56,3.56,3.56,3.56,3.56,3.56,3.56,3.6028,3.6761,3.6761,3.7161,3.7838,3.7855,3.7872,3.7939,3.8667,3.8937,3.892,3.8954,3.8598,3.8205,3.8907,3.839,3.7296,3.6677,3.6492,3.6492,3.6492,3.6492,3.6492,3.6492,3.6352,3.6196,3.6196,3.6085,3.5941,3.5752,3.5688,3.5671,3.5522,3.5504,3.5504,3.5504,3.5504,3.5504,3.5504,3.5504,3.5504,3.5504,3.4839,3.4312,3.4279,3.3024,3.211,3.2074,3.1431,3.0986,3.0986,3.0986,3.0986,3.0986,3.1024,3.1371,3.2074,3.211,3.2146,3.2146,3.2146,3.1773,3.1061,3.1061,3.1061,3.1123,3.3269,3.4279,0.0,0.0,3.0913,2.7724,0.0,0.0,0.0,0.0,0.0,0.0,0.0,0.0,0.0,0.0,0.0,0.0,0.0,0.0,0.0,0.0,0.0,0.0,0.0,0.0,0.0,0.0,0.0,2.909,2.9039,3.0106,0.0,3.3271,3.3964,3.5199,3.5464,3.56,3.56,3.56,3.56,3.56,3.56,3.56,3.5616,3.6146,3.6535,3.6829,3.7313,3.7669,3.7939,3.843,3.8633,3.8676,3.8991,3.913,3.913,3.913,3.8999,3.8751,3.8201,3.749,3.6785,3.6585,3.6492,3.6492,3.6492,3.6492,3.6492,3.6492,3.646,3.6383,3.6242,3.6179,3.6053,3.5784,3.5688,3.5671,3.5522,3.5504,3.5504,3.5504,3.5504,3.5504,3.5504,3.5504,3.5504,3.5504,3.4839,3.4129,3.363,3.272,3.1905,3.1431,3.1161,3.0986,3.0986,3.0986,3.0986,3.0986,3.0986,3.1123,3.1371,3.1357,3.1357,3.1357,3.1357,3.1259,3.0986,3.0986,3.0986,3.1024,3.2268,3.2847,3.2028,3.2999,0.0,2.9991,3.0009,0.0,2.6888,0.0,0.0,0.0,0.0,0.0,0.0,0.0,0.0,0.0,0.0,0.0,0.0,0.0,0.0,0.0,0.0,0.0,0.0,0.0,2.6074,2.8085,2.8338,2.9598,0.0,0.0,3.4083,3.5549,3.56,3.56,3.56,3.56,3.56,3.56,3.56,3.56,3.5616,3.6417,3.6948,3.7212,3.7973,3.8447,3.8717,3.9191,3.9402,3.9378,3.9235,3.9206,3.9179,3.8974,3.8892,3.8756,3.7738,3.7164,3.6785,3.6585,3.6492,3.6492,3.6492,3.6492,3.6492,3.6492,3.646,3.6352,3.6242,3.6101,3.5975,3.5752,3.5671,3.5604,3.5537,3.5504,3.5504,3.5504,3.5504,3.5504,3.5504,3.5504,3.5504,3.5504,3.4591,3.3734,3.3248,3.234,3.1542,3.1048,3.0986,3.0986,3.0986,3.0986,3.0986,3.0986,3.0986,3.0986,3.0986,3.0986,3.1169,3.1588,3.1196,3.1182,3.1588,3.1182,3.0986,3.1024,3.1505,3.1713]}]]